     2              OBSERVATION DATA    G (GPS)             RINEX VERSION / TYPE
ASRINEXO V2.9.9 LH AIUB 01-FEB- 1 17:24                     PGM / RUN BY / DATE
BERN ASHTECH Z-12                                           COMMENT
BIT 2 OF LLI (+4) FLAGS DATA COLLECTED UNDER "AS" CONDITION COMMENT
USNB                                                        MARKER NAME
                                                            OBSERVER / AGENCY
? ASHTECH Z-XII3 1D15                                       REC # / TYPE / VERS
? CHOKE RING                                                ANT # / TYPE
  1112168.4900 -4842867.6000  3985509.6300                  APPROX POSITION XYZ
        0.0000        0.0000        0.0000                  ANTENNA: DELTA H/E/N
     1     1                                                WAVELENGTH FACT L1/2
     5    C1    L1    L2    P1    P2                        # / TYPES OF OBSERV
  2000     8     9     0     0   30.000000                  TIME OF FIRST OBS
                                                            END OF HEADER
 00  8  9  0  0 30.0000000  0  7 20 22 06 25 29 01 30
  22222442.042   -13887278.923 8 -10807031.25546  22222442.783    22222452.7474
  21228711.097   -21795893.098 9 -16957259.67447  21228713.926    21228724.0764
  23947950.048    -7014190.338 8  -5456372.72145  23947951.687    23947962.3504
  20681303.757   -24489182.919 9 -19058103.78248  20681305.943    20681313.5684
  22572763.617   -12148798.552 8  -9453810.20946  22572767.072    22572776.5804
  24684862.853    -1559283.739 7  -1201929.16745  24684859.448    24684871.8354
  23738719.371    -4128097.268 8  -3201367.54245  23738714.454    23738726.6484
 00  8  9  0  1  0.0000000  0  7 20 22 06 25 29 01 30
  22215243.885   -13925091.213 8 -10836495.36746  22215247.048    22215256.6314
  21212236.539   -21882463.769 9 -17024717.25347  21212240.157    21212249.4854
  23942726.228    -7041635.276 8  -5477758.29845  23942728.976    23942739.5284
  20683861.115   -24475744.498 9 -19047632.27548  20683863.422    20683870.8144
  22587833.888   -12069633.013 8  -9392122.84346  22587831.876    22587841.3194
  24666783.873    -1654266.022 7  -1275941.34045  24666784.846    24666796.8204
  23757589.407    -4028896.004 8  -3124067.94545  23757591.756    23757604.0794
 00  8  9  0  1 30.0000000  0  7 20 22 06 25 29 01 30
  22208158.755   -13962333.996 8 -10865515.72346  22208160.650    22208169.2514
  21195845.381   -21968614.418 9 -17091847.55147  21195846.602    21195855.8134
  23937588.978    -7068638.584 8  -5498799.77145  23937590.265    23937600.8344
  20686460.868   -24462079.989 9 -19036984.59848  20686463.653    20686471.0194
  22602943.535   -11990199.033 8  -9330226.31946  22602947.867    22602957.6734
  24648699.186    -1749265.740 7  -1349967.09345  24648706.590    24648719.1574
  23776511.065    -3929476.398 8  -3046598.22045  23776510.927    23776522.8814
 00  8  9  0  2  0.0000000  0  7 20 22 06 25 29 01 30
  22201180.363   -13999006.005 8 -10894091.30646  22201182.102    22201191.0204
  21179529.129   -22054342.655 9 -17158648.68547  21179532.698    21179542.3674
  23932531.096    -7095198.745 8  -5519495.92845  23932536.229    23932546.8294
  20689103.468   -24448189.815 9 -19026161.07648  20689106.727    20689113.9194
  22618113.232   -11910497.628 8  -9268121.39646  22618114.574    22618123.8884
  24630619.961    -1844281.769 7  -1424005.51245  24630625.145    24630636.9264
  23795469.847    -3829840.867 8  -2968960.20945  23795472.109    23795483.1194
 00  8  9  0  2 30.0000000  0  7 20 22 06 25 29 01 30
  22194309.310   -14035105.978 8 -10922221.15246  22194312.108    22194321.9214
  21163297.575   -22139645.972 9 -17225118.71047  21163299.773    21163309.2354
  23927563.229    -7121313.874 8  -5539845.29345  23927567.941    23927578.2074
  20691789.755   -24434074.131 9 -19015161.83748  20691792.650    20691800.2324
  22633330.079   -11830529.399 8  -9205808.58046  22633332.855    22633342.0664
  24612541.325    -1939312.728 7  -1498055.55045  24612540.323    24612553.3344
  23814471.693    -3729992.420 8  -2891156.29545  23814472.708    23814483.7834
 00  8  9  0  3  0.0000000  0  7 20 22 06 25 29 01 30
  22187548.916   -14070632.629 8 -10949904.26546  22187551.003    22187560.8234
  21147142.904   -22224522.273 9 -17291255.99547  21147148.540    21147157.9734
  23922676.288    -7146982.244 8  -5559846.55345  23922683.413    23922693.6084
  20694519.719   -24419733.857 9 -19003987.59148  20694521.449    20694528.9644
  22648597.968   -11750295.052 8  -9143288.36446  22648600.305    22648610.5994
  24594459.459    -2034357.474 7  -1572116.35245  24594454.936    24594466.7604
  23833511.343    -3629933.314 8  -2813188.22845  23833512.527    23833524.6324
 00  8  9  0  3 30.0000000  0  7 20 22 06 25 29 01 30
  22180897.057   -14105584.838 8 -10977139.74246  22180900.324    22180910.2394
  21131077.007   -22308969.687 9 -17357059.09947  21131078.747    21131087.7344
  23917881.493    -7172202.338 8  -5579498.51245  23917882.855    23917894.9384
  20697291.177   -24405169.558 9 -18992638.78048  20697292.967    20697300.3924
  22663916.591   -11669795.450 8  -9080561.50146  22663918.213    22663929.5554
  24576363.412    -2129414.914 7  -1646186.95845  24576365.783    24576377.8694
  23852586.978    -3529666.445 8  -2735058.28345  23852592.761    23852604.4474
 00  8  9  0  4  0.0000000  0  7 20 22 06 25 29 01 30
  22174356.643   -14139961.399 8 -11003926.67647  22174358.805    22174368.6954
  21115087.594   -22392986.367 9 -17422526.56147  21115090.381    21115100.1994
  23913167.972    -7196972.605 8  -5598799.93945  23913168.564    23913180.6304
  20700104.484   -24390381.419 9 -18981115.55748  20700106.859    20700114.4964
  22679289.069   -11589031.334 8  -9017628.50246  22679287.512    22679298.3764
  24558266.594    -2224483.494 7  -1720266.28945  24558274.247    24558285.8004
  23871711.747    -3429194.223 8  -2656768.31945  23871712.548    23871723.3584
 00  8  9  0  4 30.0000000  0  7 20 22 06 25 29 01 30
  22167927.652   -14173760.935 8 -11030263.96247  22167928.179    22167936.2144
  21099184.296   -22476569.968 9 -17487656.55247  21099185.075    21099194.7404
  23908541.060    -7221291.381 8  -5617749.56845  23908541.221    23908553.0574
  20702961.441   -24375370.054 9 -18969418.39148  20702963.441    20702971.2764
  22694708.122   -11508003.499 8  -8954489.99746  22694706.677    22694717.1864
  24540179.798    -2319561.984 7  -1794353.30845  24540181.934    24540193.0844
  23890867.160    -3328519.281 8  -2578320.38745  23890870.683    23890881.8724
 00  8  9  0  5  0.0000000  0  7 20 22 06 25 29 01 30
  22161602.160   -14206982.565 8 -11056150.94447  22161605.348    22161614.3904
  21083360.396   -22559718.092 9 -17552447.19947  21083362.467    21083372.0734
  23903996.416    -7245157.052 8  -5636346.11645  23903999.500    23904010.1024
  20705857.309   -24360136.030 9 -18957547.72748  20705862.235    20705870.0304
  22710172.767   -11426712.819 8  -8891146.67046  22710176.121    22710186.3974
  24522078.990    -2414648.961 7  -1868446.93845  24522086.657    24522100.1564
  23910062.389    -3227644.115 8  -2499716.45345  23910067.049    23910077.8664
 00  8  9  0  5 30.0000000  0  7 20 22 06 25 29 01 30
  22155391.501   -14239624.930 8 -11081586.53947  22155393.448    22155403.3084
  21067619.503   -22642428.729 9 -17616896.96647  21067623.402    21067632.7054
  23899541.660    -7268568.071 8  -5654588.40545  23899544.865    23899555.8534
  20708800.164   -24344679.797 9 -18945503.91648  20708803.352    20708811.2284
  22725689.304   -11345160.036 8  -8827599.12146  22725694.866    22725704.7234
  24503987.089    -2509743.362 7  -1942546.32845  24503991.156    24504002.6294
  23929296.580    -3126571.323 8  -2420958.53145  23929299.602    23929310.9384
 00  8  9  0  6  0.0000000  0  7 20 22 06 25 29 01 30
  22149292.225   -14271687.077 8 -11106569.99747  22149292.553    22149302.5284
  21051960.897   -22724700.038 9 -17681004.40247  21051967.115    21051976.9404
  23895174.942    -7291522.829 8  -5672475.17445  23895176.444    23895186.8214
  20711784.556   -24329001.750 9 -18933287.25548  20711786.534    20711794.6754
  22741259.802   -11263345.933 8  -8763847.95146  22741263.446    22741273.0184
  24485890.810    -2604843.860 7  -2016650.46045  24485894.664    24485905.6724
  23948572.124    -3025303.610 8  -2342048.72245  23948570.939    23948581.9244
 00  8  9  0  6 30.0000000  0  7 20 22 06 25 29 01 30
  22143299.869   -14303168.018 8 -11131100.56647  22143301.943    22143311.4984
  21036394.627   -22806530.228 9 -17744768.10947  21036395.582    21036404.9044
  23890893.234    -7314019.825 8  -5690005.23545  23890895.343    23890906.0754
  20714809.612   -24313102.344 9 -18920898.11148  20714812.335    20714820.3954
  22756877.263   -11181271.397 8  -8699893.82246  22756882.139    22756892.2314
  24467791.139    -2699949.214 7  -2090758.39145  24467794.599    24467808.0224
  23967880.574    -2923843.797 8  -2262989.20145  23967877.952    23967889.7054
 00  8  9  0  7  0.0000000  0  7 20 22 06 25 29 01 30
  22137420.223   -14334066.685 8 -11155177.41647  22137422.124    22137430.7324
  21020903.914   -22887917.053 9 -17808186.33247  21020908.131    21020917.5804
  23886689.163    -7336057.548 8  -5707177.42745  23886700.600    23886711.1474
  20717875.829   -24296981.984 9 -18908336.79848  20717879.781    20717887.8304
  22772549.717   -11098937.288 8  -8635737.43246  22772549.802    22772559.9264
  24449693.782    -2795058.275 7  -2164869.21245  24449697.818    24449709.0584
  23987224.113    -2822193.972 8  -2183781.63345  23987220.608    23987232.7684
 00  8  9  0  7 30.0000000  0  7 20 22 06 25 29 01 30
  22131648.125   -14364382.128 8 -11178799.79447  22131652.757    22131661.3744
  21005501.951   -22968858.084 9 -17871257.19047  21005505.768    21005514.7734
  23882588.798    -7357634.634 8  -5723990.69045  23882594.706    23882605.8064
  20720985.541   -24280641.091 9 -18895603.64148  20720989.346    20720997.3234
  22788261.914   -11016344.317 8  -8571379.36146  22788266.028    22788277.0984
  24431603.452    -2890169.523 7  -2238981.73545  24431597.124    24431610.8764
  24006594.860    -2720356.867 8  -2104428.13845  24006600.750    24006612.2114
 00  8  9  0  8  0.0000000  0  7 20 22 06 25 29 01 30
  22125992.556   -14394113.021 8 -11201966.70347  22125995.437    22126004.4344
  20990185.456   -23049351.466 9 -17933979.22747  20990187.595    20990197.3984
  23878579.223    -7378749.575 8  -5740443.81245  23878578.022    23878586.0144
  20724139.132   -24264080.227 9 -18882699.08048  20724141.050    20724148.9694
  22804026.879   -10933493.465 8  -8506820.34246  22804032.838    22804043.1274
  24413496.367    -2985281.620 7  -2313094.89745  24413496.527    24413512.0894
  24026014.026    -2618334.882 8  -2024930.56945  24026014.431    24026025.1354
 00  8  9  0  8 30.0000000  0  7 20 22 06 25 29 01 30
  22120449.109   -14423258.703 8 -11224677.58747  22120450.145    22120458.0864
  20974952.853   -23129395.499 9 -17996351.11447  20974956.014    20974965.2404
  23874642.905    -7399400.814 8  -5756535.63545  23874647.744    23874657.2594
  20727332.730   -24247299.992 9 -18869623.58048  20727334.545    20727342.1964
  22819846.477   -10850385.551 8  -8442060.98746  22819848.025    22819857.7334
  24395401.607    -3080393.211 7  -2387207.67945  24395399.850    24395412.4594
  24045462.528    -2516130.916 8  -1945291.20845  24045464.038    24045474.4364
 00  8  9  0  9  0.0000000  0  7 20 22 06 25 29 01 30
  22115016.969   -14451818.133 8 -11246931.64647  22115015.443    22115023.6164
  20959805.954   -23208988.490 9 -18058371.54547  20959809.993    20959819.2534
  23870806.961    -7419586.958 8  -5772265.04645  23870806.412    23870816.1574
  20730565.706   -24230300.955 9 -18856377.58848  20730569.289    20730577.0574
  22835708.803   -10767021.286 8  -8377101.90446  22835710.921    22835721.7504
  24377295.131    -3175502.857 7  -2461318.96445  24377301.139    24377312.4194
  24064940.982    -2413747.516 8  -1865512.00645  24064946.030    24064957.3724
 00  8  9  0  9 30.0000000  0  7 20 22 06 25 29 01 30
  22109689.495   -14479790.245 8 -11268728.06847  22109691.883    22109700.7124
  20944748.132   -23288127.905 9 -18120038.54947  20944750.362    20944759.5224
  23867053.532    -7439306.592 8  -5787630.92245  23867054.343    23867063.9944
  20733843.365   -24213083.321 9 -18842961.25848  20733846.273    20733853.3494
  22851621.249   -10683401.689 8  -8311943.87646  22851623.577    22851633.8474
  24359194.155    -3270609.387 7  -2535427.82445  24359203.127    24359214.8434
  24084460.707    -2311187.006 8  -1785594.79345  24084462.320    24084474.2534
 00  8  9  0 10  0.0000000  0  7 20 22 06 25 29 01 30
  22104476.222   -14507174.305 8 -11290066.26547  22104479.701    22104489.8564
  20929776.592   -23366811.716 9 -18181350.54147  20929777.251    20929786.6274
  23863382.235    -7458558.390 8  -5802632.26645  23863389.122    23863401.3194
  20737161.796   -24195647.402 9 -18829374.83048  20737164.012    20737171.5224
  22867581.306   -10599527.603 8  -8246587.51846  22867584.158    22867593.9234
  24341101.267    -3365711.345 8  -2609533.08745  24341106.639    24341117.7094
  24104015.364    -2208451.887 7  -1705541.54445  24104012.665    24104023.7984
 00  8  9  0 10 30.0000000  0  7 20 22 06 25 29 01 30
  22099378.313   -14533969.279 8 -11310945.43747  22099380.762    22099390.6064
  20914887.339   -23445038.119 9 -18242306.11147  20914891.078    20914900.7034
  23859806.964    -7477340.848 8  -5817267.88245  23859815.277    23859827.2694
  20740520.515   -24177993.622 9 -18815618.64448  20740523.542    20740530.9664
  22883590.314   -10515399.981 8  -8181033.62346  22883593.820    22883603.5574
  24323010.497    -3460807.067 7  -2683633.56745  24323009.287    24323020.7964
  24123599.194    -2105544.734 8  -1625354.22845  24123595.108    24123606.8164
 00  8  9  0 11  0.0000000  0  7 20 22 06 25 29 01 30
  22094392.719   -14560174.362 8 -11331364.95347  22094394.938    22094404.0554
  20900087.154   -23522805.533 9 -18302904.02547  20900092.248    20900101.7554
  23856324.999    -7495652.579 8  -5831536.69045  23856330.945    23856342.7874
  20743921.578   -24160122.670 9 -18801693.22748  20743924.506    20743931.4354
  22899649.397   -10431019.679 8  -8115282.82746  22899651.352    22899660.5584
  24304909.717    -3555895.386 7  -2757728.29145  24304913.421    24304925.8484
  24143215.521    -2002468.022 8  -1545034.80045  24143210.999    24143221.1764
 00  8  9  0 11 30.0000000  0  7 20 22 06 25 29 01 30
  22089518.166   -14585788.835 8 -11351324.25847  22089520.494    22089529.6434
  20885377.451   -23600112.095 9 -18363142.82947  20885381.043    20885390.4564
  23852931.078    -7513492.282 8  -5845437.68045  23852936.224    23852947.9104
  20747363.812   -24142034.688 9 -18787598.70148  20747366.190    20747373.3994
  22915751.149   -10346387.577 8  -8049335.81946  22915755.581    22915764.9044
  24286815.610    -3650974.994 8  -2831816.18845  24286821.216    24286832.4604
  24162849.887    -1899224.130 8  -1464585.06945  24162857.877    24162868.2864
 00  8  9  0 12  0.0000000  0  7 20 22 06 25 29 01 30
  22084759.058   -14610811.800 8 -11370822.64847  22084758.614    22084768.0494
  20870757.230   -23676955.571 9 -18423020.79447  20870758.275    20870767.5934
  23849627.996    -7530858.677 8  -5858969.87845  23849632.196    23849642.8484
  20750846.791   -24123730.201 9 -18773335.46648  20750849.381    20750856.6504
  22931901.895   -10261504.664 8  -7983193.38446  22931908.595    22931918.4574
  24268730.943    -3746044.473 7  -2905896.21545  24268729.520    24268741.2214
  24182533.645    -1795816.062 8  -1384007.41945  24182534.601    24182545.4994
 00  8  9  0 12 30.0000000  0  7 20 22 06 25 29 01 30
  22080111.504   -14635242.426 8 -11389859.48447  22080110.953    22080118.6004
  20856219.512   -23753333.826 9 -18482536.25347  20856224.201    20856233.1974
  23846418.730    -7547750.459 8  -5872132.24545  23846416.755    23846429.0224
  20754371.798   -24105209.510 9 -18758903.75948  20754373.376    20754381.2134
  22948112.428   -10176371.775 8  -7916856.15646  22948108.818    22948119.5484
  24250636.372    -3841102.302 7  -2979967.15045  24250640.489    24250653.0304
  24202246.646    -1692246.061 7  -1303303.61145  24202243.504    24202254.7554
 00  8  9  0 13  0.0000000  0  7 20 22 06 25 29 01 30
  22075570.235   -14659080.117 8 -11408434.29647  22075573.581    22075582.4584
  20841776.859   -23829245.293 9 -18541687.98147  20841778.565    20841787.8954
  23843292.353    -7564166.197 8  -5884923.66245  23843293.224    23843304.3584
  20757935.418   -24086473.054 9 -18744303.92648  20757938.576    20757946.4924
  22964350.411   -10090989.977 8  -7850324.99646  22964356.367    22964366.9234
  24232550.707    -3936147.008 7  -3054027.89345  24232553.825    24232565.8794
  24221983.453    -1588516.494 7  -1222475.45945  24221983.128    24221993.7054
 00  8  9  0 13 30.0000000  0  7 20 22 06 25 29 01 30
  22071147.653   -14682323.974 8 -11426546.39347  22071150.837    22071158.8534
  20827421.464   -23904688.560 9 -18600474.87847  20827422.017    20827431.1074
  23840254.155    -7580104.776 8  -5897343.29045  23840260.550    23840272.3834
  20761541.302   -24067521.868 9 -18729536.77148  20761545.007    20761552.6734
  22980650.084   -10005360.082 8  -7783600.48846  22980651.358    22980661.5794
  24214467.397    -4031177.182 7  -3128077.31645  24214470.582    24214482.4184
  24241750.977    -1484629.909 8  -1141524.94845  24241751.787    24241762.2124
 00  8  9  0 14  0.0000000  0  7 20 22 06 25 29 01 30
  22066837.920   -14704973.383 8 -11444195.28147  22066840.504    22066849.4064
  20813156.029   -23979661.516 9 -18658895.29547  20813155.383    20813164.2404
  23837315.740    -7595564.906 8  -5909390.09345  23837317.711    23837329.7944
  20765187.972   -24048355.896 9 -18714602.25048  20765192.050    20765200.1704
  22996985.521    -9919483.167 8  -7716683.49746  22996993.303    22997003.9274
  24196386.294    -4126191.516 7  -3202114.45345  24196389.843    24196400.8574
  24261550.540    -1380589.051 8  -1060454.21545  24261549.689    24261561.9334
 00  8  9  0 14 30.0000000  0  7 20 22 06 25 29 01 30
  22062644.074   -14727027.592 8 -11461380.40347  22062643.526    22062652.3564
  20798976.423   -24054162.091 9 -18716947.63347  20798978.359    20798987.4214
  23834466.561    -7610545.366 8  -5921063.10645  23834467.333    23834478.8634
  20768876.268   -24028975.662 9 -18699500.76748  20768879.863    20768887.7804
  23013384.169    -9833360.077 8  -7649574.67046  23013382.605    23013391.8544
  24178306.932    -4221188.458 7  -3276137.98445  24178312.314    24178324.7174
  24281378.286    -1276396.272 8   -979265.09045  24281377.608    24281389.8274
 00  8  9  0 15  0.0000000  0  7 20 22 06 25 29 01 30
  22058558.570   -14748485.996 8 -11478101.22647  22058560.552    22058568.9344
  20784890.815   -24128188.383 9 -18774630.38147  20784891.375    20784900.4484
  23831702.477    -7625044.836 8  -5932361.33145  23831708.199    23831720.1244
  20772604.618   -24009381.141 9 -18684232.31048  20772608.643    20772616.5654
  23029815.815    -9746991.870 8  -7582274.85446  23029817.081    23029827.5494
  24160235.899    -4316166.650 8  -3350146.92745  24160239.280    24160251.3074
  24301229.657    -1172053.877 8   -897959.39445  24301233.458    24301245.0914
 00  8  9  0 15 30.0000000  0  7 20 22 06 25 29 01 30
  22054589.680   -14769348.030 8 -11494357.36047  22054590.329    22054599.9104
  20770893.083   -24201738.889 9 -18831942.40747  20770894.905    20770904.3864
  23829043.450    -7639062.276 8  -5943283.98545  23829041.285    23829052.1854
  20776376.183   -23989573.062 9 -18668797.44048  20776378.201    20776385.9524
  23046295.012    -9660379.324 8  -7514784.64746  23046299.515    23046310.0504
  24142167.652    -4411124.661 8  -3424140.11645  24142170.169    24142182.1444
  24321111.181    -1067564.353 7   -816539.05745  24321116.794    24321128.9844
 00  8  9  0 16  0.0000000  0  7 20 22 06 25 29 01 30
  22050730.076   -14789613.018 8 -11510148.27247  22050734.362    22050743.4704
  20756986.867   -24274812.185 9 -18888882.56547  20756989.554    20756999.0144
  23826461.508    -7652596.434 8  -5953830.03245  23826464.906    23826476.7044
  20780185.885   -23969552.146 9 -18653196.72748  20780188.039    20780195.6804
  23062824.609    -9573523.652 8  -7447105.01545  23062827.105    23062837.6974
  24124106.649    -4506060.859 8  -3498116.33045  24124103.284    24124115.0784
  24341025.387     -962930.174 7   -735005.99845  24341027.759    24341040.2464
 00  8  9  0 16 30.0000000  0  7 20 22 06 25 29 01 30
  22046990.523   -14809280.431 8 -11525473.54547  22046991.971    22047001.4264
  20743175.406   -24347406.266 9 -18945449.31947  20743175.608    20743184.3714
  23823975.444    -7665646.241 8  -5963998.64845  23823982.118    23823993.4954
  20784035.505   -23949318.355 9 -18637430.13548  20784038.452    20784046.0294
  23079394.629    -9486425.716 8  -7379236.56745  23079401.247    23079411.8244
  24106036.693    -4600973.770 8  -3572074.37345  24106042.278    24106053.7004
  24360967.593     -858153.736 7   -653362.09845  24360966.279    24360978.8134
 00  8  9  0 17  0.0000000  0  7 20 22 06 25 29 01 30
  22043359.206   -14828349.567 8 -11540332.61247  22043362.887    22043372.0774
  20729451.284   -24419519.093 9 -19001641.07047  20729453.169    20729461.7384
  23821586.017    -7678210.571 8  -5973788.96945  23821590.545    23821601.9984
  20787927.291   -23928872.142 9 -18621498.01448  20787929.061    20787936.8724
  23096021.061    -9399086.455 8  -7311180.08645  23096021.434    23096033.0104
  24087984.652    -4695861.840 8  -3646013.09545  24087985.965    24087995.5424
  24380924.284     -753237.828 7   -571609.48845  24380932.704    24380942.4994
 00  8  9  0 17 30.0000000  0  7 20 22 06 25 29 01 30
  22039844.343   -14846819.898 8 -11554725.09247  22039848.176    22039856.7474
  20715820.162   -24491148.882 9 -19057456.43347  20715822.170    20715830.8794
  23819288.156    -7690288.291 8  -5983200.14545  23819292.897    23819303.5694
  20791856.757   -23908214.062 9 -18605400.80448  20791860.315    20791867.8254
  23112686.519    -9311507.090 8  -7242936.53845  23112688.073    23112697.7024
  24069934.673    -4790723.552 8  -3719931.28145  24069933.716    24069944.9584
  24400917.339     -648184.765 7   -489750.00745  24400922.391    24400932.8214
 00  8  9  0 18  0.0000000  0  7 20 22 06 25 29 01 30
  22036445.244   -14864690.990 8 -11568650.61547  22036446.788    22036455.7074
  20702283.769   -24562294.415 9 -19112894.43747  20702283.518    20702292.2894
  23817085.786    -7701878.251 8  -5992231.24945  23817087.019    23817098.9464
  20795828.806   -23887344.466 9 -18589138.77148  20795831.852    20795838.9924
  23129394.167    -9223688.571 8  -7174506.57346  23129398.894    23129409.7294
  24051877.482    -4885557.479 7  -3793827.76645  24051885.027    24051897.1464
  24420935.002     -542996.814 7   -407785.42245  24420939.248    24420949.6254
 00  8  9  0 18 30.0000000  0  7 20 22 06 25 29 01 30
  22033155.726   -14881962.447 8 -11582108.88847  22033160.145    22033169.5684
  20688834.757   -24632954.132 9 -19167953.88547  20688837.511    20688846.3444
  23814977.203    -7712979.428 8  -6000881.45246  23814975.577    23814986.1404
  20799842.046   -23866263.920 9 -18572712.36348  20799843.158    20799850.5554
  23146154.388    -9135631.886 8  -7105891.04645  23146154.657    23146166.5134
  24033846.925    -4980362.042 8  -3867701.40045  24033846.858    24033857.0194
  24440977.005     -437676.461 7   -325717.67045  24440980.812    24440991.9894
 00  8  9  0 19  0.0000000  0  7 20 22 06 25 29 01 30
  22029986.178   -14898633.771 8 -11595099.53347  22029987.976    22029997.4814
  20675483.407   -24703126.036 9 -19222633.23047  20675484.274    20675492.9004
  23812952.918    -7723590.711 8  -6009149.96746  23812955.957    23812967.6444
  20803891.882   -23844972.212 9 -18556121.40648  20803894.990    20803902.3614
  23162953.633    -9047338.007 8  -7037090.72045  23162957.303    23162969.1374
  24015807.797    -5075135.724 8  -3941550.97145  24015811.234    24015822.7694
  24461050.725     -332226.303 7   -243548.74545  24461047.757    24461058.1024
 00  8  9  0 19 30.0000000  0  7 20 22 06 25 29 01 30
  22026926.809   -14914704.508 8 -11607622.16047  22026929.856    22026938.6404
  20662221.259   -24772808.293 9 -19276931.03247  20662223.999    20662232.5974
  23811026.416    -7733711.092 8  -6017035.91745  23811029.320    23811040.6774
  20807983.069   -23823470.023 9 -18539366.44448  20807986.725    20807994.0104
  23179797.335    -8958808.101 8  -6968106.45145  23179804.953    23179815.0624
  23997776.063    -5169876.907 8  -4015375.18845  23997781.889    23997793.3734
  24481138.510     -226648.655 7   -161280.48345  24481138.686    24481149.2114
 00  8  9  0 20  0.0000000  0  7 20 22 06 25 29 01 30
  22023979.441   -14930174.285 8 -11619676.52247  22023985.870    22023994.9414
  20649056.603   -24841999.194 9 -19330845.95947  20649057.220    20649065.8514
  23809192.714    -7743339.621 8  -6024538.61645  23809197.778    23809208.2754
  20812115.040   -23801757.628 9 -18522447.68148  20812118.297    20812125.9334
  23196700.035    -8870043.257 8  -6898939.14445  23196695.790    23196706.1254
  23979755.964    -5264584.053 8  -4089172.89345  23979760.843    23979771.2954
  24501256.228     -120946.052 7    -78914.88545  24501252.862    24501264.7884
 00  8  9  0 20 30.0000000  0  7 20 22 06 25 29 01 30
  22021156.331   -14945042.771 8 -11631262.32047  22021156.676    22021165.6904
  20635981.212   -24910697.644 9 -19384377.15547  20635984.301    20635993.1914
  23807459.342    -7752475.267 8  -6031657.26845  23807459.275    23807469.4454
  20816286.422   -23779835.705 9 -18505365.65748  20816289.630    20816297.6144
  23213622.564    -8781044.369 8  -6829589.47345  23213631.565    23213641.7874
  23961739.432    -5359255.779 8  -4162943.00745  23961744.598    23961756.8934
  24521396.353      -15120.649 7      3546.38545  24521392.195    24521402.6774
 00  8  9  0 21  0.0000000  0  7 20 22 06 25 29 01 30
  22018438.878   -14959309.463 8 -11642379.20347  22018441.661    22018450.9834
  20623002.857   -24978902.181 9 -19437523.47847  20623005.409    20623014.5314
  23805813.143    -7761117.168 8  -6038391.16245  23805814.710    23805825.3994
  20820497.666   -23757704.198 9 -18488120.32148  20820501.122    20820509.1424
  23230603.734    -8691812.690 8  -6760058.38345  23230610.675    23230621.5504
  23943731.668    -5453890.392 8  -4236684.13845  23943736.828    23943748.1184
  24541547.508       90824.998 7     86101.35745  24541552.564    24541563.3054
 00  8  9  0 21 30.0000000  0  7 20 22 06 25 29 01 30
  22015840.887   -14972974.132 8 -11653026.96847  22015841.698    22015850.3934
  20610116.270   -25046610.764 9 -19490283.34547  20610120.402    20610129.3764
  23804262.212    -7769264.519 8  -6044739.69945  23804264.274    23804275.5324
  20824749.559   -23735363.633 9 -18470712.09548  20824752.389    20824760.2704
  23247637.492    -8602349.073 8  -6690346.55345  23247635.639    23247647.0924
  23925734.686    -5548486.410 8  -4310395.22845  23925736.824    23925747.9374
  24561737.296      196888.666 7    168748.28545  24561735.140    24561746.4514
 00  8  9  0 22  0.0000000  0  6 20 22 06 25 29 01
  22013353.364   -14986036.500 8 -11663205.40547  22013355.913    22013364.7204
  20597327.566   -25113821.639 9 -19542655.39047  20597330.596    20597339.6574
  23802802.284    -7776916.238 8  -6050702.03645  23802808.444    23802818.2604
  20829041.295   -23712814.692 9 -18453141.48648  20829043.341    20829051.3494
  23264703.264    -8512654.804 8  -6620455.01045  23264704.936    23264714.9164
  23907738.648    -5643042.113 8  -4384074.95045  23907743.110    23907752.8774
 00  8  9  0 22 30.0000000  0  6 20 22 06 25 29 01
  22010981.830   -14998496.309 8 -11672914.31247  22010985.097    22010993.5884
  20584635.301   -25180533.498 9 -19594638.59148  20584636.406    20584645.0334
  23801437.944    -7784071.247 8  -6056277.32645  23801446.307    23801457.7594
  20833371.874   -23690057.177 9 -18435408.35448  20833373.957    20833381.7774
  23281807.822    -8422730.811 8  -6550384.45845  23281817.183    23281826.4604
  23889751.877    -5737555.872 8  -4457721.94845  23889757.395    23889768.2274
 00  8  9  0 23  0.0000000  0  6 20 22 06 25 29 01
  22008727.176   -15010353.247 8 -11682153.44347  22008728.950    22008738.2394
  20572034.359   -25246745.073 9 -19646231.96848  20572036.922    20572045.4804
  23800176.041    -7790728.800 8  -6061464.99045  23800180.264    23800190.6664
  20837740.424   -23667091.806 9 -18417513.25148  20837744.344    20837751.8164
  23298969.127    -8332578.416 8  -6480135.94845  23298972.638    23298983.3104
  23871780.617    -5832026.003 8  -4531334.90645  23871780.603    23871791.5084
 00  8  9  0 23 30.0000000  0  6 20 22 06 25 29 01
  22006581.757   -15021607.117 8 -11690922.66147  22006586.230    22006596.6674
  20559531.331   -25312454.910 9 -19697434.38348  20559532.140    20559540.9724
  23799007.505    -7796888.048 8  -6066264.35845  23799007.194    23799017.8364
  20842151.115   -23643918.988 9 -18399456.50348  20842153.725    20842161.7034
  23316170.248    -8242198.433 8  -6409710.11145  23316170.948    23316183.4974
  23853810.237    -5926451.080 8  -4604912.78945  23853811.903    23853821.9814
 00  8  9  0 24  0.0000000  0  6 20 22 06 25 29 01
  22004559.392   -15032257.716 8 -11699221.80347  22004560.473    22004569.3324
  20547121.501   -25377661.060 9 -19748244.31348  20547123.808    20547132.4464
  23797924.701    -7802548.183 8  -6070674.83745  23797929.221    23797939.5864
  20846598.786   -23620538.692 9 -18381238.08948  20846602.956    20846610.7054
  23333410.707    -8151592.255 8  -6339107.99145  23333413.222    23333424.6744
  23835843.023    -6020829.389 8  -4678454.25745  23835851.946    23835862.0604
 00  8  9  0 24 30.0000000  0  6 20 22 06 25 29 01
  22002645.684   -15042304.878 8 -11707050.74247  22002648.433    22002657.0204
  20534808.557   -25442361.959 9 -19798660.53848  20534811.351    20534820.4604
  23796941.690    -7807708.413 8  -6074695.71545  23796947.223    23796957.6674
  20851088.427   -23596951.549 9 -18362858.49248  20851091.848    20851099.1634
  23350690.140    -8060760.827 8  -6268330.33745  23350696.364    23350707.4864
  23817893.953    -6115159.183 8  -4751957.91445  23817901.333    23817912.9804
 00  8  9  0 25  0.0000000  0  6 20 22 06 25 29 01
  22000848.208   -15051748.589 8 -11714409.45347  22000850.883    22000859.3154
  20522593.825   -25506556.494 9 -19848682.19248  20522595.707    20522604.4374
  23796056.289    -7812367.998 8  -6078326.51345  23796061.505    23796070.3274
  20855618.430   -23573157.996 9 -18344318.05648  20855619.694    20855626.6874
  23368022.098    -7969705.410 8  -6197378.18045  23368025.352    23368036.2174
  23799959.662    -6209439.026 8  -4825422.60645  23799959.782    23799971.6344
 00  8  9  0 25 30.0000000  0  6 20 22 06 25 29 01
  21999167.498   -15060588.718 8 -11721297.83847  21999169.131    21999177.3264
  20510474.243   -25570243.552 9 -19898308.41148  20510476.298    20510485.2074
  23795273.693    -7816526.055 8  -6081566.52645  23795270.424    23795280.4404
  20860183.159   -23549157.715 9 -18325616.53248  20860186.556    20860193.8144
  23385390.477    -7878426.987 8  -6126252.20945  23385394.035    23385405.8674
  23782028.305    -6303667.247 8  -4898847.09145  23782028.279    23782039.8244
 00  8  9  0 26  0.0000000  0  6 20 22 06 25 29 01
  21997601.942   -15068825.217 8 -11727715.87147  21997602.263    21997609.9374
  20498452.248   -25633421.380 9 -19947537.83048  20498454.027    20498462.7944
  23794570.176    -7820181.593 8  -6084414.98045  23794574.379    23794584.7464
  20864790.120   -23524951.511 9 -18306754.55248  20864792.971    20864800.4264
  23402808.586    -7786926.803 8  -6054953.50145  23402805.699    23402817.7614
  23764104.568    -6397842.024 8  -4972229.97645  23764107.597    23764118.8794
 00  8  9  0 26 30.0000000  0  6 20 22 06 25 29 01
  21996146.161   -15076457.715 8 -11733663.26047  21996149.400    21996157.6584
  20486527.085   -25696088.433 9 -19996369.24748  20486528.936    20486537.7234
  23793973.653    -7823334.099 8  -6086871.42945  23793973.839    23793985.1034
  20869435.036   -23500539.920 9 -18287732.53148  20869438.095    20869445.7324
  23420250.082    -7695205.988 8  -5983482.82245  23420260.344    23420272.4044
  23746193.349    -6491961.896 8  -5045570.05345  23746197.589    23746208.6284
 00  8  9  0 27  0.0000000  0  6 20 22 06 25 29 01
  21994808.199   -15083486.570 8 -11739140.29447  21994811.731    21994821.2184
  20474700.182   -25758243.117 9 -20044801.40348  20474701.735    20474710.1364
  23793467.980    -7825983.029 8  -6088935.50945  23793469.977    23793480.0044
  20874118.611   -23475922.906 9 -18268550.44448  20874122.644    20874130.1854
  23437753.653    -7603265.712 8  -5911841.17945  23437756.404    23437767.1564
  23728298.815    -6586025.068 8  -5118865.96345  23728297.760    23728308.0954
 00  8  9  0 27 30.0000000  0  6 20 22 06 25 29 01
  21993586.951   -15089911.549 8 -11744146.77147  21993589.132    21993598.3274
  20462971.209   -25819884.474 9 -20092833.57848  20462971.169    20462979.8324
  23793057.156    -7828127.521 8  -6090606.48645  23793061.957    23793071.3474
  20878842.519   -23451100.882 9 -18249208.60448  20878845.849    20878853.7094
  23455295.379    -7511107.101 8  -5840029.38245  23455294.284    23455306.2374
  23710411.844    -6680029.894 8  -5192116.41245  23710408.768    23710419.7384
 00  8  9  0 28  0.0000000  0  6 20 22 06 25 29 01
  21992477.921   -15095732.767 8 -11748682.78347  21992481.695    21992490.3974
  20451335.332   -25881011.408 9 -20140464.89248  20451338.567    20451347.8494
  23792741.926    -7829766.891 8  -6091883.89145  23792750.250    23792760.4034
  20883605.079   -23426073.979 9 -18229707.12648  20883607.890    20883616.0674
  23472865.377    -7418731.436 7  -5768048.44645  23472871.875    23472883.4654
  23692525.390    -6773974.697 8  -5265320.09646  23692532.373    23692543.8584
 00  8  9  0 28 30.0000000  0  6 20 22 06 25 29 01
  21991487.578   -15100950.209 8 -11752748.31647  21991489.055    21991497.1234
  20439804.642   -25941622.361 9 -20187694.14048  20439805.094    20439813.7364
  23792533.410    -7830900.505 8  -6092767.18845  23792533.975    23792544.1784
  20888405.479   -23400842.723 9 -18210046.41548  20888409.656    20888417.6864
  23490487.584    -7326139.917 8  -5695899.32845  23490492.125    23490503.9784
  23674659.995    -6867857.690 8  -5338475.57745  23674665.832    23674677.3234
 00  8  9  0 29  0.0000000  0  6 20 22 06 25 29 01
  21990608.555   -15105564.023 8 -11756343.50747  21990610.773    21990619.0754
  20428366.905   -26001715.649 9 -20234520.02348  20428369.550    20428378.0734
  23792412.449    -7831527.836 8  -6093255.99145  23792414.560    23792424.9144
  20893247.590   -23375407.497 9 -18190226.76148  20893249.802    20893258.0544
  23508152.483    -7233333.639 7  -5623582.87445  23508152.454    23508163.2154
  23656806.338    -6961677.075 8  -5411581.47845  23656813.665    23656824.4164
 00  8  9  0 29 30.0000000  0  6 20 22 06 25 29 01
  21989844.298   -15109574.108 8 -11759468.26147  21989847.574    21989855.6484
  20417032.323   -26061290.020 9 -20280941.55448  20417033.377    20417041.3014
  23792385.786    -7831648.247 8  -6093349.78545  23792391.759    23792401.3864
  20898124.493   -23349768.630 9 -18170248.43248  20898128.965    20898136.8414
  23525854.837    -7140313.884 8  -5551100.04345  23525854.508    23525864.8234
  23638974.544    -7055431.195 8  -5484636.56446  23638972.665    23638983.3374
 00  8  9  0 30  0.0000000  0  6 20 22 06 25 29 01
  21989196.957   -15112980.959 8 -11762122.96647  21989199.579    21989207.8294
  20405792.817   -26120344.645 9 -20326958.08948  20405795.248    20405803.5524
  23792460.753    -7831261.178 8  -6093048.12945  23792465.979    23792474.7744
  20903045.441   -23323926.203 9 -18150111.47848  20903046.926    20903054.2024
  23543583.739    -7047081.736 7  -5478451.75245  23543594.009    23543606.6104
  23621139.691    -7149118.289 8  -5557639.35545  23621143.076    23621154.2074
 00  8  9  0 30 30.0000000  0  6 20 22 06 25 29 01
  21988665.583   -15115784.467 9 -11764307.52747  21988666.919    21988674.3514
  20394653.233   -26178878.381 9 -20372568.73848  20394656.368    20394665.2614
  23792632.670    -7830366.151 8  -6092350.66545  23792635.925    23792643.8644
  20907999.154   -23297880.460 9 -18129816.09848  20908003.389    20908010.3734
  23561380.252    -6953638.532 7  -5405638.98145  23561376.395    23561387.0144
  23603326.957    -7242736.703 8  -5630588.70646  23603329.628    23603340.2274
 00  8  9  0 31  0.0000000  0  6 20 22 06 25 29 01
  21988245.502   -15117984.869 8 -11766022.13847  21988247.069    21988255.7144
  20383616.122   -26236889.734 9 -20417772.32848  20383617.413    20383625.9034
  23792898.432    -7828962.353 8  -6091256.76045  23792902.766    23792912.9274
  20912996.673   -23271631.920 9 -18109362.69648  20912998.128    20913005.6104
  23579191.577    -6859985.594 7  -5332662.78745  23579198.647    23579210.1424
  23585523.286    -7336284.619 8  -5703483.08445  23585527.344    23585537.5724
 00  8  9  0 31 30.0000000  0  6 20 22 06 25 29 01
  21987941.727   -15119582.436 8 -11767267.01047  21987943.039    21987951.1304
  20372675.980   -26294377.234 9 -20462567.72248  20372677.811    20372686.3214
  23793264.234    -7827049.299 8  -6089766.04145  23793267.481    23793277.3284
  20918027.533   -23245180.402 9 -18088751.13148  20918031.504    20918038.9584
  23597059.386    -6766123.899 7  -5259523.94545  23597059.514    23597072.5264
  23567741.835    -7429760.306 8  -5776321.18346  23567739.684    23567752.0164
 00  8  9  0 32  0.0000000  0  6 20 22 06 25 29 01
  21987752.542   -15120577.357 8 -11768042.29047  21987754.160    21987762.0334
  20361836.787   -26351339.633 9 -20506953.95348  20361838.374    20361846.8504
  23793726.610    -7824626.437 8  -6087878.03945  23793728.395    23793738.6164
  20923101.898   -23218526.489 9 -18067981.84148  20923103.511    20923110.7264
  23614959.351    -6672054.889 7  -5186223.54445  23614960.863    23614972.3464
  23549961.004    -7523162.081 8  -5849101.64646  23549965.914    23549977.5064
 00  8  9  0 32 30.0000000  0  6 20 22 06 25 29 01
  21987675.879   -15120969.968 8 -11768348.23547  21987678.818    21987687.9114
  20351095.666   -26407776.340 9 -20550930.55348  20351098.871    20351107.3584
  23794287.089    -7821693.433 8  -6085592.56545  23794285.481    23794297.6374
  20928209.627   -23191670.109 9 -18047054.79548  20928214.057    20928221.4934
  23632903.970    -6577779.598 7  -5112762.41445  23632901.796    23632912.3594
  23532204.146    -7616488.218 8  -5921823.21946  23532206.964    23532216.1824
 00  8  9  0 33  0.0000000  0  6 20 22 06 25 29 01
  21987718.758   -15120760.322 8 -11768184.88647  21987718.883    21987727.3284
  20340459.439   -26463686.253 9 -20594496.65648  20340459.252    20340467.7394
  23794938.680    -7818249.790 8  -6082909.15745  23794941.434    23794951.1094
  20933361.721   -23164612.170 9 -18025970.68547  20933363.023    20933370.5084
  23650876.688    -6483299.508 7  -5039141.73045  23650879.293    23650891.2924
  23514461.429    -7709736.692 8  -5994484.27646  23514461.635    23514472.7444
 00  8  9  0 33 30.0000000  0  6 20 22 06 25 29 01
  21987871.129   -15119949.009 8 -11767552.70747  21987873.546    21987882.0044
  20329918.575   -26519067.821 9 -20637651.07548  20329920.674    20329929.0614
  23795692.350    -7814295.330 8  -6079827.71945  23795695.105    23795703.7584
  20938546.426   -23137352.716 9 -18004729.55248  20938550.138    20938557.9294
  23668889.897    -6388615.747 7  -4965362.30445  23668897.203    23668910.0084
  23496733.514    -7802905.839 8  -6067083.49646  23496732.350    23496743.0574
 00  8  9  0 34  0.0000000  0  6 20 22 06 25 29 01
  21988137.805   -15118536.354 8 -11766451.95247  21988141.785    21988150.3114
  20319480.647   -26573919.716 9 -20680392.76248  20319482.593    20319491.2994
  23796546.984    -7809829.452 8  -6076347.77845  23796544.284    23796553.3394
  20943771.038   -23109891.797 9 -17983331.43347  20943775.622    20943783.5134
  23686953.451    -6293729.604 7  -4891425.19045  23686952.988    23686967.0924
  23479020.272    -7895993.988 8  -6139619.63746  23479018.712    23479027.7814
 00  8  9  0 34 30.0000000  0  6 20 22 06 25 29 01
  21988521.907   -15116522.674 8 -11764882.85447  21988525.178    21988534.5644
  20309144.232   -26628241.109 9 -20722721.06748  20309145.511    20309154.2244
  23797488.577    -7804851.685 8  -6072468.96845  23797491.482    23797500.6834
  20949036.380   -23082229.602 9 -17961776.47448  20949039.863    20949047.4024
  23705052.904    -6198642.393 7  -4817331.43345  23705048.116    23705060.5264
  23461315.062    -7988999.205 8  -6212091.13046  23461320.289    23461331.0564
 00  8  9  0 35  0.0000000  0  6 20 22 06 25 29 01
  21989020.772   -15113908.348 8 -11762845.73047  21989022.873    21989031.7794
  20298908.361   -26682031.266 9 -20764635.42448  20298909.521    20298917.9544
  23798534.082    -7799361.710 8  -6068191.03145  23798536.811    23798546.4814
  20954339.834   -23054366.861 9 -17940065.24048  20954342.310    20954349.8314
  23723175.876    -6103355.421 8  -4743081.95245  23723181.365    23723193.8044
  23443634.133    -8081919.459 8  -6284496.43646  23443637.025    23443647.6044
 00  8  9  0 35 30.0000000  0  6 20 22 06 25 29 01
  21989633.755   -15110693.677 8 -11760340.81747  21989634.240    21989642.9794
  20288772.796   -26735289.133 9 -20806135.00648  20288774.544    20288783.2014
  23799679.482    -7793359.245 8  -6063513.75345  23799678.599    23799688.8434
  20959679.688   -23026303.388 9 -17918197.59348  20959682.659    20959690.2874
  23741352.335    -6007869.815 7  -4668677.74845  23741351.580    23741365.0144
  23425966.001    -8174753.198 8  -6356834.32146  23425971.216    23425982.4264
 00  8  9  0 36  0.0000000  0  6 20 22 06 25 29 01
  21990357.830   -15106879.181 8 -11757368.48047  21990360.992    21990369.0794
  20278740.151   -26788013.091 9 -20847218.56748  20278741.691    20278750.0024
  23800914.021    -7786843.836 8  -6058436.77245  23800917.951    23800928.5994
  20965057.346   -22998039.835 9 -17896174.03848  20965061.215    20965068.3164
  23759557.221    -5912187.079 7  -4594119.91745  23759560.419    23759571.8244
  23408322.442    -8267498.618 8  -6429103.40046  23408323.138    23408333.0494
 00  8  9  0 36 30.0000000  0  6 20 22 06 25 29 01
  21991199.598   -15102465.445 8 -11753929.21647  21991200.468    21991209.4674
  20268805.622   -26840202.171 9 -20887885.33448  20268810.413    20268818.9374
  23802250.608    -7779815.168 8  -6052959.86845  23802255.516    23802265.7814
  20970475.634   -22969576.032 9 -17873994.42948  20970477.522    20970484.7144
  23777805.734    -5816308.290 7  -4519409.28945  23777804.915    23777816.3454
  23390685.673    -8360153.805 8  -6501302.18546  23390690.466    23390701.4564
 00  8  9  0 37  0.0000000  0  6 20 22 06 25 29 01
  21992153.863   -15097452.924 8 -11750023.37147  21992154.222    21992163.8424
  20258980.190   -26891855.703 9 -20928134.79148  20258980.965    20258989.5844
  23803689.343    -7772273.107 8  -6047082.90645  23803690.274    23803701.2804
  20975930.009   -22940912.288 9 -17851659.03247  20975931.666    20975939.2384
  23796077.843    -5720234.947 7  -4444547.08745  23796088.557    23796099.5084
  23373070.482    -8452716.786 8  -6573429.13246  23373077.433    23373087.6674
 00  8  9  0 37 30.0000000  0  6 20 22 06 25 29 01
  21993217.869   -15091842.257 8 -11745651.43147  21993221.788    21993230.6614
  20249252.554   -26942972.997 9 -20967966.40248  20249253.972    20249262.0184
  23805219.725    -7764217.537 8  -6040805.79345  23805223.525    23805234.4104
  20981420.180   -22912049.028 9 -17829168.17247  20981423.914    20981431.6204
  23814408.284    -5623968.393 7  -4369534.29845  23814406.928    23814419.1524
  23355479.504    -8545185.818 8  -6645482.82146  23355479.585    23355490.5264
 00  8  9  0 38  0.0000000  0  6 20 22 06 25 29 01
  21994403.402   -15085633.630 8 -11740813.54947  21994403.486    21994412.4404
  20239627.028   -26993552.854 9 -21007379.23148  20239628.701    20239636.8704
  23806850.586    -7755648.044 8  -6034128.25245  23806854.011    23806864.5664
  20986953.092   -22882986.339 9 -17806521.90947  20986954.321    20986962.2134
  23832761.908    -5527509.821 7  -4294371.93545  23832760.472    23832772.0044
  23337897.706    -8637558.989 8  -6717461.90146  23337902.330    23337912.4454
 00  8  9  0 38 30.0000000  0  6 20 22 06 25 29 01
  21995698.935   -15078828.009 8 -11735510.46447  21995698.496    21995707.0154
  20230104.314   -27043593.987 9 -21046372.27348  20230106.184    20230114.5874
  23808577.906    -7746564.471 8  -6027050.13145  23808582.156    23808593.5154
  20992518.966   -22853724.376 9 -17783720.37347  20992522.498    20992530.6234
  23851149.281    -5430860.719 8  -4219061.03845  23851154.460    23851166.4994
  23320341.145    -8729834.491 8  -6789364.80746  23320342.904    23320353.6174
 00  8  9  0 39  0.0000000  0  6 20 22 06 25 29 01
  21997105.879   -15071425.869 8 -11729742.56647  21997107.218    21997115.9184
  20220682.830   -27093095.555 9 -21084944.88048  20220686.733    20220694.7664
  23810408.610    -7736966.594 8  -6019571.23745  23810408.853    23810420.5614
  20998123.638   -22824263.454 9 -17760763.80547  20998128.355    20998136.8354
  23869580.076    -5334022.287 7  -4143602.71545  23869580.678    23869593.8624
  23302794.369    -8822010.564 8  -6861190.27346  23302801.588    23302813.2064
 00  8  9  0 39 30.0000000  0  6 20 22 06 25 29 01
  21998624.620   -15063427.763 8 -11723510.27947  21998629.010    21998637.4194
  20211367.648   -27142056.963 9 -21123096.57748  20211369.330    20211377.6034
  23812332.476    -7726854.177 8  -6011691.43545  23812333.337    23812343.7174
  21003771.549   -22794603.668 9 -17737652.27947  21003773.000    21003780.7164
  23888042.172    -5236995.901 8  -4067997.87945  23888045.576    23888056.3524
  23285282.950    -8914085.238 8  -6932936.70146  23285281.723    23285291.1784
 00  8  9  0 40  0.0000000  0  6 20 22 06 25 29 01
  22000261.472   -15054834.442 8 -11716814.18247  22000264.239    22000272.8624
  20202152.571   -27190477.690 9 -21160826.96248  20202154.460    20202163.5474
  23814355.746    -7716227.072 8  -6003410.54545  23814355.721    23814366.5124
  21009450.985   -22764745.639 9 -17714386.27847  21009455.054    21009462.6654
  23906547.131    -5139782.997 7  -3992247.64945  23906543.083    23906556.0284
  23267774.251    -9006056.559 8  -7004602.62746  23267779.227    23267790.3354
 00  8  9  0 40 30.0000000  0  6 20 22 06 25 29 01
  22002011.274   -15045646.573 8 -11709654.80547  22002012.633    22002022.4954
  20193043.486   -27238356.432 9 -21198135.02048  20193044.045    20193052.3034
  23816471.093    -7705085.196 8  -5994728.52745  23816475.140    23816486.2924
  21015172.424   -22734689.385 9 -17690965.81547  21015174.717    21015182.0054
  23925079.787    -5042384.963 7  -3916353.31845  23925079.327    23925091.2574
  23250298.364    -9097922.548 8  -7076186.41246  23250298.452    23250308.3414
 00  8  9  0 41  0.0000000  0  6 20 22 06 25 29 01
  22003872.173   -15035864.798 9 -11702032.63847  22003874.469    22003882.4654
  20184033.944   -27285692.065 9 -21235019.88548  20184036.565    20184044.3854
  23818689.818    -7693428.463 8  -5985645.34645  23818694.235    23818703.6584
  21020928.783   -22704434.793 9 -17667390.79547  21020932.147    21020939.3884
  23943642.235    -4944802.888 7  -3840315.53545  23943647.843    23943658.6774
  23232836.574    -9189681.434 8  -7147686.75646  23232837.460    23232846.3184
 00  8  9  0 41 30.0000000  0  6 20 22 06 25 29 01
  22005845.492   -15025490.057 8 -11693948.40847  22005848.517    22005857.1164
  20175131.398   -27332484.030 9 -21271481.11348  20175132.133    20175140.4524
  23821008.739    -7681256.731 8  -5976160.88045  23821010.593    23821020.5304
  21026724.748   -22673982.277 9 -17643661.55947  21026726.953    21026734.2684
  23962250.768    -4847038.382 7  -3764135.48445  23962252.317    23962263.4674
  23215396.014    -9281331.137 8  -7219102.05346  23215396.571    23215406.1634
 00  8  9  0 42  0.0000000  0  6 20 22 06 25 29 01
  22007932.079   -15014523.065 8 -11685402.69147  22007935.666    22007944.4774
  20166329.284   -27378731.757 9 -21307518.25348  20166331.756    20166339.6284
  23823418.945    -7668569.995 8  -5966275.09445  23823424.669    23823434.3244
  21032555.507   -22643331.644 9 -17619777.94547  21032559.285    21032567.0794
  23980876.496    -4749092.775 7  -3687814.45045  23980888.822    23980905.4254
  23197974.105    -9372869.750 8  -7290430.76946  23197977.726    23197988.3134
 00  8  9  0 42 30.0000000  0  6 20 22 06 25 29 01
  22010134.416   -15002964.516 8 -11676396.01647  22010135.379    22010144.0624
  20157632.060   -27424434.748 9 -21343130.93348  20157634.734    20157642.4654
  23825936.926    -7655368.349 8  -5955988.08345  23825936.880    23825945.7234
  21038426.502   -22612483.797 9 -17595740.66547  21038429.339    21038437.3234
  23999557.244    -4650967.450 7  -3611353.37045  23999563.463    23999573.3584
  23180575.336    -9464295.255 8  -7361671.32646  23180579.084    23180588.8104
 00  8  9  0 43  0.0000000  0  6 20 22 06 25 29 01
  22012443.403   -14990815.288 8 -11666929.07747  22012446.553    22012455.3864
  20149039.242   -27469591.736 9 -21378318.14148  20149041.076    20149049.5334
  23828543.202    -7641651.826 8  -5945299.86145  23828547.166    23828556.1134
  21044334.451   -22581438.647 9 -17571549.65147  21044336.766    21044344.8884
  24018265.549    -4552663.735 7  -3534753.16945  24018271.301    24018282.1674
  23163201.449    -9555605.826 8  -7432822.35546  23163203.220    23163212.9734
 00  8  9  0 43 30.0000000  0  6 20 22 06 25 29 01
  22014869.697   -14978076.338 8 -11657002.60547  22014871.274    22014879.6674
  20140549.822   -27514201.843 9 -21413079.21848  20140552.226    20140560.3464
  23831251.721    -7627420.196 8  -5934210.28145  23831254.641    23831264.7504
  21050277.095   -22550196.445 9 -17547205.08047  21050282.237    21050289.9734
  24037005.957    -4454183.043 7  -3458015.22645  24037008.516    24037022.5614
  23145844.397    -9646799.500 8  -7503882.25846  23145849.967    23145860.6224
 00  8  9  0 44  0.0000000  0  6 20 22 06 25 29 01
  22017405.624   -14964748.268 8 -11646617.08147  22017407.364    22017415.8854
  20132165.431   -27558264.504 9 -21447413.71248  20132167.046    20132175.4754
  23834060.305    -7612673.563 8  -5922719.37745  23834060.610    23834070.3944
  21056263.357   -22518757.339 9 -17522707.08247  21056265.368    21056272.6694
  24055768.202    -4355526.938 7  -3381140.51245  24055785.257    24055794.3234
  23128519.582    -9737874.322 8  -7574849.60146  23128519.293    23128528.5054
 00  8  9  0 44 30.0000000  0  6 20 22 06 25 29 01
  22020053.953   -14950832.167 8 -11635773.34347  22020055.222    22020063.5804
  20123884.145   -27601779.465 9 -21481321.42548  20123886.362    20123894.9354
  23836964.950    -7597412.018 8  -5910827.26045  23836965.158    23836974.1034
  21062282.320   -22487121.451 9 -17498055.73847  21062285.492    21062292.6184
  24074593.877    -4256696.739 7  -3304130.08945  24074591.506    24074603.2154
  23111206.082    -9828828.391 8  -7645722.80446  23111210.947    23111221.3794
 00  8  9  0 45  0.0000000  0  6 20 22 06 25 29 01
  22022813.161   -14936328.933 8 -11624472.10247  22022815.054    22022823.3094
  20115709.394   -27644746.044 9 -21514801.82848  20115710.494    20115718.5984
  23839965.272    -7581635.686 8  -5898534.01945  23839966.484    23839976.1254
  21068341.280   -22455288.722 9 -17473251.01447  21068343.223    21068350.2264
  24093425.286    -4157693.772 7  -3226985.19145  24093429.768    24093443.8394
  23093920.951    -9919659.625 8  -7716500.32646  23093925.476    23093935.5634
 00  8  9  0 45 30.0000000  0  6 20 22 06 25 29 01
  22025684.846   -14921239.584 8 -11612714.15847  22025686.428    22025694.7024
  20107637.601   -27687163.192 9 -21547854.10848  20107638.870    20107646.5124
  23843066.446    -7565344.583 8  -5885839.65445  23843066.893    23843077.1074
  21074436.415   -22423259.630 9 -17448293.28947  21074438.283    21074445.4354
  24112307.957    -4058519.607 7  -3149706.76845  24112303.454    24112316.7544
  23076664.560   -10010366.071 8  -7787180.62346  23076665.115    23076675.3694
 00  8  9  0 46  0.0000000  0  6 20 22 06 25 29 01
  22028666.414   -14905565.120 8 -11600500.27347  22028669.057    22028678.3734
  20099668.185   -27729030.170 9 -21580477.68448  20099671.607    20099679.4804
  23846258.051    -7548538.816 8  -5872744.24845  23846265.677    23846275.9064
  21080566.250   -22391034.464 9 -17423182.77147  21080570.090    21080577.6284
  24131195.881    -3959175.520 7  -3072296.04245  24131207.685    24131222.1974
  23059423.586   -10100945.547 8  -7857761.91646  23059427.123    23059439.0634
 00  8  9  0 46 30.0000000  0  6 20 22 06 25 29 01
  22031762.497   -14889306.508 8 -11587831.20947  22031763.440    22031772.0514
  20091807.528   -27770346.657 9 -21612672.30848  20091809.169    20091817.2594
  23849556.656    -7531218.484 8  -5859247.89145  23849561.645    23849572.0514
  21086735.954   -22358613.264 9 -17397919.49247  21086739.240    21086747.0854
  24150143.862    -3859662.990 7  -2994754.05245  24150145.947    24150158.1274
  23042212.682   -10191396.057 8  -7928242.76446  23042216.659    23042226.4334
 00  8  9  0 47  0.0000000  0  6 20 22 06 25 29 01
  22034967.722   -14872464.743 8 -11574707.72947  22034967.653    22034976.6694
  20084047.783   -27811112.444 9 -21644437.80848  20084051.390    20084059.8294
  23852951.827    -7513383.751 8  -5845350.69145  23852955.427    23852965.8124
  21092940.253   -22325995.994 9 -17372503.44047  21092945.711    21092953.9494
  24169107.406    -3759983.539 7  -2917081.96745  24169113.308    24169125.9044
  23025027.512   -10281715.852 8  -7998621.75346  23025028.464    23025038.7984
 00  8  9  0 47 30.0000000  0  6 20 22 06 25 29 01
  22038280.696   -14855040.921 8 -11561130.73047  22038283.371    22038292.2604
  20076397.739   -27851326.718 9 -21675773.56048  20076398.949    20076407.0914
  23856449.293    -7495034.771 8  -5831052.79345  23856447.686    23856458.0654
  21099183.950   -22293182.852 9 -17346934.75647  21099189.658    21099198.0474
  24188108.414    -3660138.599 7  -2839280.94145  24188113.698    24188126.3814
  23007866.245   -10371902.818 8  -8068897.21346  23007867.398    23007877.1554
 00  8  9  0 48  0.0000000  0  6 20 22 06 25 29 01
  22041708.094   -14837035.987 8 -11547100.90247  22041709.535    22041718.8214
  20068848.732   -27890988.764 9 -21706679.00348  20068851.410    20068859.7734
  23860032.160    -7476171.804 8  -5816354.38345  23860036.131    23860047.3334
  21105467.739   -22260174.144 9 -17321213.68847  21105471.477    21105479.4124
  24207147.078    -3560129.607 7  -2761352.04245  24207142.758    24207157.1154
  22990729.266   -10461954.887 8  -8139067.57246  22990731.523    22990740.4424
 00  8  9  0 48 30.0000000  0  6 20 22 06 25 29 01
  22045243.973   -14818451.106 8 -11532619.16147  22045246.449    22045254.7204
  20061406.444   -27930097.895 9 -21737153.60748  20061409.141    20061417.3564
  23863723.908    -7456795.090 8  -5801255.65145  23863723.448    23863733.6184
  21111787.435   -22226969.953 9 -17295340.29147  21111789.920    21111797.9824
  24226195.424    -3459958.050 7  -2683296.53945  24226206.707    24226218.4244
  22973615.613   -10551870.088 8  -8209131.27846  22973620.606    22973629.8164
 00  8  9  0 49  0.0000000  0  6 20 22 06 25 29 01
  22048892.158   -14799287.472 8 -11517686.46747  22048893.252    22048901.4114
  20054072.423   -27968653.937 9 -21767197.23148  20054072.326    20054080.3484
  23867502.476    -7436904.903 8  -5785756.80545  23867508.226    23867518.8834
  21118140.996   -22193570.495 9 -17269314.73747  21118145.486    21118153.9614
  24245302.213    -3359625.403 7  -2605115.44145  24245300.030    24245313.5774
  22956535.123   -10641646.391 8  -8279086.75746  22956535.537    22956546.2264
 00  8  9  0 49 30.0000000  0  6 20 22 06 25 29 01
  22052646.705   -14779546.257 8 -11502303.69547  22052649.421    22052658.7864
  20046835.949   -28006656.792 9 -21796809.80848  20046840.461    20046848.7434
  23871388.766    -7416501.473 8  -5769858.02645  23871390.672    23871400.9784
  21124536.245   -22159976.045 9 -17243137.23947  21124538.780    21124546.5494
  24264420.191    -3259132.990 7  -2526809.93945  24264423.850    24264435.4484
  22939482.430   -10731281.644 8  -8348932.30446  22939479.089    22939489.4644
 00  8  9  0 50  0.0000000  0  6 20 22 06 25 29 01
  22056511.104   -14759228.591 8 -11486471.75447  22056515.483    22056524.5854
  20039713.330   -28044105.625 9 -21825990.67948  20039714.613    20039722.5594
  23875368.518    -7395585.140 8  -5753559.60545  23875371.679    23875381.6984
  21130965.396   -22126186.536 9 -17216807.74447  21130968.920    21130976.1384
  24283579.909    -3158482.482 7  -2448381.17545  24283577.495    24283588.3464
  22922451.347   -10820773.751 8  -8418666.30846  22922449.072    22922459.2794
 00  8  9  0 50 30.0000000  0  6 20 22 06 25 29 01
  22060491.836   -14738335.626 8 -11470191.52747  22060492.381    22060500.1814
  20032692.383   -28080999.799 9 -21854739.33948  20032693.688    20032701.4994
  23879443.516    -7374156.106 8  -5736861.63045  23879449.479    23879459.6744
  21137432.682   -22092202.156 9 -17190326.39847  21137435.892    21137443.0804
  24302754.374    -3057675.270 7  -2369830.33145  24302759.804    24302772.9194
  22905444.178   -10910120.812 8  -8488287.32046  22905446.594    22905456.7494
 00  8  9  0 51  0.0000000  0  7 20 22 06 25 03 29 01
  22064572.160   -14716868.592 8 -11453463.96547  22064576.444    22064584.4694
  20025775.602   -28117338.881 9 -21883055.47448  20025778.594    20025786.4224
  23883620.532    -7352214.697 8  -5719764.44645  23883624.626    23883635.5814
  21143937.655   -22058022.944 9 -17163693.24447  21143939.944    21143947.2464
  24674228.870    -1761913.76317  -1115254.32855  24674238.922    24674252.7334
  24321973.433    -2956712.660 7  -2291158.48745  24321972.369    24321985.0914
  22888471.633   -10999320.706 8  -8557793.65546  22888472.830    22888482.0784
 00  8  9  0 51 30.0000000  0  7 20 22 06 25 03 29 01
  22068769.961   -14694828.807 8 -11436290.12247  22068771.359    22068779.5984
  20018969.014   -28153122.887 9 -21910939.07848  20018969.128    20018976.9064
  23887893.207    -7329761.175 8  -5702268.20145  23887897.393    23887908.2024
  21150478.286   -22023649.152 9 -17136908.46347  21150480.726    21150488.4084
  24654659.327    -1864787.015 7  -1195414.94845  24654662.857    24654677.1754
  24341210.229    -2855596.505 7  -2212366.89245  24341214.975    24341223.9844
  22871524.593   -11088371.378 8  -8627183.72046  22871526.689    22871536.4654
 00  8  9  0 52  0.0000000  0  7 20 22 06 25 03 29 01
  22073072.189   -14672217.715 8 -11418671.10447  22073074.539    22073082.5194
  20012262.841   -28188351.633 9 -21938390.01448  20012265.167    20012272.8804
  23892261.172    -7306796.118 8  -5684373.35345  23892266.520    23892277.9064
  21157055.057   -21989080.863 9 -17109972.13047  21157058.577    21157066.3624
  24635084.749    -1967724.541 7  -1275625.65045  24635073.794    24635088.6514
  24360483.239    -2754328.098 7  -2133456.71245  24360484.322    24360498.5074
  22854607.009   -11177270.727 8  -8696455.86546  22854609.679    22854619.9344
 00  8  9  0 52 30.0000000  0  6 20 22 06 25 03 01
  22077481.741   -14649036.299 8 -11400607.67147  22077484.979    22077494.0274
  20005663.850   -28223024.422 9 -21965407.73548  20005667.109    20005674.8674
  23896733.604    -7283319.765 8  -5666080.08645  23896735.047    23896745.1534
  21163671.904   -21954318.317 9 -17082884.42647  21163673.843    21163681.8094
  24615461.026    -2070723.942 7  -1355884.60545  24615473.485    24615487.3924
  22837725.407   -11266016.577 8  -8765608.39546  22837723.156    22837732.7254
 00  8  9  0 53  0.0000000  0  6 20 22 06 25 03 01
  22082001.342   -14625286.183 8 -11382101.11147  22082004.027    22082013.2444
  19999173.578   -28257140.818 9 -21991991.90248  19999174.934    19999182.8824
  23901296.474    -7259332.390 8  -5647388.61645  23901299.188    23901310.0934
  21170322.127   -21919361.191 9 -17055645.10047  21170326.168    21170333.9674
  24595852.082    -2173782.487 7  -1436189.62045  24595861.763    24595875.3144
  22820864.018   -11354606.933 8  -8834639.78246  22820863.795    22820873.3394
 00  8  9  0 53 30.0000000  0  6 20 22 06 25 03 01
  22086630.298   -14600968.677 8 -11363152.43046  22086631.460    22086640.3054
  19992785.793   -28290700.454 9 -22018142.22748  19992788.838    19992796.9484
  23905958.735    -7234834.633 8  -5628299.46945  23905961.383    23905972.0314
  21177012.396   -21884210.224 9 -17028254.73247  21177015.379    21177022.7894
  24576253.140    -2276897.723 7  -1516538.85345  24576239.601    24576255.3204
  22804030.861   -11443039.740 8  -8903548.39546  22804035.142    22804045.5594
 00  8  9  0 54  0.0000000  0  6 20 22 06 25 03 01
  22091363.833   -14576084.847 8 -11343762.44846  22091366.882    22091375.7674
  19986506.009   -28323703.458 9 -22043858.82448  19986508.649    19986516.2804
  23910714.812    -7209827.177 8  -5608813.12345  23910719.328    23910730.3064
  21183739.719   -21848865.176 9 -17000713.12847  21183741.681    21183748.5364
  24556599.535    -2380066.474 7  -1596929.74845  24556608.602    24556621.9054
  22787236.117   -11531312.727 8  -8972332.48146  22787237.950    22787247.2334
 00  8  9  0 54 30.0000000  0  6 20 22 06 25 03 01
  22096207.724   -14550636.330 8 -11323932.44446  22096209.109    22096218.3144
  19980332.269   -28356149.668 9 -22069141.54948  19980334.110    19980342.2384
  23915571.214    -7184310.279 8  -5588929.85445  23915576.058    23915585.5804
  21190500.483   -21813326.324 9 -16973020.50447  21190504.338    21190511.4204
  24536954.835    -2483286.383 7  -1677360.56644  24536963.037    24536980.3884
  22770462.423   -11619423.761 8  -9040990.37146  22770469.967    22770480.6664
 00  8  9  0 55  0.0000000  0  6 20 22 06 25 03 01
  22101152.681   -14524624.480 8 -11303663.50946  22101159.037    22101169.0974
  19974263.347   -28388038.488 9 -22093989.94148  19974266.064    19974274.0194
  23920534.075    -7158284.461 8  -5568650.00745  23920527.922    23920539.3664
  21197301.516   -21777593.824 9 -16945176.98647  21197304.291    21197311.2904
  24517304.830    -2586554.891 7  -1757829.20444  24517309.796    24517330.2574
  22753737.134   -11707370.777 8  -9109520.43246  22753734.900    22753744.4804
 00  8  9  0 55 30.0000000  0  6 20 22 06 25 03 01
  22106215.706   -14498050.738 8 -11282956.71947  22106216.609    22106225.6694
  19968301.166   -28419369.603 9 -22118403.76248  19968303.729    19968312.0424
  23925573.397    -7131750.272 8  -5547974.00445  23925578.391    23925588.5114
  21204138.518   -21741667.170 9 -16917182.18147  21204140.883    21204147.8284
  24497648.834    -2689869.271 7  -1838333.60044  24497651.958    24497666.1854
  22737026.371   -11795151.610 8  -9177921.01446  22737030.390    22737040.1834
 00  8  9  0 56  0.0000000  0  6 20 22 06 25 03 01
  22111377.497   -14470916.549 8 -11261813.21447  22111380.466    22111388.6954
  19962444.918   -28450142.916 9 -22142382.92448  19962447.435    19962455.9174
  23930722.621    -7104708.105 8  -5526902.20845  23930724.370    23930734.5524
  21211010.189   -21705546.965 9 -16889036.55647  21211013.694    21211021.4124
  24477981.809    -2793226.629 7  -1918871.46945  24477985.084    24477998.5404
  22720353.537   -11882764.220 8  -9246190.52146  22720358.398    22720367.9644
 00  8  9  0 56 30.0000000  0  6 20 22 06 25 03 01
  22116645.290   -14443223.691 8 -11240234.37147  22116649.782    22116658.4214
  19956694.870   -28480358.679 9 -22165927.63948  19956697.972    19956705.9824
  23935964.012    -7077158.466 8  -5505434.96345  23935966.512    23935977.2514
  21217921.247   -21669233.420 9 -16860740.28147  21217923.651    21217931.8334
  24458302.359    -2896624.297 7  -1999440.81745  24458308.490    24458321.4174
  22703713.198   -11970206.422 8  -9314327.21746  22703719.023    22703728.9444
 00  8  9  0 57  0.0000000  0  6 20 22 06 25 03 01
  22122023.413   -14414973.467 8 -11218221.22446  22122024.885    22122034.8564
  19951053.366   -28510016.736 9 -22189037.77348  19951054.232    19951062.1374
  23941299.360    -7049102.034 8  -5483572.82645  23941304.918    23941315.4194
  21224867.317   -21632726.409 9 -16832293.25547  21224870.849    21224878.7454
  24438624.806    -3000059.725 7  -2080039.55345  24438625.598    24438639.5644
  22687111.383   -12057476.121 8  -9382329.53046  22687112.121    22687120.3394
 00  8  9  0 57 30.0000000  0  6 20 22 06 25 03 01
  22127505.595   -14386167.393 8 -11195774.96246  22127507.701    22127515.6764
  19945516.183   -28539116.485 9 -22211712.86748  19945516.512    19945524.4434
  23946735.934    -7020539.452 8  -5461316.27345  23946739.417    23946751.2764
  21231851.905   -21596025.834 9 -16803695.40947  21231854.759    21231862.5074
  24418935.346    -3103530.141 7  -2160665.52045  24418934.381    24418948.4124
  22670532.869   -12144571.256 8  -9450195.79146  22670537.668    22670547.5994
 00  8  9  0 58  0.0000000  0  6 20 22 06 25 03 01
  22133091.491   -14356807.108 8 -11172896.81946  22133094.140    22133102.5744
  19940081.480   -28567657.718 9 -22233952.75048  19940085.127    19940093.3064
  23952268.329    -6991471.278 8  -5438665.76745  23952272.121    23952281.9934
  21238870.741   -21559131.981 9 -16774946.95247  21238875.234    21238883.2324
  24399240.790    -3207032.542 7  -2241316.44045  24399238.527    24399252.4034
  22653998.244   -12231489.648 8  -9517924.33846  22653997.580    22654007.3364
 00  8  9  0 58 30.0000000  0  6 20 22 06 25 03 01
  22138781.732   -14326894.181 8 -11149588.04546  22138786.250    22138795.1374
  19934759.219   -28595640.659 9 -22255757.61048  19934760.243    19934768.2254
  23957892.617    -6961898.213 8  -5415621.83145  23957899.950    23957910.6314
  21245928.875   -21522045.190 9 -16746048.15447  21245932.985    21245940.6744
  24379534.969    -3310564.878 7  -2321990.65345  24379537.464    24379549.9494
  22637488.821   -12318229.000 8  -9585513.35646  22637491.706    22637501.2314
 00  8  9  0 59  0.0000000  0  6 20 22 06 25 03 01
  22144580.578   -14296430.093 8 -11125849.79646  22144583.675    22144592.7024
  19929539.605   -28623065.598 9 -22277127.65748  19929541.580    19929549.1324
  23963620.234    -6931820.979 8  -5392185.03745  23963623.019    23963633.8064
  21253024.172   -21484765.388 9 -16716998.96647  21253027.350    21253034.5574
  24359819.440    -3414124.155 7  -2402685.91545  24359829.858    24359842.6144
  22621018.581   -12404787.134 8  -9652961.17546  22621020.756    22621030.4674
 00  8  9  0 59 30.0000000  0  6 20 22 06 25 03 01
  22150481.603   -14265416.718 8 -11101683.53446  22150485.337    22150493.7914
  19924427.291   -28649932.285 9 -22298062.70748  19924428.746    19924436.5314
  23969436.669    -6901240.274 8  -5368355.93445  23969442.275    23969453.1924
  21260156.426   -21447292.896 9 -16687799.62347  21260158.220    21260165.4814
  24340114.884    -3517707.590 7  -2483400.00345  24340120.209    24340129.9434
  22604577.578   -12491162.034 8  -9720266.21846  22604583.655    22604594.2384
 00  8  9  1  0  0.0000000  0  6 20 22 06 25 03 01
  22156489.511   -14233855.534 8 -11077090.39747  22156491.630    22156499.5744
  19919420.096   -28676240.391 9 -22318562.49648  19919422.603    19919430.6924
  23975357.864    -6870156.644 8  -5344134.91145  23975356.953    23975368.2414
  21267322.867   -21409627.381 9 -16658449.86947  21267325.799    21267332.9054
  24320399.665    -3621312.521 7  -2564130.85645  24320403.315    24320415.1904
  22588178.772   -12577351.292 8  -9787426.60146  22588182.361    22588192.7424
 00  8  9  1  0 30.0000000  0  6 20 22 06 25 03 01
  22162597.650   -14201748.419 8 -11052071.85747  22162600.974    22162610.1774
  19914518.895   -28701989.792 9 -22338626.92748  19914522.479    19914530.5264
  23981367.105    -6838570.822 8  -5319522.60145  23981367.309    23981379.2444
  21274527.283   -21371768.876 9 -16628949.73947  21274529.684    21274537.3804
  24300681.648    -3724936.286 7  -2644876.37445  24300684.549    24300697.6434
  22571813.904   -12663352.873 8  -9854440.73546  22571817.217    22571826.8534
 00  8  9  1  1  0.0000000  0  6 20 22 06 25 03 01
  22168813.826   -14169096.911 8 -11026629.13347  22168814.570    22168823.0864
  19909727.331   -28727180.917 9 -22358256.34548  19909728.933    19909736.6464
  23987474.090    -6806483.754 8  -5294519.69645  23987474.471    23987484.7634
  21281768.494   -21333717.696 9 -16599299.48147  21281770.472    21281778.2824
  24280968.333    -3828576.045 7  -2725634.33745  24280962.938    24280974.0974
  22555480.006   -12749164.386 8  -9921306.76046  22555486.002    22555497.2654
 00  8  9  1  1 30.0000000  0  6 20 22 06 25 03 01
  22175128.495   -14135902.838 8 -11000763.61647  22175130.819    22175139.7834
  19905039.275   -28751814.227 9 -22377451.10048  19905041.208    19905049.1434
  23993671.790    -6773896.116 8  -5269126.72645  23993675.597    23993685.7504
  21289045.917   -21295473.814 9 -16569499.06047  21289047.978    21289055.8174
  24261211.389    -3932229.154 7  -2806402.68945  24261235.591    24261250.3154
  22539192.644   -12834783.670 8  -9988022.99346  22539194.418    22539203.7974
 00  8  9  1  2  0.0000000  0  6 20 22 06 25 03 01
  22181546.080   -14102167.907 8 -10974476.65746  22181549.605    22181559.8674
  19900458.339   -28775889.292 9 -22396210.85448  19900459.711    19900467.7754
  23999969.832    -6740808.769 8  -5243344.37345  23999972.108    23999982.3664
  21296358.516   -21257037.383 9 -16539548.60247  21296362.281    21296370.0614
  24241504.238    -4035892.700 7  -2887179.15345  24241510.603    24241521.8074
  22522938.553   -12920208.793 8 -10054587.93946  22522939.186    22522948.1974
 00  8  9  1  2 30.0000000  0  6 20 22 06 25 03 01
  22188071.780   -14067893.817 8 -10947769.58347  22188072.944    22188081.8944
  19895981.828   -28799405.899 9 -22414535.44648  19895984.559    19895992.6274
  24006356.980    -6707222.338 8  -5217173.13945  24006362.960    24006373.6314
  21303711.313   -21218408.358 9 -16509448.07347  21303713.349    21303720.6374
  24221774.169    -4139563.822 7  -2967961.52345  24221781.303    24221795.2764
  22506721.468   -13005437.209 8 -10120999.62046  22506720.243    22506729.5564
 00  8  9  1  3  0.0000000  0  6 20 22 06 25 03 01
  22194695.888   -14033082.413 8 -10920643.81447  22194697.315    22194706.2044
  19891613.958   -28822364.324 9 -22432425.10248  19891615.889    19891623.8084
  24012841.952    -6673137.879 7  -5190613.84045  24012847.996    24012859.7054
  21311095.657   -21179586.506 9 -16479197.29447  21311100.817    21311108.3354
  24202050.849    -4243239.832 8  -3048747.73245  24202054.031    24202065.5874
  22490539.147   -13090466.841 8 -10187256.38746  22490540.261    22490548.9734
 00  8  9  1  3 30.0000000  0  6 20 22 06 25 03 01
  22201421.785   -13997735.544 8 -10893100.79546  22201423.465    22201432.1424
  19887350.208   -28844764.985 9 -22449880.12448  19887353.009    19887361.0724
  24019426.901    -6638556.146 7  -5163667.05045  24019428.399    24019440.1394
  21318521.059   -21140572.148 9 -16448796.50347  21318524.902    21318532.2614
  24182323.085    -4346917.771 8  -3129535.48545  24182324.344    24182336.0874
  22474393.693   -13175295.388 8 -10253356.48946  22474396.897    22474405.5054
 00  8  9  1  4  0.0000000  0  6 20 22 06 25 03 01
  22208248.520   -13961854.937 8 -10865141.88946  22208251.044    22208260.1184
  19883195.425   -28866608.269 9 -22466900.83248  19883196.397    19883204.2414
  24026096.124    -6603477.753 7  -5136333.25345  24026104.002    24026115.9464
  21325982.373   -21101365.831 9 -16418246.13547  21325985.722    21325993.0604
  24162591.784    -4450595.209 7  -3210322.82245  24162593.418    24162606.3394
  22458291.725   -13259920.709 8 -10319298.21046  22458293.186    22458303.6124
 00  8  9  1  4 30.0000000  0  6 20 22 06 25 03 01
  22215179.717   -13925442.691 8 -10836768.72046  22215180.810    22215189.1254
  19879143.911   -28887893.939 9 -22483487.03848  19879146.195    19879153.9504
  24032869.616    -6567903.593 7  -5108613.12545  24032873.255    24032885.7694
  21333479.184   -21061967.448 9 -16387546.10747  21333482.780    21333490.3254
  24142863.100    -4554269.366 7  -3291107.59145  24142864.948    24142877.1204
  22442225.940   -13344340.538 8 -10385079.81946  22442228.931    22442238.6214
 00  8  9  1  5  0.0000000  0  6 20 22 06 25 03 01
  22222207.537   -13888500.615 8 -10807982.71146  22222210.298    22222218.9454
  19875200.787   -28908622.002 9 -22499638.74548  19875201.886    19875209.2314
  24039738.969    -6531834.787 8  -5080507.55045  24039738.756    24039749.3964
  21341011.797   -21022376.626 9 -16356696.12547  21341016.527    21341024.1494
  24123133.730    -4657937.132 7  -3371887.37145  24123137.432    24123150.2024
  22426200.106   -13428552.702 8 -10450699.61046  22426203.912    22426213.6504
 00  8  9  1  5 30.0000000  0  6 20 22 06 25 03 01
  22229337.654   -13851030.428 8 -10778785.18346  22229340.570    22229349.6854
  19871360.613   -28928792.729 9 -22515356.16548  19871363.330    19871370.9194
  24046691.445    -6495272.291 7  -5052017.29145  24046694.522    24046705.6264
  21348583.831   -20982593.255 9 -16325696.10247  21348587.297    21348594.8284
  24103396.688    -4761596.052 7  -3452660.26045  24103411.885    24103424.0124
  22410216.206   -13512554.899 8 -10516155.80546  22410218.068    22410228.2794
 00  8  9  1  6  0.0000000  0  6 20 22 06 25 03 01
  22236569.357   -13813034.273 8 -10749177.81446  22236570.440    22236580.0674
  19867627.930   -28948406.856 9 -22530639.87348  19867630.390    19867638.4254
  24053745.086    -6458217.023 8  -5023143.08345  24053746.166    24053757.7434
  21356188.544   -20942617.501 9 -16294546.17547  21356194.340    21356201.6894
  24083685.650    -4865243.327 8  -3533424.10445  24083689.285    24083700.5514
  22394271.263   -13596344.959 8 -10581446.69247  22394273.931    22394284.1024
 00  8  9  1  6 30.0000000  0  6 20 22 06 25 03 01
  22243897.657   -13774514.041 8 -10719162.08146  22243901.225    22243910.1534
  19864003.158   -28967464.558 9 -22545490.00148  19864004.010    19864011.8324
  24060892.401    -6420669.944 8  -4993885.62745  24060892.517    24060902.1964
  21363835.512   -20902449.530 9 -16263246.46147  21363837.957    21363845.1594
  24063965.097    -4968876.065 8  -3614176.64045  24063968.636    24063979.4504
  22378368.806   -13679920.537 8 -10646570.46346  22378369.545    22378379.9164
 00  8  9  1  7  0.0000000  0  6 20 22 06 25 03 01
  22251326.859   -13735471.611 8 -10688739.42846  22251330.285    22251339.4654
  19860480.816   -28985965.804 9 -22559906.52348  19860483.285    19860491.2394
  24068124.969    -6382632.050 8  -4964245.72345  24068130.493    24068141.3474
  21371514.940   -20862089.553 9 -16231797.13547  21371518.118    21371525.8764
  24044251.297    -5072491.440 8  -3694915.63845  24044250.468    24044261.9094
  22362502.884   -13763279.468 8 -10711525.39946  22362506.803    22362516.7564
 00  8  9  1  7 30.0000000  0  6 20 22 06 25 03 01
  22258854.867   -13695908.874 8 -10657911.33246  22258859.193    22258867.7874
  19857065.959   -29003910.734 9 -22573889.55348  19857068.613    19857076.3254
  24075459.437    -6344104.178 8  -4934224.02145  24075461.865    24075471.6204
  21379231.041   -20821537.671 9 -16200198.27547  21379235.195    21379242.6784
  24024527.747    -5176086.473 8  -3775638.82545  24024536.190    24024548.6684
  22346685.300   -13846419.319 8 -10776309.64947  22346686.619    22346695.8484
 00  8  9  1  8  0.0000000  0  6 20 22 06 25 03 01
  22266487.305   -13655828.052 8 -10626679.54547  22266486.855    22266495.5044
  19853758.772   -29021299.869 9 -22587439.49848  19853759.742    19853767.2834
  24082883.049    -6305087.287 7  -4903821.26245  24082885.778    24082897.5154
  21386982.934   -20780793.289 9 -16168449.40747  21386988.417    21386996.0174
  24004820.359    -5279658.453 7  -3856344.04945  24004827.427    24004839.8054
  22330904.931   -13929337.938 8 -10840921.51446  22330906.628    22330916.7964
 00  8  9  1  8 30.0000000  0  6 20 22 06 25 03 01
  22274210.231   -13615231.137 8 -10595045.62246  22274212.029    22274220.2774
  19850553.677   -29038133.899 9 -22600556.89648  19850555.976    19850563.9314
  24090399.580    -6265582.463 8  -4873038.28745  24090403.304    24090414.9854
  21394776.115   -20739857.100 9 -16136551.08847  21394778.490    21394785.8934
  23985113.892    -5383204.547 7  -3937029.12445  23985122.002    23985133.6054
  22315164.934   -14012033.133 8 -10905359.26647  22315170.383    22315180.2334
 00  8  9  1  9  0.0000000  0  6 20 22 06 25 03 01
  22282031.118   -13574120.099 8 -10563011.07246  22282034.314    22282043.8344
  19847455.812   -29054413.085 9 -22613241.94648  19847458.139    19847466.2944
  24098007.992    -6225590.850 7  -4841876.02345  24098014.066    24098024.8294
  21402601.002   -20698729.038 9 -16104503.25147  21402604.892    21402612.6794
  23965422.788    -5486721.956 7  -4017691.82545  23965424.181    23965435.6034
  22299475.296   -14094502.564 8 -10969621.11247  22299477.571    22299487.0474
 00  8  9  1  9 30.0000000  0  6 20 22 06 25 03 01
  22289952.597   -13532496.833 8 -10530577.40546  22289955.773    22289964.3714
  19844463.621   -29070137.352 9 -22625494.59948  19844466.136    19844473.8184
  24105716.353    -6185113.719 7  -4810335.42445  24105716.037    24105726.7524
  21410464.653   -20657409.014 9 -16072305.83847  21410467.882    21410475.5874
  23945725.630    -5590207.734 8  -4098329.89045  23945730.899    23945742.7014
  22283824.230   -14176743.970 8 -11033705.27446  22283826.106    22283836.0304
 00  8  9  1 10  0.0000000  0  6 20 22 06 25 03 01
  22297972.655   -13490363.843 8 -10497746.53946  22297972.969    22297982.6314
  19841576.962   -29085307.216 9 -22637315.25048  19841579.376    19841586.9394
  24113502.042    -6144151.902 8  -4778417.11645  24113511.575    24113521.6794
  21418365.420   -20615896.918 9 -16039958.75247  21418367.165    21418375.2624
  23926047.461    -5693659.191 8  -4178941.20045  23926045.372    23926057.3004
  22268217.843   -14258754.962 8 -11097609.87147  22268221.393    22268230.4844
 00  8  9  1 10 30.0000000  0  6 20 22 06 25 03 01
  22306085.034   -13447723.038 8 -10464519.98946  22306087.165    22306096.7114
  19838796.215   -29099923.222 9 -22648704.31948  19838797.760    19838805.5894
  24121392.178    -6102706.491 7  -4746121.98945  24121398.029    24121408.4354
  21426301.807   -20574192.835 9 -16007462.06747  21426303.274    21426311.0284
  23906359.839    -5797073.628 8  -4259523.67345  23906365.597    23906377.8844
  22252656.756   -14340533.270 8 -11161333.19247  22252659.740    22252668.4054
 00  8  9  1 11  0.0000000  0  6 20 22 06 25 03 01
  22314296.235   -13404576.511 8 -10430899.36246  22314298.070    22314307.1244
  19836120.445   -29113986.166 9 -22659662.43648  19836122.023    19836129.4944
  24129378.567    -6060778.725 8  -4713451.03745  24129376.748    24129388.3024
  21434275.633   -20532296.655 9 -15974815.69747  21434275.673    21434283.4704
  23886681.293    -5900447.838 8  -4340074.80945  23886693.060    23886705.1154
  22237136.050   -14422076.470 8 -11224873.27247  22237140.837    22237151.2664
 00  8  9  1 11 30.0000000  0  6 20 22 06 25 03 01
  22322603.874   -13360926.285 8 -10396886.23946  22322604.539    22322613.6164
  19833549.501   -29127496.364 9 -22670189.83748  19833551.013    19833558.4854
  24137446.373    -6018369.646 8  -4680405.05545  24137447.606    24137458.1124
  21442280.364   -20490208.683 9 -15942019.88247  21442284.694    21442292.3744
  23867023.858    -6003778.759 8  -4420592.20845  23867030.796    23867041.7474
  22221670.338   -14503382.502 8 -11288228.57247  22221669.635    22221679.3114
 00  8  9  1 12  0.0000000  0  6 20 22 06 25 03 01
  22331005.290   -13316774.603 8 -10362482.37246  22331006.881    22331015.4674
  19831084.665   -29140453.859 9 -22680286.56248  19831085.440    19831092.7314
  24145608.499    -5975480.734 8  -4646985.12845  24145608.807    24145618.9704
  21450328.018   -20447928.905 9 -15909074.60747  21450330.533    21450338.2754
  23847373.801    -6107063.863 8  -4501073.90445  23847376.266    23847386.5074
  22206239.053   -14584448.895 8 -11351397.11747  22206242.799    22206252.7534
 00  8  9  1 12 30.0000000  0  6 20 22 06 25 03 01
  22339501.171   -13272123.770 8 -10327689.55046  22339503.543    22339512.2844
  19828723.719   -29152859.330 9 -22689953.14348  19828724.831    19828731.9144
  24153859.359    -5932113.014 8  -4613192.08245  24153860.644    24153871.8534
  21458410.022   -20405457.271 9 -15875979.82647  21458412.779    21458420.2184
  23827726.597    -6210300.342 8  -4581517.74245  23827730.885    23827741.6034
  22190860.840   -14665273.433 8 -11414377.20947  22190863.012    22190872.5864
 00  8  9  1 13  0.0000000  0  6 20 22 06 25 03 01
  22348091.863   -13226975.936 8 -10292509.45946  22348094.217    22348103.1654
  19826467.625   -29164713.438 9 -22699190.09048  19826468.957    19826476.0704
  24162197.393    -5888267.549 7  -4579026.79645  24162204.183    24162215.8844
  21466529.586   -20362793.516 9 -15842735.34347  21466531.421    21466538.8764
  23808093.240    -6313485.186 8  -4661921.32645  23808095.331    23808105.9414
  22175527.369   -14745853.862 8 -11477167.07947  22175529.261    22175538.1594
 00  8  9  1 13 30.0000000  0  6 20 22 06 25 03 01
  22356780.404   -13181333.270 8 -10256943.78146  22356780.297    22356788.9084
  19824315.482   -29176017.052 9 -22707998.07648  19824317.753    19824325.2934
  24170638.638    -5843945.598 8  -4544490.25945  24170639.514    24170649.9254
  21474683.908   -20319938.019 9 -15809341.44847  21474686.678    21474694.2904
  23788470.391    -6416615.394 8  -4742282.35345  23788469.497    23788481.2124
  22160239.098   -14826187.823 8 -11539764.90647  22160241.299    22160250.4854
 00  8  9  1 14  0.0000000  0  6 20 22 06 25 03 01
  22365556.801   -13135198.000 8 -10220994.25546  22365559.288    22365568.4464
  19822269.179   -29186770.400 9 -22716377.28548  19822271.425    19822279.0794
  24179156.343    -5799148.378 7  -4509583.33245  24179163.616    24179174.0904
  21482875.914   -20276890.741 9 -15775798.11047  21482877.999    21482885.4404
  23768852.540    -6519688.254 8  -4822598.62945  23768855.827    23768866.8994
  22145000.798   -14906272.845 8 -11602168.75847  22145002.429    22145011.4714
 00  8  9  1 14 30.0000000  0  6 20 22 06 25 03 01
  22374429.499   -13088572.317 8 -10184662.59146  22374431.357    22374441.2204
  19820329.695   -29196973.907 9 -22724328.04948  19820329.890    19820337.3194
  24187778.106    -5753877.166 7  -4474307.04945  24187778.240    24187789.5854
  21491104.192   -20233651.490 9 -15742105.18247  21491106.327    21491113.6284
  23749251.040    -6622701.003 8  -4902868.09845  23749253.537    23749263.6704
  22129805.513   -14986106.854 8 -11664376.99547  22129810.276    22129819.9144
 00  8  9  1 15  0.0000000  0  6 20 22 06 25 03 01
  22383397.565   -13041458.573 8 -10147950.62346  22383397.866    22383406.5844
  19818490.734   -29206628.113 9 -22731850.78648  19818492.394    19818499.8964
  24196478.025    -5708133.234 8  -4438662.40145  24196482.932    24196495.2084
  21499368.217   -20190220.602 9 -15708262.92847  21499371.064    21499378.0814
  23729656.203    -6725650.954 8  -4983088.60545  23729661.603    23729672.3694
  22114661.988   -15065687.527 8 -11726387.83847  22114666.217    22114675.7804
 00  8  9  1 15 30.0000000  0  6 20 22 06 25 03 01
  22392454.148   -12993859.221 8 -10110860.24246  22392455.363    22392464.7994
  19816756.374   -29215734.036 9 -22738946.29548  19816759.666    19816767.2714
  24205276.458    -5661918.014 7  -4402650.55645  24205277.386    24205288.2604
  21507669.079   -20146597.798 9 -15674271.13347  21507672.024    21507679.7574
  23710082.675    -6828534.855 8  -5063257.67845  23710084.032    23710093.8764
  22099570.204   -15145012.477 8 -11788199.42147  22099571.320    22099580.6884
 00  8  9  1 16  0.0000000  0  6 20 22 06 25 03 01
  22401603.222   -12945776.450 8 -10073393.17846  22401605.201    22401614.7064
  19815130.247   -29224292.485 9 -22745615.19848  19815131.176    19815138.8234
  24214154.909    -5615232.718 8  -4366272.40845  24214161.913    24214172.0084
  21516007.553   -20102782.913 9 -15640129.65447  21516009.738    21516017.5694
  23690510.433    -6931349.774 8  -5143373.00045  23690518.113    23690530.0894
  22084522.750   -15224079.381 8 -11849809.93447  22084524.994    22084534.6684
 00  8  9  1 16 30.0000000  0  6 20 22 06 25 03 01
  22410844.804   -12897212.534 8 -10035551.20046  22410846.721    22410855.8354
  19813605.574   -29232303.720 9 -22751857.70148  19813606.699    19813614.1944
  24223135.684    -5568078.631 8  -4329528.97245  24223135.741    24223145.3324
  21524384.102   -20058776.182 9 -15605838.69347  21524384.257    21524391.7854
  23670962.314    -7034092.842 8  -5223432.35745  23670966.243    23670977.9604
  22069525.503   -15302885.924 8 -11911217.55347  22069528.547    22069538.1654
 00  8  9  1 17  0.0000000  0  6 20 22 06 25 03 01
  22420176.151   -12848169.895 8  -9997336.18446  22420179.703    22420187.8344
  19812183.376   -29239768.284 9 -22757674.22948  19812185.997    19812193.7704
  24232195.709    -5520457.134 8  -4292421.29745  24232197.381    24232207.5224
  21532793.448   -20014577.589 9 -15571398.22747  21532794.622    21532802.3744
  23651430.092    -7136761.340 8  -5303433.58345  23651429.517    23651438.9224
  22054582.286   -15381429.723 8 -11972420.44047  22054582.622    22054591.9984
 00  8  9  1 17 30.0000000  0  6 20 22 06 25 03 01
  22429600.344   -12798650.815 8  -9958749.89946  22429603.060    22429610.9944
  19810867.787   -29246686.938 9 -22763065.36748  19810869.633    19810877.3254
  24241344.407    -5472369.575 7  -4254950.44645  24241346.845    24241358.2314
  21541239.094   -19970186.843 9 -15536808.02547  21541241.754    21541249.4194
  23631907.557    -7239352.026 8  -5383374.20745  23631907.327    23631918.1484
  22039684.659   -15459708.510 8 -12033416.81547  22039686.105    22039696.1924
 00  8  9  1 18  0.0000000  0  6 20 22 06 25 03 01
  22439115.646   -12748657.694 8  -9919794.25646  22439116.082    22439124.6244
  19809654.855   -29253060.795 9 -22768031.98848  19809656.444    19809664.3804
  24250586.821    -5423817.135 7  -4217117.40045  24250586.846    24250596.7284
  21549721.358   -19925604.335 9 -15502068.40447  21549725.322    21549733.0834
  23612391.547    -7341862.009 8  -5463251.91245  23612399.293    23612410.2404
  22024838.394   -15537719.822 8 -12094204.79147  22024841.794    22024850.6734
 00  8  9  1 18 30.0000000  0  6 20 22 06 25 03 01
  22448715.620   -12698192.911 8  -9880471.07946  22448718.685    22448727.8074
  19808545.574   -29258890.552 9 -22772574.63948  19808547.221    19808554.8144
  24259913.875    -5374801.355 8  -4178923.29545  24259915.863    24259924.9574
  21558243.157   -19880829.924 9 -15467179.24047  21558245.604    21558253.8424
  23592908.125    -7444288.465 8  -5543064.52445  23592908.208    23592919.3714
  22010043.963   -15615461.371 8 -12154782.56247  22010047.565    22010056.9724
 00  8  9  1 19  0.0000000  0  6 20 22 06 25 03 01
  22458408.661   -12647258.980 8  -9840782.32546  22458411.165    22458420.1094
  19807539.878   -29264176.659 9 -22776693.66748  19807541.310    19807549.0874
  24269320.858    -5325323.636 8  -4140369.20645  24269329.359    24269339.8354
  21566800.126   -19835863.785 9 -15432140.68547  21566802.761    21566810.3964
  23573426.173    -7546628.686 8  -5622809.96445  23573433.914    23573444.9674
  21995303.929   -15692930.779 8 -12215148.26147  21995306.083    21995314.9214
 00  8  9  1 19 30.0000000  0  6 20 22 06 25 03 01
  22468192.962   -12595858.296 8  -9800729.86446  22468193.133    22468201.4574
  19806635.708   -29268919.758 9 -22780389.57348  19806638.563    19806646.4334
  24278827.516    -5275385.380 7  -4101456.29345  24278831.870    24278843.5084
  21575391.488   -19790705.796 9 -15396952.64747  21575395.909    21575403.7684
  23553969.403    -7648879.533 8  -5702485.77345  23553976.626    23553986.7264
  21980614.702   -15770125.864 8 -12275300.21347  21980615.940    21980624.7644
 00  8  9  1 20  0.0000000  0  6 20 22 06 25 03 01
  22478061.511   -12543993.282 8  -9760315.61046  22478062.019    22478071.1714
  19805837.125   -29273120.898 9 -22783663.16848  19805839.075    19805847.0394
  24288418.970    -5224988.030 8  -4062185.65245  24288422.583    24288433.8544
  21584023.064   -19745355.762 9 -15361614.95247  21584025.499    21584033.5614
  23534534.003    -7751038.073 8  -5782089.66445  23534536.026    23534546.4784
  21965975.233   -15847044.193 8 -12335236.51647  21965978.565    21965987.1884
 00  8  9  1 20 30.0000000  0  7 20 22 06 25 03 01 19
  22488016.512   -12491666.386 8  -9719541.42746  22488018.970    22488028.6024
  19805140.092   -29276781.227 9 -22786515.35448  19805142.661    19805150.2474
  24298093.038    -5174133.151 8  -4022558.43545  24298101.157    24298110.9054
  21592688.656   -19699813.679 9 -15326127.61747  21592692.086    21592699.6304
  23515104.256    -7853101.600 8  -5861619.52245  23515113.946    23515124.2344
  21951391.039   -15923683.484 8 -12394955.36647  21951393.951    21951403.5284
  24694955.034     -209207.80917   -146027.82055  24694960.044    24694972.2754
 00  8  9  1 21  0.0000000  0  7 20 22 06 25 03 01 19
  22498063.274   -12438880.068 8  -9678409.25046  22498064.047    22498073.6074
  19804546.980   -29279901.397 9 -22788946.63948  19804548.708    19804556.4584
  24307863.134    -5122822.114 8  -3982575.79645  24307864.909    24307875.2524
  21601391.390   -19654079.720 9 -15290490.77047  21601395.062    21601402.5954
  23495705.326    -7955067.164 8  -5941073.02945  23495710.563    23495720.9664
  21936862.725   -16000041.084 8 -12454454.73447  21936864.384    21936872.8824
  24679284.860     -291547.371 7   -210188.43845  24679290.969    24679304.6954
 00  8  9  1 21 30.0000000  0  7 20 22 06 25 03 01 19
  22508192.008   -12385636.753 8  -9636920.99746  22508195.614    22508206.1384
  19804055.655   -29282481.870 9 -22790957.37548  19804057.728    19804065.3414
  24317715.322    -5071056.380 8  -3942238.82845  24317716.193    24317725.8364
  21610128.590   -19608153.651 9 -15254704.22547  21610134.355    21610141.6664
  23476322.024    -8056931.751 8  -6020447.85545  23476326.269    23476336.4834
  21922384.094   -16076114.800 8 -12513732.89847  21922387.821    21922396.7224
  24663626.433     -373887.427 7   -274349.44845  24663623.899    24663636.0744
 00  8  9  1 22  0.0000000  0  7 20 22 06 25 03 01 19
  22518413.230   -12331939.170 8  -9595078.76846  22518415.320    22518423.9074
  19803667.695   -29284523.573 9 -22792548.30148  19803669.293    19803676.8674
  24327646.242    -5018837.579 8  -3901548.85145  24327652.539    24327663.4684
  21618908.018   -19562035.327 9 -15218767.87247  21618910.438    21618917.7204
  23456961.283    -8158692.395 8  -6099741.73545  23456962.072    23456971.5214
  21907962.281   -16151902.334 8 -12572788.04247  21907965.505    21907974.7474
  24647951.742     -456227.851 7   -338510.79745  24647953.822    24647967.4964
 00  8  9  1 22 30.0000000  0  7 20 22 06 25 03 01 19
  22528718.334   -12277789.880 8  -9552884.54246  22528719.586    22528727.6664
  19803381.255   -29286027.635 9 -22793720.27548  19803382.971    19803390.7804
  24337675.067    -4966167.143 8  -3860506.96645  24337675.884    24337685.6954
  21627721.394   -19515725.016 9 -15182681.92447  21627723.354    21627730.4124
  23437610.630    -8260346.048 8  -6178952.23045  23437618.268    23437627.0104
  21893596.053   -16227401.272 8 -12631618.32547  21893598.544    21893606.8774
  24632275.510     -538568.078 7   -402672.01845  24632285.712    24632297.5514
 00  8  9  1 23  0.0000000  0  7 20 22 06 25 03 01 19
  22539106.943   -12223191.235 8  -9510340.19046  22539109.151    22539117.3284
  19803196.710   -29286995.168 9 -22794474.17748  19803198.902    19803206.5624
  24347779.300    -4913046.502 8  -3819114.25145  24347783.578    24347793.6504
  21636569.334   -19469222.632 9 -15146446.31747  21636572.581    21636580.2034
  23418292.642    -8361889.794 8  -6258077.11145  23418294.525    23418303.3974
  21879284.671   -16302609.239 8 -12690221.86947  21879286.770    21879295.6984
  24616615.379     -620907.765 7   -466832.80445  24616617.386    24616627.8544
 00  8  9  1 23 30.0000000  0  7 20 22 06 25 03 01 19
  22549581.414   -12168145.747 8  -9467447.62346  22549584.050    22549592.9084
  19803115.885   -29287426.999 9 -22794810.64648  19803116.871    19803124.2254
  24357973.061    -4859477.421 7  -3777372.16045  24357977.387    24357987.2954
  21645454.971   -19422528.266 9 -15110061.10747  21645457.925    21645465.4024
  23398993.297    -8463320.688 8  -6337114.01045  23398992.580    23399002.7024
  21865025.248   -16377523.899 8 -12748596.84747  21865030.748    21865039.8304
  24600945.880     -703246.932 7   -530993.23045  24600947.347    24600959.7854
 00  8  9  1 24  0.0000000  0  7 20 22 06 25 03 01 19
  22560140.633   -12112656.052 8  -9424208.93246  22560143.469    22560152.6124
  19803134.333   -29287323.587 9 -22794730.04748  19803136.336    19803143.9554
  24368252.974    -4805461.217 7  -3735281.57845  24368255.247    24368266.7274
  21654375.901   -19375641.548 9 -15073526.01647  21654380.189    21654387.9314
  23379704.522    -8564635.830 8  -6416060.72345  23379712.739    23379722.7194
  21850829.498   -16452143.042 8 -12806741.56347  21850831.908    21850840.4664
  24585268.152     -785585.334 7   -595153.02945  24585279.320    24585291.0904
 00  8  9  1 24 30.0000000  0  7 20 22 06 25 03 01 19
  22570786.660   -12056724.786 8  -9380626.15146  22570787.000    22570796.0744
  19803254.415   -29286686.041 9 -22794233.24348  19803257.694    19803265.1744
  24378622.123    -4750999.657 8  -3692843.97845  24378620.386    24378630.0404
  21663333.913   -19328562.585 9 -15036841.13347  21663338.613    21663346.4994
  23360454.456    -8665832.342 8  -6494915.00345  23360455.599    23360465.7684
  21836687.287   -16526464.209 9 -12864654.07747  21836689.231    21836697.5784
  24569610.596     -867922.779 7   -659312.06445  24569612.514    24569623.1314
 00  8  9  1 25  0.0000000  0  7 20 22 06 25 03 01 19
  22581511.031   -12000354.432 8  -9336701.20846  22581513.735    22581522.4954
  19803478.242   -29285515.634 9 -22793321.21848  19803480.250    19803487.8444
  24389064.218    -4696094.337 8  -3650060.62845  24389068.076    24389078.6364
  21672329.023   -19281291.508 8 -15000006.54947  21672333.920    21672342.2004
  23341219.009    -8766907.317 8  -6573674.59945  23341221.936    23341231.3384
  21822601.246   -16600485.070 9 -12922332.60147  21822603.273    21822611.4164
  24553941.962     -950258.682 7   -723469.92245  24553943.179    24553955.1544
 00  8  9  1 25 30.0000000  0  7 20 22 06 25 03 01 19
  22592322.499   -11943547.670 8  -9292436.19346  22592323.498    22592332.6414
  19803803.416   -29283813.641 9 -22791994.96748  19803804.274    19803811.9144
  24399597.724    -4640746.861 7  -3606932.72045  24399599.766    24399610.2064
  21681364.803   -19233828.187 9 -14963022.16247  21681366.504    21681373.8564
  23322008.257    -8867857.669 8  -6652337.06746  23322011.823    23322021.5714
  21808571.188   -16674203.330 8 -12979775.31747  21808574.661    21808584.0774
  24538263.230    -1032592.853 7   -787626.34045  24538275.617    24538286.6094
 00  8  9  1 26  0.0000000  0  7 20 22 06 25 03 01 19
  22603213.872   -11886307.174 8  -9247833.23646  22603216.373    22603225.6634
  19804226.537   -29281580.608 9 -22790254.91848  19804229.184    19804236.8874
  24410213.710    -4584958.759 7  -3563461.45445  24410215.127    24410227.2674
  21690433.423   -19186172.315 9 -14925887.72947  21690434.931    21690442.5254
  23302825.563    -8968680.180 8  -6730899.91046  23302825.102    23302834.6444
  21794601.975   -16747616.355 8 -13036980.19547  21794604.697    21794613.8374
  24522608.730    -1114924.972 7   -851781.17245  24522609.233    24522621.2764
 00  8  9  1 26 30.0000000  0  7 20 22 06 25 03 01 19
  22614187.197   -11828635.583 8  -9202894.35546  22614190.072    22614199.1674
  19804753.111   -29278817.427 9 -22788101.76648  19804755.196    19804762.5894
  24420911.181    -4528731.763 7  -3519648.21945  24420915.689    24420926.2384
  21699535.056   -19138324.489 9 -14888603.71747  21699540.012    21699547.6384
  23283662.513    -9069372.107 8  -6809361.02045  23283663.863    23283673.7364
  21780689.278   -16820722.084 8 -13093945.62047  21780693.161    21780702.0764
  24506941.955    -1197254.927 7   -915934.34845  24506942.251    24506951.8144
 00  8  9  1 27  0.0000000  0  7 20 22 06 25 03 01 19
  22625242.219   -11770535.621 8  -9157621.67346  22625246.473    22625255.0794
  19805379.726   -29275525.093 9 -22785536.29148  19805381.807    19805388.9574
  24431697.997    -4472067.434 8  -3475494.19645  24431699.609    24431709.7284
  21708675.952   -19090284.262 8 -14851169.79147  21708681.496    21708689.5044
  23264517.563    -9169930.474 8  -6887718.06045  23264527.972    23264537.9564
  21766839.094   -16893518.043 8 -13150669.66147  21766840.519    21766849.6054
  24491266.346    -1279582.417 7   -980085.56345  24491274.330    24491286.7144
 00  8  9  1 27 30.0000000  0  7 20 22 06 25 03 01 19
  22636384.064   -11712009.933 8  -9112017.23646  22636383.171    22636392.4084
  19806106.243   -29271705.198 9 -22782559.72348  19806108.683    19806115.9184
  24442556.637    -4414967.508 8  -3431000.73845  24442565.483    24442575.9134
  21717856.661   -19042051.601 8 -14813585.91747  21717859.990    21717867.5494
  23245415.884    -9270352.194 8  -6965968.61145  23245418.132    23245427.8704
  21753045.119   -16966001.933 8 -13207150.52347  21753047.528    21753056.2294
  24475600.244    -1361907.130 7  -1044234.62245  24475608.269    24475620.6874
 00  8  9  1 28  0.0000000  0  7 20 22 06 25 03 01 19
  22647594.750   -11653060.998 8  -9066083.02346  22647600.540    22647610.4474
  19806933.865   -29267358.883 9 -22779172.96648  19806935.731    19806942.9054
  24453513.953    -4357433.623 8  -3386169.18445  24453513.233    24453523.8144
  21727073.012   -18993626.703 8 -14775852.24047  21727075.131    21727083.0214
  23226330.431    -9370634.515 8  -7044110.56146  23226335.267    23226345.2764
  21739311.485   -17038171.299 8 -13263386.31847  21739313.890    21739322.8744
  24459940.333    -1444228.929 7  -1108381.37245  24459942.283    24459955.4344
 00  8  9  1 28 30.0000000  0  7 20 22 06 25 03 01 19
  22658895.239   -11593691.654 8  -9019821.24246  22658898.324    22658908.4864
  19807860.001   -29262486.810 9 -22775376.52348  19807862.629    19807870.0324
  24464541.438    -4299467.434 7  -3341000.75245  24464543.786    24464554.2914
  21736322.212   -18945009.185 8 -14737968.47047  21736326.260    21736334.6144
  23207276.568    -9470774.318 8  -7122141.45746  23207279.364    23207289.0394
  21725635.940   -17110023.773 8 -13319375.17047  21725640.631    21725649.5264
  24444278.392    -1526547.329 7  -1172525.44345  24444278.086    24444287.9994
 00  8  9  1 29  0.0000000  0  7 20 22 06 25 03 01 19
  22670271.941   -11533904.645 8  -8973233.96546  22670276.342    22670285.2044
  19808887.224   -29257089.927 9 -22771171.13148  19808889.266    19808897.1104
  24475650.694    -4241070.499 7  -3295496.63545  24475656.011    24475667.2634
  21745610.548   -18896198.999 8 -14699934.56547  21745614.591    21745622.9614
  23188243.411    -9570768.851 8  -7200059.15545  23188249.553    23188260.4564
  21712025.025   -17181557.032 8 -13375115.29647  21712028.114    21712037.3864
  24428616.834    -1608862.126 7  -1236666.77745  24428615.554    24428625.2604
 00  8  9  1 29 30.0000000  0  7 20 22 06 25 03 01 19
  22681730.685   -11473702.572 8  -8926323.25446  22681732.796    22681741.1814
  19810013.758   -29251169.545 9 -22766557.82648  19810016.183    19810023.6974
  24486847.986    -4182244.646 7  -3249658.27245  24486850.931    24486860.2994
  21754938.183   -18847196.423 9 -14661750.76047  21754940.098    21754947.4514
  23169245.590    -9670614.998 8  -7277861.21245  23169250.198    23169260.4064
  21698476.956   -17252768.764 9 -13430604.88447  21698477.585    21698485.2284
  24412950.896    -1691173.005 7  -1300805.03245  24412950.758    24412961.2414
 00  8  9  1 30  0.0000000  0  7 20 22 06 25 03 01 19
  22693262.993   -11413088.466 8  -8879091.48446  22693267.441    22693275.3844
  19811239.228   -29244727.225 9 -22761537.81548  19811241.990    19811249.6534
  24498119.248    -4122991.896 7  -3203487.34245  24498125.679    24498136.0504
  21764298.795   -18798000.831 8 -14623416.53447  21764301.630    21764309.0424
  23150276.559    -9770309.808 8  -7355545.34345  23150277.640    23150289.1624
  21684983.757   -17323656.578 8 -13485842.06547  21684987.159    21684996.0114
  24397283.431    -1773479.490 7  -1364939.89245  24397288.521    24397300.4254
 00  8  9  1 30 30.0000000  0  7 20 22 06 25 03 01 19
  22704880.588   -11352064.841 8  -8831540.60646  22704879.835    22704887.5924
  19812566.450   -29237764.120 9 -22756112.00148  19812567.253    19812574.6914
  24509482.149    -4063313.753 7  -3156984.93045  24509482.161    24509492.4984
  21773696.598   -18748612.535 9 -14584932.15247  21773700.060    21773707.6494
  23131337.425    -9869850.250 8  -7433109.18446  23131336.685    23131347.1974
  21671557.051   -17394217.999 9 -13540824.90447  21671559.980    21671569.0244
  24381628.542    -1855781.499 7  -1429071.25445  24381626.296    24381638.5184
 00  8  9  1 31  0.0000000  0  7 20 22 06 25 03 01 19
  22716567.203   -11290634.551 8  -8783672.87546  22716568.832    22716578.1834
  19813988.445   -29230280.953 9 -22750280.94648  19813991.407    19813998.6624
  24520920.478    -4003212.069 7  -3110152.44745  24520918.942    24520928.5104
  21783131.718   -18699031.598 8 -14546297.65247  21783135.317    21783142.4384
  23112423.661    -9969233.360 8  -7510550.45246  23112425.682    23112434.4914
  21658194.184   -17464450.747 9 -13595551.65247  21658195.742    21658203.3164
  24365961.102    -1938078.693 7  -1493198.88145  24365966.628    24365977.8804
 00  8  9  1 31 30.0000000  0  7 20 22 06 25 03 01 19
  22728331.787   -11228800.221 8  -8735490.30546  22728334.988    22728344.6254
  19815511.978   -29222278.834 9 -22744045.50548  19815513.947    19815521.4474
  24532434.164    -3942688.658 7  -3062991.39245  24532436.529    24532445.4034
  21792604.451   -18649258.255 9 -14507513.23247  21792607.067    21792614.2464
  23093538.297   -10068456.076 8  -7587866.76746  23093543.729    23093553.2924
  21644891.604   -17534352.598 9 -13650020.55747  21644893.456    21644901.5654
  24350301.685    -2020370.667 7  -1557322.42345  24350307.741    24350316.9354
 00  8  9  1 32  0.0000000  0  7 20 22 06 25 03 01 19
  22740177.230   -11166564.721 8  -8686995.13246  22740177.996    22740187.6964
  19817134.334   -29213759.253 9 -22737406.85048  19817135.127    19817142.5034
  24544031.871    -3881745.217 7  -3015503.01945  24544033.727    24544044.6614
  21802112.230   -18599292.179 8 -14468578.62947  21802114.644    21802121.9124
  23074692.787   -10167515.517 8  -7665055.83846  23074693.336    23074703.3004
  21631650.558   -17603921.108 9 -13704229.73147  21631654.727    21631663.0914
  24334642.869    -2102657.106 7  -1621441.63845  24334648.380    24334660.5694
 00  8  9  1 32 30.0000000  0  7 20 22 06 25 03 01 19
  22752097.587   -11103930.874 8  -8638189.54946  22752096.870    22752106.2624
  19818852.520   -29204723.631 9 -22730366.08848  19818854.445    19818861.8774
  24555700.739    -3820383.462 7  -2967688.67145  24555710.645    24555720.9004
  21811657.625   -18549133.256 8 -14429493.75647  21811659.957    21811667.4704
  23055868.232   -10266408.864 8  -7742115.44546  23055873.069    23055884.1784
  21618479.108   -17673153.913 9 -13758177.29747  21618479.947    21618488.4434
  24318992.073    -2184937.490 7  -1685556.16445  24318990.980    24319001.5804
 00  8  9  1 33  0.0000000  0  7 20 22 06 25 03 01 19
  22764088.079   -11040901.314 8  -8589075.62646  22764091.418    22764100.7294
  19820671.893   -29195173.124 9 -22722924.12048  19820672.122    19820679.3684
  24567468.081    -3758605.314 7  -2919549.89945  24567466.423    24567475.9124
  21821236.231   -18498781.344 8 -14390258.50447  21821240.776    21821248.8914
  23037084.844   -10365132.905 8  -7819043.13946  23037087.101    23037096.9834
  21605367.466   -17742048.639 9 -13811861.43147  21605369.762    21605378.2404
  24303333.625    -2267211.703 7  -1749665.86745  24303334.816    24303345.7744
 00  8  9  1 33 30.0000000  0  7 20 22 06 25 03 01 19
  22776160.649   -10977479.032 8  -8539655.69846  22776160.951    22776170.0874
  19822585.060   -29185108.677 9 -22715081.67248  19822587.269    19822594.3804
  24579301.553    -3696412.769 7  -2871088.23245  24579301.832    24579312.9244
  21830854.498   -18448236.393 8 -14350872.83747  21830859.255    21830867.3124
  23018333.907   -10463684.591 8  -7895836.54746  23018333.785    23018343.2064
  21592320.709   -17810602.948 9 -13865280.31747  21592323.587    21592333.0804
  24287674.650    -2349479.411 7  -1813770.55245  24287679.542    24287691.4654
 00  8  9  1 34  0.0000000  0  7 20 22 06 25 03 01 19
  22788298.952   -10913666.874 8  -8489931.96046  22788303.916    22788313.4394
  19824599.186   -29174531.452 9 -22706839.66148  19824599.919    19824607.1204
  24591211.392    -3633807.581 7  -2822305.03345  24591215.808    24591225.0034
  21840510.687   -18397498.771 8 -14311337.03847  21840514.352    21840522.2414
  22999608.395   -10562061.377 8  -7972493.67446  22999613.394    22999621.9754
  21579342.602   -17878814.547 9 -13918432.15147  21579344.103    21579352.9804
  24272020.207    -2431740.204 7  -1877869.82445  24272025.849    24272038.0004
 00  8  9  1 34 30.0000000  0  7 20 22 06 25 03 01 19
  22800521.287   -10849467.654 8  -8439906.60946  22800520.471    22800529.2874
  19826708.338   -29163443.117 9 -22698199.38248  19826710.174    19826717.4004
  24603206.075    -3570791.414 7  -2773201.60545  24603206.776    24603216.6014
  21850205.111   -18346568.104 8 -14271650.80747  21850206.715    21850213.6634
  22980919.329   -10660260.091 8  -8049012.05346  22980926.229    22980936.2924
  21566424.417   -17946681.055 9 -13971315.10147  21566429.547    21566438.0444
  24256370.449    -2513993.604 7  -1941963.28845  24256373.772    24256384.5384
 00  8  9  1 35  0.0000000  0  7 20 22 06 25 03 01 19
  22812808.103   -10784884.188 8  -8389581.86746  22812810.349    22812819.1724
  19828915.650   -29151845.300 9 -22689162.10448  19828916.718    19828924.0534
  24615278.593    -3507366.345 7  -2723779.51345  24615275.923    24615286.1094
  21859931.765   -18295444.144 8 -14231813.96347  21859934.757    21859942.4234
  22962269.985   -10758277.408 8  -8125389.06446  22962274.211    22962283.4264
  21553580.118   -18014200.128 9 -14023927.31647  21553580.956    21553589.4964
  24240724.293    -2596239.397 7  -2006050.83745  24240722.387    24240732.0774
 00  8  9  1 35 30.0000000  0  7 20 22 06 25 03 01 19
  22825172.393   -10719919.367 8  -8338959.97746  22825172.986    22825182.0954
  19831217.044   -29139738.943 9 -22679728.56548  19831220.409    19831227.9234
  24627425.417    -3443534.200 7  -2674040.20945  24627422.971    24627433.0734
  21869695.664   -18244127.429 8 -14191826.92347  21869700.442    21869707.3904
  22943648.680   -10856110.384 8  -8201622.45746  22943656.028    22943666.2814
  21540796.700   -18081369.282 9 -14076266.86347  21540798.943    21540807.9134
  24225069.332    -2678477.145 7  -2070132.11945  24225072.343    24225084.0744
 00  8  9  1 36  0.0000000  0  7 20 22 06 25 03 01 19
  22837602.126   -10654576.019 8  -8288043.13446  22837607.438    22837616.0664
  19833619.664   -29127125.060 9 -22669899.54948  19833620.943    19833628.3914
  24639643.112    -3379296.795 7  -2623985.10545  24639646.668    24639657.6674
  21879497.999   -18192617.652 8 -14151689.44747  21879502.417    21879509.3594
  22925069.147   -10953756.286 8  -8277710.02646  22925075.179    22925085.1114
  21528083.190   -18148186.273 9 -14128332.01447  21528084.306    21528092.7284
  24209426.538    -2760706.482 7  -2134206.79745  24209424.208    24209437.1174
 00  8  9  1 36 30.0000000  0  7 20 22 06 25 03 01 19
  22850110.625   -10588857.111 8  -8236833.62846  22850112.950    22850121.7314
  19836116.990   -29114005.142 9 -22659676.22648  19836117.690    19836124.7764
  24651941.310    -3314655.997 7  -2573615.65745  24651947.481    24651957.6454
  21889339.331   -18140914.552 8 -14111401.32547  21889340.992    21889348.8414
  22906532.660   -11051212.057 8  -8353649.49546  22906530.139    22906539.9414
  21515431.949   -18214648.808 9 -14180120.94947  21515436.518    21515444.9104
  24193776.756    -2842927.200 7  -2198274.75545  24193778.201    24193790.8574
 00  8  9  1 37  0.0000000  0  7 20 22 06 25 03 01 19
  22862689.260   -10522765.416 8  -8185333.65246  22862689.843    22862698.6464
  19838709.033   -29100380.820 9 -22649059.85948  19838710.457    19838717.3674
  24664322.757    -3249613.680 7  -2522933.35945  24664324.941    24664335.7014
  21899212.998   -18089018.155 8 -14070962.58847  21899216.553    21899224.0784
  22888015.698   -11148474.689 8  -8429438.42746  22888021.494    22888031.5174
  21502854.765   -18280754.607 9 -14231631.91847  21502857.093    21502865.0224
  24178127.402    -2925138.765 7  -2262335.58645  24178132.677    24178145.8494
 00  8  9  1 37 30.0000000  0  7 20 22 06 25 03 01 19
  22875336.893   -10456304.164 8  -8133545.70746  22875336.895    22875345.9854
  19841396.752   -29086253.729 9 -22638051.72748  19841398.618    19841405.8944
  24676775.398    -3184171.815 7  -2471939.70945  24676778.907    24676788.4124
  21909126.890   -18036928.740 8 -14030373.45347  21909129.299    21909136.3644
  22869540.252   -11245541.057 8  -8505074.43946  22869549.449    22869560.2534
  21490341.405   -18346501.304 9 -14282863.06747  21490346.202    21490354.3294
  24162483.291    -3007340.701 7  -2326388.92645  24162491.749    24162502.0564
 00  8  9  1 38  0.0000000  0  7 20 22 06 25 03 01 19
  22888052.402   -10389475.906 8  -8081471.77446  22888053.738    22888062.9494
  19844180.977   -29071624.764 9 -22626652.52448  19844182.205    19844189.5594
  24689300.668    -3118332.501 7  -2420636.39745  24689307.025    24689315.9714
  21919074.506   -17984645.894 8 -13989633.58347  21919078.095    21919085.5474
  22851111.526   -11342408.464 8  -8580555.40246  22851117.084    22851127.0174
  21477901.149   -18411886.521 9 -14333812.54747  21477903.556    21477911.6344
  24146851.954    -3089532.959 8  -2390434.69445  24146851.707    24146862.1754
 00  8  9  1 38 30.0000000  0  7 20 22 06 25 03 01 19
  22900836.925   -10322283.554 8  -8029114.14346  22900840.153    22900848.7164
  19847059.557   -29056495.188 9 -22614863.23148  19847061.153    19847068.5544
  24701910.083    -3052097.686 7  -2369024.87745  24701911.366    24701921.8144
  21929063.700   -17932169.633 8 -13948743.00147  21929064.266    21929071.1984
  22832720.532   -11439073.906 8  -8655879.03646  22832722.254    22832731.2264
  21465524.916   -18476907.984 9 -14384478.58347  21465529.863    21465538.7044
  24131219.138    -3171714.882 8  -2454472.40245  24131212.491    24131222.1554
 00  8  9  1 39  0.0000000  0  7 20 22 06 25 03 01 19
  22913694.083   -10254729.965 8  -7976475.02446  22913695.814    22913704.5584
  19850032.581   -29040866.481 9 -22602685.00548  19850035.325    19850042.9554
  24714586.845    -2985469.133 7  -2317106.54045  24714588.954    24714600.0374
  21939084.331   -17879499.841 8 -13907701.62047  21939086.380    21939093.8674
  22814362.504   -11535534.045 8  -8731042.67446  22814366.691    22814376.0994
  21453225.126   -18541563.217 9 -14434859.23347  21453226.465    21453235.5214
  24115570.391    -3253886.249 7  -2518501.89045  24115574.795    24115585.5994
 00  8  9  1 39 30.0000000  0  7 20 22 06 25 03 01 19
  22926618.503   -10186818.443 8  -7923557.02046  22926617.733    22926627.8294
  19853103.496   -29024740.600 9 -22590119.37248  19853103.998    19853111.4764
  24727339.549    -2918448.786 7  -2264882.90445  24727343.938    24727353.9544
  21949141.059   -17826636.508 8 -13866509.42947  21949145.880    21949153.8224
  22796046.838   -11631786.128 8  -8806044.21446  22796050.430    22796059.6664
  21440990.371   -18605849.966 9 -14484952.76547  21440993.386    21441002.0754
  24099935.734    -3336046.436 7  -2582522.68145  24099940.160    24099950.9384
 00  8  9  1 40  0.0000000  0  7 20 22 06 25 03 01 19
  22939603.850   -10118551.773 8  -7870362.27046  22939609.085    22939619.7414
  19856264.686   -29008118.896 9 -22577167.38148  19856267.017    19856274.1804
  24740166.027    -2851038.678 7  -2212355.57245  24740170.279    24740180.3044
  21959238.633   -17773579.644 8 -13825166.44247  21959242.337    21959250.3294
  22777768.330   -11727827.151 8  -8880881.25246  22777773.621    22777784.5604
  21428825.859   -18669765.887 9 -14534757.33847  21428830.558    21428839.0174
  24084302.395    -3418194.755 7  -2646534.20045  24084307.987    24084319.6464
 00  8  9  1 40 30.0000000  0  7 20 22 06 25 03 01 19
  22952662.568   -10049932.934 8  -7816893.08946  22952666.829    22952677.0104
  19859520.513   -28991002.380 9 -22563829.82148  19859523.853    19859531.5944
  24753072.168    -2783240.988 7  -2159526.26845  24753073.498    24753082.0024
  21969375.289   -17720329.037 8 -13783672.48347  21969375.487    21969384.0694
  22759534.688   -11823654.196 8  -8955551.54546  22759538.741    22759548.3674
  21416736.114   -18733308.885 9 -14584271.32347  21416738.917    21416747.0564
  24068674.119    -3500331.225 7  -2710536.46745  24068678.542    24068690.4474
 00  8  9  1 41  0.0000000  0  7 20 22 06 25 03 01 19
  22965786.894    -9980964.693 8  -7763151.64646  22965791.277    22965801.0194
  19862872.975   -28973392.508 9 -22550107.82948  19862874.785    19862882.7704
  24766040.671    -2715057.661 7  -2106396.43045  24766046.841    24766057.9314
  21979542.936   -17666884.887 8 -13742027.71347  21979545.916    21979553.9574
  22741345.193   -11919264.183 8  -9030052.72646  22741344.421    22741354.1914
  21404716.497   -18796476.438 9 -14633492.74347  21404718.227    21404726.8614
  24053052.002    -3582455.313 8  -2774529.08845  24053049.803    24053062.4334
 00  8  9  1 41 30.0000000  0  7 20 22 06 25 03 01 19
  22978979.662    -9911650.265 8  -7709140.44146  22978981.041    22978991.3884
  19866318.811   -28955290.960 9 -22536002.71648  19866319.537    19866327.1834
  24779098.086    -2646490.532 7  -2052967.51945  24779093.899    24779105.4264
  21989751.852   -17613247.135 8 -13700232.08047  21989753.211    21989760.5634
  22723184.545   -12014654.324 8  -9104382.60246  22723191.697    22723201.9374
  21392765.652   -18859266.333 9 -14682419.88647  21392769.546    21392777.7884
  24037423.875    -3664566.630 7  -2838511.79745  24037424.984    24037436.3364
 00  8  9  1 42  0.0000000  0  7 20 22 06 25 03 01 19
  22992236.368    -9841992.731 8  -7654861.89146  22992236.325    22992245.6594
  19869855.881   -28936699.563 9 -22521515.89648  19869857.268    19869864.9704
  24792209.984    -2577541.686 7  -1999241.17845  24792216.392    24792226.4184
  21999991.992   -17559415.731 8 -13658285.54547  21999996.746    22000004.7614
  22705080.463   -12109821.703 8  -9178538.86946  22705082.517    22705091.4074
  21380891.227   -18921676.280 9 -14731050.95847  21380893.484    21380901.8314
  24021793.483    -3746664.650 7  -2902484.12445  24021801.551    24021812.9864
 00  8  9  1 42 30.0000000  0  7 20 22 06 25 03 01 19
  23005552.683    -9771994.798 8  -7600318.07646  23005556.929    23005565.6034
  19873487.682   -28917619.645 9 -22506648.41748  19873488.141    19873495.8314
  24805398.479    -2508213.146 7  -1945218.96145  24805408.402    24805418.6774
  22010277.436   -17505390.554 8 -13616188.02547  22010277.547    22010285.0274
  22687013.995   -12204763.262 8  -9252519.21446  22687016.145    22687024.7204
  21369086.644   -18983703.974 9 -14779384.18347  21369090.086    21369098.4154
  24006170.865    -3828748.914 8  -2966445.75745  24006181.706    24006191.8534
 00  8  9  1 43  0.0000000  0  7 20 22 06 25 03 01 19
  23018940.797    -9701659.715 8  -7545511.55046  23018941.607    23018949.7964
  19877209.927   -28898052.371 9 -22491401.17448  19877211.743    19877219.2474
  24818667.978    -2438507.089 7  -1890902.53945  24818673.496    24818684.2094
  22020591.950   -17451171.771 8 -13573939.63647  22020595.137    22020602.8014
  22668984.695   -12299475.762 8  -9326321.08046  22668991.796    22669001.1974
  21357357.147   -19045347.127 9 -14827417.76047  21357359.738    21357368.1274
  23990561.157    -3910819.004 7  -3030396.35345  23990563.791    23990575.0864
 00  8  9  1 43 30.0000000  0  7 20 22 06 25 03 01 19
  23032384.415    -9630990.175 8  -7490444.42846  23032389.078    23032398.2954
  19881025.076   -28877999.319 9 -22475775.40248  19881027.531    19881035.2994
  24832005.688    -2368425.442 7  -1836293.47945  24832008.942    24832019.9664
  22030945.966   -17396759.059 8 -13531540.12947  22030948.907    22030957.1364
  22651012.074   -12393956.207 8  -9399942.08146  22651013.243    22651022.4204
  21345701.836   -19106603.499 9 -14875149.94547  21345703.338    21345711.2784
  23974951.761    -3992874.718 8  -3094335.73645  23974949.615    23974960.1384
 00  8  9  1 44  0.0000000  0  6 20 22 25 03 01 19
  23045896.785    -9559989.402 8  -7435119.20546  23045899.065    23045909.4344
  19884934.517   -28857462.247 9 -22459772.47748  19884935.914    19884943.1874
  22041336.324   -17342152.643 8 -13488989.69247  22041340.752    22041348.1094
  22633080.572   -12488201.848 8  -9473380.13046  22633079.699    22633088.6084
  21334116.150   -19167470.764 9 -14922578.93447  21334120.248    21334128.5674
  23959331.136    -4074915.637 7  -3158263.61345  23959336.234    23959348.6754
 00  8  9  1 44 30.0000000  0  6 20 22 25 03 01 19
  23059472.332    -9488660.454 8  -7379538.26946  23059473.438    23059483.8634
  19888933.727   -28836443.089 9 -22443393.89448  19888935.977    19888943.2624
  22051765.303   -17287352.266 8 -13446288.12447  22051768.671    22051776.1284
  22615185.393   -12582209.501 8  -9546632.75546  22615190.124    22615198.8064
  21322610.635   -19227946.635 9 -14969702.93047  21322611.827    21322620.3804
  23943721.001    -4156941.292 8  -3222179.58145  23943728.083    23943739.8854
 00  8  9  1 45  0.0000000  0  6 20 22 25 03 01 19
  23073105.013    -9417006.217 8  -7323703.82946  23073109.081    23073119.0304
  19893024.452   -28814943.102 9 -22426640.63848  19893027.032    19893034.3254
  22062229.224   -17232357.813 8 -13403435.31547  22062233.570    22062241.1654
  22597340.839   -12675976.487 8  -9619697.84246  22597346.027    22597355.4954
  21311175.835   -19288028.787 9 -15016520.13347  21311178.258    21311186.7174
  23928128.137    -4238950.979 8  -3286083.12745  23928123.459    23928133.0804
 00  8  9  1 45 30.0000000  0  6 20 22 25 03 01 19
  23086805.697    -9345029.856 8  -7267618.38446  23086806.273    23086815.3114
  19897209.199   -28792963.464 9 -22409513.63348  19897209.573    19897217.0694
  22072731.841   -17177168.994 8 -13360431.07247  22072735.912    22072743.3824
  22579544.544   -12769499.691 8  -9692572.95546  22579548.949    22579558.9864
  21299817.057   -19347715.205 9 -15063028.97347  21299820.394    21299828.8584
  23912516.269    -4320944.133 8  -3349973.81845  23912520.541    23912530.1844
 00  8  9  1 46  0.0000000  0  6 20 22 25 03 01 19
  23100560.386    -9272734.281 8  -7211284.20546  23100563.861    23100572.9044
  19901480.848   -28770505.914 9 -22392014.23348  19901483.037    19901490.4714
  22083271.926   -17121786.248 8 -13317275.70846  22083275.255    22083281.7674
  22561797.886   -12862776.135 8  -9765255.80046  22561800.166    22561808.8404
  21288535.772   -19407003.477 9 -15109227.57747  21288538.916    21288547.0524
  23896914.426    -4402920.299 8  -3413851.24345  23896919.331    23896930.3714
 00  8  9  1 46 30.0000000  0  6 20 22 25 03 01 19
  23114379.807    -9200122.476 8  -7154703.61646  23114381.186    23114390.2914
  19905845.288   -28747572.405 9 -22374143.95848  19905847.204    19905854.5814
  22093849.862   -17066209.442 8 -13273969.13046  22093851.561    22093857.4704
  22544096.342   -12955803.072 8  -9837744.24446  22544097.421    22544106.6294
  21277329.345   -19465891.322 9 -15155114.15347  21277332.308    21277340.8274
  23881320.547    -4484879.037 8  -3477715.09245  23881323.253    23881333.9674
 00  8  9  1 47  0.0000000  0  6 20 22 25 03 01 19
  23128254.371    -9127197.837 8  -7097879.25946  23128258.210    23128266.6644
  19910297.654   -28724164.721 9 -22355904.19448  19910301.310    19910308.8384
  22104458.845   -17010438.490 8 -13230511.25747  22104463.638    22104470.7084
  22526441.877   -13048577.426 8  -9910035.84446  22526442.674    22526451.2374
  21266201.370   -19524376.363 9 -15200686.85047  21266202.957    21266211.0704
  23865723.896    -4566819.764 8  -3541564.91445  23865731.264    23865742.1944
 00  8  9  1 47 30.0000000  0  6 20 22 25 03 01 19
  23142186.768    -9053963.295 8  -7040813.43146  23142194.213    23142202.5864
  19914843.584   -28700284.189 9 -22337295.97948  19914845.464    19914853.0204
  22115110.533   -16954473.025 8 -13186901.82447  22115113.565    22115121.4894
  22508836.373   -13141096.103 8  -9982128.23046  22508836.953    22508845.8164
  21255146.669   -19582456.345 9 -15245943.92847  21255150.414    21255158.6524
  23850135.916    -4648742.414 8  -3605400.67645  23850141.734    23850153.0644
 00  8  9  1 48  0.0000000  0  6 20 22 25 03 01 19
  23156190.114    -8980421.622 8  -6983508.28146  23156188.498    23156197.6474
  19919477.589   -28675932.148 9 -22318320.35448  19919479.772    19919486.9754
  22125799.232   -16898313.388 8 -13143141.10147  22125800.805    22125807.8174
  22491273.209   -13233356.340 8 -10054019.24246  22491279.636    22491289.2384
  21244172.333   -19640129.218 9 -15290883.77747  21244175.651    21244183.8324
  23834548.510    -4730646.252 8  -3669221.73445  23834555.016    23834566.1954
 00  8  9  1 48 30.0000000  0  6 20 22 25 03 01 19
  23170237.490    -8906576.219 8  -6925966.43946  23170240.396    23170250.4104
  19924201.263   -28651110.424 9 -22298978.74548  19924203.174    19924210.4894
  22136519.303   -16841959.431 8 -13099228.95246  22136524.360    22136531.7124
  22473769.473   -13325355.244 8 -10125706.60946  22473773.289    22473782.3614
  21233278.220   -19697392.784 9 -15335504.68247  21233279.285    21233286.8264
  23818964.089    -4812530.753 8  -3733027.74045  23818973.330    23818984.4434
 00  8  9  1 49  0.0000000  0  6 20 22 25 03 01 19
  23184349.648    -8832430.212 8  -6868190.38546  23184350.139    23184360.0584
  19929013.503   -28625820.819 9 -22279272.55648  19929015.558    19929023.0964
  22147282.186   -16785411.302 8 -13055165.51346  22147285.523    22147292.7644
  22456314.866   -13417089.618 8 -10197187.84546  22456316.975    22456326.0564
  21222458.260   -19754244.826 9 -15379804.92547  21222460.280    21222468.2444
  23803389.534    -4894395.357 8  -3796818.25645  23803394.647    23803404.1994
 00  8  9  1 49 30.0000000  0  6 20 22 25 03 01 19
  23198512.490    -8757986.484 8  -6810182.33246  23198516.351    23198527.2004
  19933916.967   -28600065.413 9 -22259203.40248  19933916.907    19933924.2394
  22158078.732   -16728668.617 8 -13010950.46246  22158082.617    22158090.3534
  22438905.483   -13508556.585 8 -10268460.71746  22438911.467    22438920.9644
  21211718.342   -19810683.045 9 -15423782.70247  21211720.723    21211728.3634
  23787821.811    -4976239.446 8  -3860592.77545  23787820.329    23787830.9384
 00  8  9  1 50  0.0000000  0  6 20 22 25 03 01 19
  23212738.683    -8683248.247 8  -6751944.81046  23212738.722    23212748.7024
  19938902.333   -28573845.271 9 -22238772.12048  19938906.251    19938913.6864
  22168914.157   -16671731.415 8 -12966583.82746  22168918.069    22168924.7854
  22421550.964   -13599753.302 8 -10339523.00246  22421557.155    22421566.3774
  21201058.065   -19866705.330 9 -15467436.38347  21201059.775    21201067.6164
  23772253.454    -5058062.771 8  -3924351.10645  23772251.561    23772260.4424
 00  8  9  1 50 30.0000000  0  6 20 22 25 03 01 19
  23227019.523    -8608218.475 8  -6693480.10246  23227017.068    23227026.2434
  19943979.543   -28547162.010 9 -22217979.96448  19943983.711    19943991.4144
  22179788.538   -16614599.910 8 -12922065.80446  22179789.486    22179796.4124
  22404254.938   -13690676.762 8 -10410372.36146  22404254.878    22404263.9774
  21190476.317   -19922309.398 9 -15510764.18047  21190478.634    21190486.7464
  23756685.107    -5139864.717 8  -3988092.79745  23756682.284    23756694.4924
 00  8  9  1 51  0.0000000  0  6 20 22 25 03 01 19
  23241346.270    -8532900.385 8  -6634790.71546  23241349.649    23241358.5084
  19949148.529   -28520017.465 9 -22196828.36648  19949149.012    19949156.8714
  22190696.119   -16557274.301 8 -12877396.52246  22190698.354    22190706.0194
  22386999.323   -13781324.254 8 -10481006.70046  22387004.781    22387013.2384
  21179974.962   -19977493.063 9 -15553764.39047  21179977.469    21179985.7694
  23741122.218    -5221644.497 8  -4051817.21245  23741122.151    23741132.7174
 00  8  9  1 51 30.0000000  0  6 20 22 25 03 01 19
  23255732.030    -8457297.085 8  -6575879.10346  23255736.581    23255744.8074
  19954399.585   -28492413.661 9 -22175318.90348  19954402.048    19954409.6914
  22201638.623   -16499754.102 8 -12832575.62346  22201643.513    22201651.3264
  22369809.070   -13871692.557 8 -10551423.46146  22369807.997    22369817.5444
  21169555.407   -20032254.152 9 -15596435.33047  21169556.436    21169564.8814
  23725561.222    -5303401.718 8  -4115524.03745  23725564.165    23725573.7364
 00  8  9  1 52  0.0000000  0  6 20 22 25 03 01 19
  23270177.381    -8381411.421 8  -6516747.45746  23270176.662    23270185.7374
  19959740.413   -28464352.332 9 -22153452.93348  19959742.144    19959749.5884
  22212620.670   -16442039.158 8 -12787602.97546  22212626.769    22212634.7354
  22352665.585   -13961778.820 8 -10621620.45046  22352665.534    22352674.3924
  21159214.630   -20086590.473 9 -15638775.28247  21159216.770    21159225.2834
  23710010.556    -5385135.814 8  -4179212.86845  23710009.573    23710020.1224
 00  8  9  1 52 30.0000000  0  6 20 22 25 03 01 19
  23284665.496    -8305246.650 8  -6457398.34046  23284670.763    23284679.2724
  19965166.501   -28435834.830 9 -22131231.49948  19965168.691    19965176.3394
  22223645.459   -16384129.707 8 -12742478.76946  22223646.430    22223654.4364
  22335571.327   -14051580.224 8 -10691595.51146  22335576.849    22335585.1384
  21148954.961   -20140499.893 9 -15680782.57847  21148958.174    21148966.0264
  23694459.877    -5466846.122 8  -4242883.15245  23694461.156    23694471.5484
 00  8  9  1 53  0.0000000  0  6 20 22 25 03 01 19
  23299215.518    -8228806.094 8  -6397834.31446  23299217.934    23299226.3444
  19970682.349   -28406862.819 9 -22108655.90448  19970682.001    19970689.4884
  22234697.264   -16326025.671 8 -12697202.92846  22234703.411    22234710.9524
  22318541.872   -14141093.634 8 -10761346.15046  22318542.751    22318551.9964
  21138776.904   -20193980.267 9 -15722455.56847  21138780.823    21138789.2234
  23678913.257    -5548532.230 8  -4306534.52845  23678917.044    23678927.2224
 00  8  9  1 53 30.0000000  0  6 20 22 25 03 01 19
  23313812.012    -8152092.781 8  -6338057.75846  23313815.040    23313824.4274
  19976278.497   -28377438.212 9 -22085727.63448  19976281.072    19976288.7474
  22245796.422   -16267726.983 8 -12651775.40746  22245797.636    22245804.6164
  22301562.739   -14230316.503 8 -10830870.36846  22301564.462    22301573.6394
  21128682.588   -20247029.512 9 -15763792.59747  21128685.658    21128694.1434
  23663375.148    -5630193.412 8  -4370166.53345  23663376.342    23663387.7904
 00  8  9  1 54  0.0000000  0  6 20 22 25 03 01 19
  23328462.703    -8075109.872 8  -6278071.14345  23328463.425    23328474.1304
  19981963.164   -28347563.142 9 -22062448.35348  19981966.060    19981973.8404
  22256923.785   -16209233.858 8 -12606196.37246  22256928.151    22256936.0384
  22284637.485   -14319245.869 8 -10900165.89346  22284641.505    22284650.9194
  21118671.360   -20299645.464 9 -15804791.99947  21118673.787    21118681.5864
  23647839.025    -5711829.213 8  -4433778.73545  23647841.507    23647852.4924
 00  8  9  1 54 30.0000000  0  6 20 22 25 03 01 19
  23343163.664    -7997860.277 8  -6217876.71845  23343163.444    23343173.3774
  19987734.254   -28317239.295 9 -22038819.37848  19987736.579    19987744.0874
  22268093.983   -16150545.809 8 -12560465.45046  22268096.024    22268103.0834
  22267777.121   -14407878.790 8 -10969230.41946  22267774.770    22267784.4064
  21108741.467   -20351825.880 9 -15845452.03347  21108744.289    21108752.1984
  23632306.150    -5793438.956 8  -4497370.64145  23632312.073    23632322.5064
 00  8  9  1 55  0.0000000  0  6 20 22 25 03 01 19
  23357913.681    -7920347.138 8  -6157476.92345  23357913.878    23357923.5434
  19993591.688   -28286467.959 9 -22014841.70948  19993592.443    19993599.5304
  22279296.534   -16091663.053 8 -12514582.80846  22279301.178    22279308.4094
  22250958.301   -14496212.082 8 -11038061.46346  22250965.497    22250974.6704
  21098896.434   -20403568.620 9 -15885771.01547  21098898.268    21098905.7124
  23616786.461    -5875022.113 8  -4560941.82045  23616786.915    23616797.4934
 00  8  9  1 55 30.0000000  0  6 20 22 25 03 01 19
  23372710.753    -7842573.874 8  -6096874.46445  23372714.542    23372723.6534
  19999531.535   -28255250.858 9 -21990516.69948  19999532.991    19999540.2294
  22290541.609   -16032585.470 8 -12468548.36546  22290543.295    22290551.0494
  22234208.258   -14584243.285 8 -11106657.13946  22234214.967    22234222.4534
  21089131.219   -20454871.588 9 -15925747.31447  21089135.229    21089143.2254
  23601265.123    -5956578.280 8  -4624491.96945  23601267.856    23601277.4564
 00  8  9  1 56  0.0000000  0  6 20 22 25 03 01 19
  23387561.839    -7764543.503 8  -6036071.62146  23387563.438    23387573.2394
  20005556.510   -28223590.190 9 -21965846.04748  20005557.772    20005565.0024
  22301820.140   -15973313.194 8 -12422362.20746  22301822.255    22301830.6144
  22217522.041   -14671969.149 8 -11175014.89046  22217520.795    22217528.2234
  21079454.097   -20505732.753 9 -15965379.35247  21079456.664    21079464.2394
  23585747.971    -6038106.738 8  -4688020.52445  23585753.358    23585764.3674
 00  8  9  1 56 30.0000000  0  6 20 22 25 03 01 19
  23402462.327    -7686259.113 8  -5975070.85745  23402460.034    23402468.8014
  20011666.209   -28191487.993 9 -21940831.34348  20011666.617    20011673.7634
  22313137.458   -15913846.159 8 -12376024.30146  22313138.833    22313147.2614
  22200885.519   -14759386.814 8 -11243132.48646  22200885.020    22200893.6894
  21069860.028   -20556149.859 9 -16004665.36547  21069862.384    21069870.5024
  23570232.839    -6119607.018 8  -4751527.15445  23570244.023    23570254.3554
 00  8  9  1 57  0.0000000  0  6 20 22 25 03 01 19
  23417399.532    -7607723.974 8  -5913874.69845  23417404.492    23417414.4444
  20017857.527   -28158945.733 9 -21915473.73048  20017859.058    20017866.2234
  22324490.609   -15854184.207 8 -12329534.51246  22324492.293    22324499.8404
  22184303.992   -14846493.479 8 -11311007.73446  22184308.805    22184318.1694
  21060351.138   -20606120.887 9 -16043603.79347  21060353.078    21060361.3514
  23554735.106    -6201078.465 8  -4815011.31745  23554740.488    23554750.4504
 00  8  9  1 57 30.0000000  0  6 20 22 25 03 01 19
  23432394.979    -7528941.234 8  -5852485.61045  23432397.162    23432406.0664
  20024135.114   -28125965.030 9 -21889774.48148  20024135.137    20024142.1234
  22335880.150   -15794327.455 8 -12282892.93146  22335882.419    22335890.1564
  22167791.484   -14933286.309 8 -11378638.42446  22167792.363    22167801.4814
  21050926.756   -20655643.859 9 -16082193.07747  21050929.065    21050937.7104
  23539239.623    -6282520.564 8  -4878472.55645  23539243.037    23539252.6224
 00  8  9  1 58  0.0000000  0  6 20 22 25 03 01 19
  23447434.718    -7449913.990 8  -5790906.01646  23447435.208    23447445.4194
  20030491.592   -28092547.715 9 -21863735.01048  20030493.898    20030501.4884
  22347305.962   -15734276.093 8 -12236099.69146  22347310.201    22347317.5744
  22151331.781   -15019762.604 8 -11446022.48946  22151337.387    22151346.4754
  21041586.608   -20704716.600 9 -16120431.53347  21041590.730    21041599.1194
  23523745.647    -6363932.422 8  -4941910.27645  23523750.329    23523760.2504
 00  8  9  1 58 30.0000000  0  6 20 22 25 03 01 19
  23462516.907    -7370645.173 8  -5729138.17346  23462519.984    23462529.2714
  20036933.902   -28058695.972 9 -21837357.02748  20036935.817    20036943.2404
  22358773.974   -15674030.156 8 -12189154.83246  22358774.129    22358782.4864
  22134937.117   -15105919.291 8 -11513157.50546  22134942.585    22134951.2854
  21032335.976   -20753337.048 9 -16158317.56047  21032338.974    21032346.7274
  23508261.575    -6445313.344 8  -5005323.90545  23508263.934    23508273.6054
 00  8  9  1 59  0.0000000  0  7 20 22 25 03 31 01 19
  23477649.674    -7291138.071 8  -5667184.64245  23477649.898    23477659.4164
  20043457.377   -28024411.817 9 -21810642.09448  20043460.107    20043467.1424
  22370271.881   -15613589.291 8 -12142058.09346  22370275.978    22370283.5564
  22118606.868   -15191753.559 8 -11580041.28146  22118608.673    22118617.4204
  24651534.808    -3850250.01617  -2972013.55454  24651543.213    24651553.1154
  21023169.690   -20801503.036 9 -16195849.45347  21023173.150    21023180.8954
  23492778.782    -6526662.673 8  -5068712.90245  23492783.361    23492793.5544
 00  8  9  1 59 30.0000000  0  7 20 22 25 03 31 01 19
  23492825.905    -7211396.158 8  -5605048.14545  23492823.479    23492833.5774
  20050064.819   -27989696.695 9 -21783591.34748  20050066.122    20050073.4584
  22381812.467   -15552953.488 8 -12094809.46246  22381814.802    22381822.4154
  22102332.528   -15277262.667 8 -11646671.67846  22102335.444    22102344.7514
  24629251.369    -3967358.423 7  -3063266.59244  24629258.328    24629269.1334
  21014090.858   -20849212.709 9 -16233025.78347  21014094.043    21014102.1254
  23477306.771    -6607979.709 8  -5132076.73445  23477309.512    23477319.5344
 00  8  9  2  0  0.0000000  0  7 20 22 25 03 31 01 19
  23508037.998    -7131422.336 8  -5542730.92245  23508042.558    23508052.4744
  20056751.831   -27954552.286 9 -21756206.09148  20056753.802    20056761.0654
  22393387.077   -15492122.883 8 -12047409.02146  22393390.583    22393398.1744
  22086121.949   -15362443.816 8 -11713046.53446  22086126.970    22086135.6684
  24606979.189    -4084501.033 7  -3154546.29944  24606966.430    24606975.5874
  21005099.751   -20896464.130 9 -16269845.03047  21005102.486    21005110.4564
  23461840.675    -6689264.179 8  -5195415.20645  23461840.774    23461851.0514
 00  8  9  2  0 30.0000000  0  7 20 22 25 03 31 01 19
  23523297.690    -7051219.840 8  -5480235.53445  23523305.327    23523314.0364
  20063519.987   -27918980.543 9 -21728487.84248  20063522.730    20063530.2104
  22404996.889   -15431097.447 8 -11999856.76646  22405003.035    22405010.7894
  22069975.272   -15447294.007 8 -11779163.50046  22069980.744    22069988.8694
  24584670.631    -4201675.143 7  -3245850.52945  24584669.903    24584678.5374
  20996197.850   -20943255.216 9 -16306305.57047  20996198.577    20996206.3494
  23446372.307    -6770515.224 8  -5258727.62345  23446378.986    23446390.0044
 00  8  9  2  1  0.0000000  0  7 20 22 25 03 31 01 19
  23538609.970    -6970791.762 8  -5417564.37245  23538609.378    23538619.2664
  20070371.087   -27882983.653 9 -21700438.31848  20070372.755    20070380.1664
  22416649.834   -15369877.310 8 -11952152.80546  22416652.586    22416660.8494
  22053897.691   -15531810.487 8 -11845020.43146  22053897.696    22053905.7324
  24562362.049    -4318877.956 7  -3337177.17745  24562366.173    24562375.5514
  20987380.603   -20989583.905 9 -16342405.80247  20987382.507    20987390.5364
  23430922.195    -6851732.234 8  -5322013.54645  23430922.933    23430936.4554
 00  8  9  2  1 30.0000000  0  7 20 22 25 03 31 01 19
  23553952.201    -6890141.268 8  -5354719.88545  23553956.825    23553966.3214
  20077301.458   -27846563.637 9 -21672059.07848  20077303.072    20077310.4414
  22428336.584   -15308462.118 8 -11904296.86746  22428340.034    22428347.8424
  22037876.562   -15615990.367 8 -11910615.08946  22037878.345    22037886.4504
  24540063.991    -4436107.063 8  -3428524.28645  24540057.557    24540067.9594
  20978651.670   -21035448.183 9 -16378144.16247  20978654.897    20978662.7864
  23415474.049    -6932914.196 8  -5385272.12045  23415475.972    23415486.9154
 00  8  9  2  2  0.0000000  0  7 20 22 25 03 31 01 19
  23569340.901    -6809271.677 8  -5291704.67945  23569345.933    23569355.9424
  20084312.521   -27809721.844 9 -21643351.18148  20084313.956    20084321.5894
  22440061.183   -15246851.963 8 -11856288.99446  22440064.339    22440071.4034
  22021919.332   -15699830.965 8 -11975945.36146  22021924.086    22021932.1884
  24517747.291    -4553359.495 7  -3519889.57645  24517744.121    24517755.7574
  20970012.461   -21080845.998 9 -16413519.04447  20970015.866    20970023.8924
  23400036.560    -7014060.668 8  -5448503.03545  23400034.377    23400045.5074
 00  8  9  2  2 30.0000000  0  7 20 22 25 03 31 01 19
  23584776.748    -6728185.945 8  -5228521.04845  23584776.566    23584786.6704
  20091403.539   -27772460.152 9 -21614316.09348  20091404.924    20091412.2534
  22451823.957   -15185047.135 8 -11808129.42046  22451825.535    22451832.9144
  22006034.909   -15783329.650 8 -12041009.21346  22006035.093    22006042.9274
  24495425.504    -4670632.690 7  -3611271.07545  24495429.596    24495439.2574
  20961464.168   -21125775.517 9 -16448529.02247  20961466.128    20961473.9944
  23384597.868    -7095171.332 8  -5511706.07045  23384599.184    23384609.8524
 00  8  9  2  3  0.0000000  0  7 20 22 25 03 31 01 19
  23600240.449    -6646887.444 8  -5165171.59345  23600246.694    23600256.6424
  20098574.391   -27734780.638 9 -21584955.42148  20098575.134    20098582.2924
  22463621.431   -15123047.675 8 -11759818.19546  22463623.253    22463630.8564
  21990205.525   -15866483.352 8 -12105804.23746  21990210.906    21990219.4064
  24473108.840    -4787924.224 7  -3702666.83445  24473108.015    24473120.0014
  20953001.559   -21170234.780 9 -16483172.56647  20953005.264    20953013.6414
  23369169.974    -7176245.266 8  -5574880.48746  23369172.075    23369180.8244
 00  8  9  2  3 30.0000000  0  7 20 22 25 03 31 01 19
  23615759.344    -6565379.305 8  -5101658.81345  23615757.082    23615766.4204
  20105823.026   -27696685.395 9 -21555270.81248  20105824.383    20105831.6194
  22475457.694   -15060853.306 8 -11711355.08346  22475458.735    22475466.4264
  21974452.062   -15949289.407 8 -12170328.37446  21974453.446    21974461.9694
  24450779.892    -4905231.084 8  -3794074.54445  24450785.985    24450797.5924
  20944631.510   -21214221.847 9 -16517448.17047  20944634.796    20944643.1414
  23353747.074    -7257281.582 8  -5638025.61146  23353751.571    23353760.7864
 00  8  9  2  4  0.0000000  0  7 20 22 25 03 31 01 19
  23631303.117    -6483664.595 8  -5037985.05945  23631305.788    23631316.5494
  20113149.756   -27658176.392 9 -21525263.79148  20113152.020    20113159.3884
  22487327.114   -14998463.879 8 -11662739.98446  22487330.616    22487338.2504
  21958759.513   -16031744.866 8 -12234579.31746  21958762.940    21958771.4374
  24428456.948    -5022550.453 8  -3885492.04645  24428460.525    24428470.5374
  20936352.835   -21257734.686 9 -16551354.23947  20936354.556    20936362.9924
  23338336.718    -7338279.679 8  -5701140.88445  23338336.746    23338347.5734
 00  8  9  2  4 30.0000000  0  7 20 22 25 03 31 01 19
  23646895.427    -6401746.548 8  -4974152.88045  23646895.960    23646904.5654
  20120555.677   -27619255.084 9 -21494935.49348  20120558.395    20120565.9114
  22499239.779   -14935879.715 8 -11613973.12646  22499239.916    22499247.6034
  21943138.482   -16113847.094 8 -12298555.00546  21943139.033    21943147.8634
  24406129.648    -5139879.790 8  -3976917.31245  24406133.166    24406143.1394
  20928162.098   -21300771.437 9 -16584889.33047  20928164.528    20928172.9384
  23322919.758    -7419239.020 8  -5764225.99145  23322931.407    23322941.4144
 00  8  9  2  5  0.0000000  0  7 20 22 25 03 31 01 19
  23662517.624    -6319628.448 8  -4910164.79945  23662522.369    23662532.2104
  20128042.270   -27579923.392 9 -21464287.41748  20128043.054    20128050.7204
  22511179.092   -14873100.807 8 -11565054.52746  22511186.000    22511194.9234
  21927579.418   -16195593.370 8 -12362253.33647  21927583.516    21927591.6624
  24383798.623    -5257216.476 7  -4068348.29045  24383804.537    24383815.5894
  20920063.762   -21343330.048 9 -16618051.85947  20920066.619    20920074.3964
  23307529.774    -7500158.712 8  -5827280.22945  23307533.122    23307541.9234
 00  8  9  2  5 30.0000000  0  7 20 22 25 03 31 01 19
  23678187.296    -6237313.266 8  -4846023.15945  23678185.881    23678195.8064
  20135602.541   -27540183.352 9 -21433321.15948  20135605.125    20135613.0004
  22523166.280   -14810127.472 8 -11515984.44746  22523170.259    22523178.5304
  21912093.315   -16276980.787 8 -12425672.04947  21912096.256    21912104.3414
  24361459.238    -5374557.553 7  -4159782.72045  24361474.966    24361483.8914
  20912057.053   -21385408.803 9 -16650840.46547  20912059.411    20912066.9654
  23292132.999    -7581037.940 8  -5890302.94245  23292141.332    23292151.8494
 00  8  9  2  6  0.0000000  0  7 20 22 25 03 31 01 19
  23693884.874    -6154804.506 8  -4781730.68645  23693887.976    23693897.4614
  20143243.654   -27500037.370 9 -21402038.57148  20143245.014    20143252.4764
  22535185.578   -14746959.257 8 -11466762.50946  22535190.239    22535198.9164
  21896674.619   -16358006.720 8 -12488809.08647  21896677.141    21896685.3994
  24339146.854    -5491900.266 7  -4251218.36645  24339144.722    24339155.1044
  20904141.072   -21427005.651 9 -16683253.56547  20904143.554    20904151.5914
  23276752.889    -7661875.899 8  -5953293.44646  23276758.315    23276768.6994
 00  8  9  2  6 30.0000000  0  7 20 22 25 03 31 01 19
  23709620.800    -6072105.064 8  -4717289.56545  23709624.477    23709633.9954
  20150958.882   -27459487.093 9 -21370440.94848  20150961.444    20150969.1604
  22547244.517   -14683596.284 8 -11417388.81646  22547248.023    22547256.2884
  21881324.428   -16438668.333 8 -12551662.22747  21881327.277    21881335.9674
  24316815.735    -5609242.056 7  -4342653.33745  24316816.534    24316825.5324
  20896317.227   -21468118.808 9 -16715289.75747  20896319.468    20896327.7614
  23261385.694    -7742671.816 8  -6016251.21446  23261385.564    23261393.8064
 00  8  9  2  7  0.0000000  0  7 20 22 25 03 31 01 19
  23725397.531    -5989218.126 8  -4652702.39645  23725397.400    23725407.2504
  20158752.729   -27418534.071 9 -21338529.50348  20158754.479    20158762.2034
  22559337.466   -14620038.455 8 -11367863.27546  22559342.960    22559350.7514
  21866042.092   -16518963.149 8 -12614229.54346  21866047.874    21866055.8824
  24294475.546    -5726579.878 7  -4434085.26945  24294487.380    24294497.3314
  20888584.626   -21508746.468 9 -16746947.64747  20888588.072    20888596.6344
  23246016.062    -7823425.136 8  -6079175.78646  23246016.948    23246025.0614
 00  8  9  2  7 30.0000000  0  7 20 22 25 03 31 01 19
  23741196.524    -5906147.104 8  -4587971.78345  23741204.547    23741214.0144
  20166622.230   -27377180.285 9 -21306305.77348  20166623.917    20166631.3764
  22571472.798   -14556285.549 8 -11318185.72446  22571474.543    22571482.4374
  21850837.834   -16598888.406 8 -12676508.91847  21850838.893    21850846.6874
  24272162.223    -5843911.303 7  -4525512.19745  24272159.647    24272169.5214
  20880945.883   -21548886.613 9 -16778225.65047  20880949.911    20880958.1124
  23230658.917    -7904135.319 8  -6142066.75345  23230657.734    23230667.4624
 00  8  9  2  8  0.0000000  0  7 20 22 25 03 31 01 19
  23757041.280    -5822895.065 8  -4523100.13845  23757047.330    23757057.2594
  20174564.611   -27335428.010 9 -21273771.53048  20174569.377    20174576.5514
  22583643.914   -14492338.094 8 -11268356.58046  22583643.194    22583650.8074
  21835697.808   -16678441.233 8 -12738498.10147  21835700.496    21835708.6354
  24249836.714    -5961233.543 7  -4616931.95845  24249832.287    24249843.5554
  20873400.431   -21588537.530 9 -16809122.44247  20873404.599    20873412.7864
  23215301.765    -7984801.171 8  -6204923.16846  23215308.548    23215318.2804
 00  8  9  2  8 30.0000000  0  7 20 22 25 03 31 01 19
  23772922.381    -5739464.998 8  -4458089.76445  23772924.109    23772933.5064
  20182589.312   -27293279.420 9 -21240928.47248  20182589.721    20182597.1814
  22595845.448   -14428196.241 8 -11218375.95446  22595849.329    22595856.5984
  21820632.804   -16757618.897 8 -12800194.92847  21820633.785    21820641.9494
  24227508.337    -6078543.801 7  -4708342.34345  24227510.102    24227518.8554
  20865951.993   -21627697.470 9 -16839636.65847  20865952.939    20865960.7754
  23199965.426    -8065422.150 8  -6267744.60246  23199967.310    23199976.0904
 00  8  9  2  9  0.0000000  0  7 20 22 25 03 31 01 19
  23788833.002    -5655860.285 8  -4392943.29045  23788833.217    23788843.1754
  20190683.359   -27250736.130 9 -21207777.85448  20190685.459    20190692.9164
  22608088.238   -14363859.660 8 -11168243.60246  22608092.216    22608099.8294
  21805632.557   -16836419.063 8 -12861597.61947  21805638.407    21805646.2354
  24205191.049    -6195839.186 7  -4799741.17345  24205187.584    24205200.0584
  20858592.046   -21666364.587 9 -16869766.84347  20858594.735    20858602.4084
  23184628.411    -8145997.531 8  -6330530.52846  23184632.679    23184641.1974
 00  8  9  2  9 30.0000000  0  7 20 22 25 03 31 01 19
  23804777.640    -5572084.073 8  -4327663.15145  23804775.408    23804784.5764
  20198853.739   -27207799.822 9 -21174320.99048  20198855.629    20198863.5294
  22620370.318   -14299328.643 8 -11117959.73946  22620372.392    22620379.7474
  21790710.616   -16914838.762 8 -12922703.81547  21790714.718    21790723.9164
  24182862.554    -6313116.829 7  -4891126.15645  24182871.891    24182881.7434
  20851327.509   -21704537.001 9 -16899511.55347  20851331.057    20851338.5054
  23169306.689    -8226526.601 8  -6393280.35345  23169308.209    23169316.6014
 00  8  9  2 10  0.0000000  0  7 20 22 25 03 31 01 19
  23820744.427    -5488139.274 8  -4262251.66745  23820749.622    23820760.7274
  20207099.257   -27164472.499 9 -21140559.44248  20207100.559    20207108.1254
  22632685.210   -14234603.175 8 -11067524.35446  22632687.988    22632697.0024
  21775862.818   -16992875.247 8 -12983511.40847  21775865.543    21775872.8764
  24160558.684    -6430374.226 7  -4982495.44345  24160558.296    24160568.3164
  20844158.731   -21742213.025 9 -16928869.46647  20844160.999    20844168.7504
  23153994.367    -8307008.370 8  -6455993.33746  23153994.055    23154003.8114
 00  8  9  2 10 30.0000000  0  7 20 22 25 03 31 01 19
  23836753.302    -5404029.410 8  -4196711.59945  23836755.395    23836764.5544
  20215418.400   -27120756.547 9 -21106495.05648  20215419.652    20215427.1144
  22645038.513   -14169683.324 8 -11016937.51846  22645042.699    22645051.0674
  21761089.720   -17070525.910 8 -13044018.37147  21761088.721    21761096.9324
  24138242.719    -6547608.511 7  -5073846.71145  24138248.240    24138258.5544
  20837083.728   -21779390.837 9 -16957839.15547  20837086.291    20837094.1524
  23138686.264    -8387441.953 8  -6518668.74946  23138687.450    23138698.3174
 00  8  9  2 11  0.0000000  0  7 20 22 25 03 31 01 19
  23852788.683    -5319757.640 8  -4131045.33245  23852791.870    23852801.1294
  20223809.105   -27076654.049 9 -21072129.47748  20223812.023    20223819.3444
  22657429.579   -14104568.610 8 -10966198.84146  22657433.682    22657441.2804
  21746385.872   -17147788.067 8 -13104222.59947  21746386.761    21746394.1944
  24115942.469    -6664816.820 7  -5165177.70245  24115944.904    24115955.5364
  20830106.598   -21816068.819 9 -16986419.36847  20830107.188    20830114.5944
  23123391.375    -8467826.586 8  -6581306.00446  23123391.075    23123400.4404
 00  8  9  2 11 30.0000000  0  7 20 22 25 03 31 01 19
  23868853.028    -5235326.959 8  -4065255.27145  23868857.848    23868867.4404
  20232275.947   -27032166.578 9 -21037463.91448  20232278.001    20232285.1354
  22669855.089   -14039259.755 8 -10915308.87246  22669860.918    22669870.1284
  21731755.155   -17224659.225 8 -13164122.16847  21731758.453    21731766.0024
  24093652.633    -6781996.410 7  -5256486.33345  24093645.474    24093658.2604
  20823220.660   -21852245.147 9 -17014608.68648  20823223.017    20823230.6894
  23108098.709    -8548161.554 8  -6643904.60646  23108103.890    23108113.3474
 00  8  9  2 12  0.0000000  0  7 20 22 25 03 31 01 19
  23884955.583    -5150740.719 8  -3999343.96545  23884955.172    23884964.1254
  20240814.933   -26987295.913 9 -21002499.75348  20240816.398    20240823.7494
  22682328.135   -13973756.802 8 -10864267.68146  22682326.134    22682334.7364
  21717201.624   -17301136.668 9 -13223714.93047  21717205.579    21717212.9774
  24071359.770    -6899144.535 7  -5347770.44445  24071353.861    24071364.9434
  20816432.508   -21887917.977 9 -17042405.66348  20816434.536    20816442.2634
  23092823.647    -8628446.265 8  -6706464.02646  23092825.865    23092836.0174
 00  8  9  2 12 30.0000000  0  7 20 22 25 03 31 01 19
  23901076.843    -5066002.047 8  -3933313.89645  23901079.222    23901091.4434
  20249424.814   -26942044.133 9 -20967238.62648  20249427.645    20249434.9484
  22694826.343   -13908059.614 8 -10813075.13246  22694829.092    22694836.2464
  21702726.838   -17377217.811 8 -13282998.89647  21702727.593    21702735.4874
  24049068.738    -7016258.081 8  -5439027.63745  24049069.305    24049077.8234
  20809739.600   -21923085.569 9 -17069808.95547  20809742.213    20809750.0124
  23077554.612    -8708679.818 8  -6768983.52946  23077556.750    23077568.0444
 00  8  9  2 13  0.0000000  0  7 20 22 25 03 31 01 19
  23917230.804    -4981114.072 8  -3867167.47945  23917232.851    23917243.6284
  20258109.124   -26896413.753 9 -20931682.48448  20258111.043    20258118.0244
  22707363.542   -13842168.070 8 -10761731.13346  22707367.100    22707374.6924
  21688323.264   -17452899.964 8 -13341971.94747  21688325.666    21688333.3524
  24026789.692    -7133334.650 8  -5530256.03445  24026788.966    24026799.3534
  20803144.514   -21957746.374 9 -17096817.34247  20803146.555    20803154.2094
  23062296.466    -8788861.037 8  -6831462.27246  23062300.009    23062308.8144
 00  8  9  2 13 30.0000000  0  7 20 22 25 03 31 01 19
  23933409.779    -4896079.870 8  -3800907.14945  23933415.006    23933425.3644
  20266864.384   -26850406.569 9 -20895832.72948  20266865.519    20266872.9494
  22719932.722   -13776082.543 8 -10710235.96346  22719942.675    22719950.9594
  21674000.630   -17528180.378 8 -13400631.96347  21674000.236    21674008.7274
  24004525.922    -7250371.562 7  -5621453.50545  24004517.399    24004528.1104
  20796644.164   -21991898.830 9 -17123429.61748  20796647.837    20796655.1964
  23047051.756    -8868989.084 8  -6893899.63746  23047051.558    23047060.3464
 00  8  9  2 14  0.0000000  0  7 20 22 25 03 31 01 19
  23949622.714    -4810902.747 8  -3734535.41245  23949623.593    23949633.2794
  20275689.299   -26804024.286 9 -20859690.68948  20275691.498    20275699.1104
  22732551.667   -13709802.997 8 -10658589.61446  22732555.714    22732562.5874
  21659746.823   -17603056.808 8 -13458977.15547  21659751.172    21659759.7634
  23982253.609    -7367365.850 8  -5712617.76245  23982253.282    23982265.4444
  20790243.641   -22025541.067 9 -17149644.31348  20790245.955    20790253.1224
  23031808.742    -8949063.193 8  -6956294.93446  23031813.922    23031823.7784
 00  8  9  2 14 30.0000000  0  7 20 22 25 03 31 01 19
  23965850.795    -4725585.833 8  -3668054.73745  23965859.421    23965869.2064
  20284587.067   -26757268.632 9 -20823257.72048  20284589.114    20284596.4904
  22745201.403   -13643329.568 8 -10606792.18446  22745205.171    22745212.7004
  21645578.896   -17677526.505 8 -13517005.44747  21645580.346    21645588.0104
  23959998.138    -7484314.474 8  -5803746.44945  23959999.757    23960009.3244
  20783938.254   -22058671.490 9 -17175460.19648  20783941.023    20783948.9084
  23016585.294    -9029082.612 8  -7018647.60546  23016587.153    23016596.4954
 00  8  9  2 15  0.0000000  0  7 20 22 25 03 31 01 19
  23982116.529    -4640132.321 8  -3601467.66145  23982120.502    23982130.1974
  20293555.654   -26710141.891 9 -20786535.57848  20293557.249    20293564.2834
  22757884.492   -13576662.163 8 -10554843.61246  22757891.727    22757899.4064
  21631482.862   -17751586.970 8 -13574714.84647  21631487.295    21631494.6244
  23937758.167    -7601214.730 8  -5894837.47045  23937753.723    23937764.6014
  20777730.728   -22091288.609 9 -17200876.11048  20777734.217    20777741.7594
  23001365.012    -9109046.500 8  -7080957.00146  23001370.159    23001379.9264
 00  8  9  2 15 30.0000000  0  7 20 22 25 03 31 01 19
  23998403.931    -4554545.327 8  -3534776.56645  23998406.276    23998418.1984
  20302593.182   -26662646.415 9 -20749526.11548  20302595.318    20302602.5514
  22770613.516   -13509800.692 8 -10502743.82946  22770614.905    22770622.4304
  21617470.620   -17825235.766 8 -13632103.47247  21617471.700    21617479.5884
  23915517.654    -7718063.792 8  -5985888.57245  23915517.373    23915528.4524
  20771624.714   -22123390.605 9 -17225890.62148  20771625.449    20771632.9754
  22986159.758    -9188953.810 8  -7143222.31546  22986162.972    22986172.1604
 00  8  9  2 16  0.0000000  0  7 20 22 25 03 31 01 19
  24014717.597    -4468827.993 8  -3467983.91045  24014718.441    24014728.5134
  20311700.993   -26614784.100 9 -20712230.80448  20311703.275    20311710.5824
  22783371.514   -13442745.627 8 -10450493.18346  22783375.178    22783382.7344
  21603532.177   -17898470.133 8 -13689169.16047  21603535.717    21603544.1624
  23893295.799    -7834858.714 7  -6076897.51945  23893293.328    23893302.7394
  20765612.696   -22154976.030 9 -17250502.61148  20765614.730    20765622.2724
  22970961.761    -9268803.946 8  -7205443.06746  22970968.193    22970977.8054
 00  8  9  2 16 30.0000000  0  7 20 22 25 03 31 01 19
  24031057.060    -4382983.652 8  -3401092.27745  24031054.607    24031064.7284
  20320880.065   -26566556.514 9 -20674650.87048  20320880.782    20320888.1124
  22796170.995   -13375497.254 8 -10398091.91446  22796171.717    22796180.0244
  21589673.198   -17971287.587 8 -13745909.98647  21589679.210    21589686.9464
  23871064.742    -7951596.515 7  -6167861.91445  23871077.791    23871088.5104
  20759699.332   -22186043.199 9 -17274710.77348  20759702.769    20759710.6794
  22955783.960    -9348595.737 8  -7267618.37646  22955785.018    22955794.4114
 00  8  9  2 17  0.0000000  0  7 20 22 25 03 31 01 19
  24047410.111    -4297015.305 8  -3334104.03545  24047413.949    24047424.7064
  20330124.607   -26517965.578 9 -20636787.80248  20330127.188    20330134.3294
  22808999.903   -13308055.218 8 -10345539.75446  22809005.900    22809013.9384
  21575898.059   -18043685.501 8 -13802323.89347  21575902.281    21575910.3074
  23848864.979    -8068274.716 8  -6258779.89745  23848876.190    23848885.0294
  20753887.079   -22216590.530 9 -17298513.86348  20753890.067    20753897.3584
  22940606.738    -9428328.484 8  -7329747.65846  22940611.526    22940621.3514
 00  8  9  2 17 30.0000000  0  7 20 22 25 03 31 01 19
  24063789.430    -4210926.012 8  -3267021.53145  24063794.858    24063805.3354
  20339442.190   -26469013.628 9 -20598643.42748  20339441.909    20339449.8684
  22821871.494   -13240419.629 8 -10292836.75746  22821876.700    22821884.7434
  21562203.576   -18115661.413 8 -13858408.96547  21562204.952    21562213.4194
  23826682.978    -8184890.288 7  -6349649.07945  23826683.119    23826695.4984
  20748173.290   -22246616.525 9 -17321910.71248  20748176.380    20748183.7834
  22925447.481    -9508000.998 8  -7391830.01846  22925450.739    22925458.3104
 00  8  9  2 18  0.0000000  0  7 20 22 25 03 31 01 19
  24080191.501    -4124718.961 8  -3199847.26045  24080200.785    24080211.5334
  20348825.150   -26419703.010 9 -20560219.56948  20348825.541    20348833.3574
  22834783.292   -13172590.292 8 -10239982.77346  22834784.485    22834791.8124
  21548587.342   -18187212.826 8 -13914163.25047  21548589.489    21548598.0344
  23804497.835    -8301440.230 7  -6440467.06545  23804504.463    23804515.9684
  20742559.974   -22276119.733 9 -17344900.20148  20742561.977    20742569.3074
  22910300.359    -9587612.627 8  -7453864.95646  22910300.834    22910310.2974
 00  8  9  2 18 30.0000000  0  7 20 22 25 03 31 01 19
  24096626.730    -4038397.376 8  -3132583.75545  24096628.120    24096637.0094
  20358274.972   -26370035.429 9 -20521517.56548  20358277.235    20358284.5364
  22847724.132   -13104568.015 8 -10186978.45046  22847728.008    22847736.8244
  21535053.510   -18258337.656 8 -13969585.12747  21535055.167    21535062.9884
  23782339.195    -8417921.948 7  -6531231.90145  23782338.378    23782349.8224
  20737045.097   -22305098.558 9 -17367481.08248  20737047.349    20737055.0954
  22895162.228    -9667162.402 8  -7515851.66946  22895164.133    22895173.3884
 00  8  9  2 19  0.0000000  0  7 20 22 25 03 31 01 19
  24113073.842    -3951964.385 8  -3065233.44545  24113075.647    24113084.8904
  20367792.284   -26320012.514 9 -20482538.67548  20367796.261    20367803.4194
  22860706.068   -13036352.200 8 -10133823.31846  22860709.440    22860717.8404
  21521598.112   -18329033.315 8 -14024672.61147  21521601.978    21521610.0034
  23760175.828    -8534332.607 7  -6621941.37545  23760185.913    23760198.2134
  20731629.266   -22333551.453 9 -17389652.14448  20731632.896    20731640.6274
  22880033.114    -9746649.431 8  -7577789.46346  22880037.713    22880047.8584
 00  8  9  2 19 30.0000000  0  7 20 22 25 03 31 01 19
  24129540.673    -3865423.417 8  -2997798.99545  24129544.167    24129553.6414
  20377382.488   -26269636.293 9 -20443284.48148  20377383.196    20377389.6084
  22873725.271   -12967943.338 8 -10080517.76546  22873727.273    22873735.2724
  21508230.647   -18399297.155 9 -14079423.61247  21508231.918    21508239.1314
  23738052.463    -8650669.216 8  -6712593.19045  23738048.027    23738058.9214
  20726316.808   -22361477.027 9 -17411412.30648  20726319.167    20726326.4934
  22864922.901    -9826073.046 8  -7639677.87846  22864923.411    22864933.5094
 00  8  9  2 20  0.0000000  0  7 20 22 25 03 31 01 19
  24146035.071    -3778777.238 8  -2930282.54545  24146032.299    24146041.6284
  20387033.850   -26218909.095 9 -20403756.79048  20387036.379    20387043.0424
  22886781.102   -12899341.484 8 -10027061.82846  22886781.717    22886790.4854
  21494944.310   -18469126.904 9 -14133836.35347  21494943.902    21494950.9344
  23715916.974    -8766928.798 8  -6803184.95445  23715924.582    23715935.3624
  20721102.092   -22388873.858 9 -17432760.46448  20721105.411    20721113.0954
  22849815.351    -9905432.085 8  -7701515.99546  22849821.351    22849830.6184
 00  8  9  2 20 30.0000000  0  7 20 22 25 03 31 01 19
  24162533.667    -3692028.927 8  -2862686.53645  24162539.193    24162548.7474
  20396753.166   -26167833.249 9 -20363957.43448  20396755.310    20396762.2714
  22899873.671   -12830546.896 8  -9973455.71346  22899873.108    22899881.1554
  21481734.284   -18538519.976 9 -14187908.82247  21481738.507    21481746.4014
  23693816.301    -8883108.761 8  -6893714.72345  23693816.760    23693827.1624
  20715989.567   -22415740.326 9 -17453695.35448  20715992.758    20716000.4824
  22834730.481    -9984725.475 8  -7763302.97046  22834732.626    22834742.7854
 00  8  9  2 21  0.0000000  0  7 20 22 25 03 31 01 19
  24179062.537    -3605181.899 7  -2795013.59545  24179064.782    24179075.3824
  20406537.380   -26116410.341 9 -20323887.64048  20406540.315    20406547.7954
  22912997.214   -12761559.462 8  -9919699.31446  22913000.146    22913008.5294
  21468614.146   -18607473.936 8 -14241639.11847  21468616.501    21468624.7884
  23671724.736    -8999205.810 8  -6984179.83545  23671724.643    23671734.1514
  20710979.320   -22442075.080 9 -17474215.92448  20710981.817    20710989.3814
  22819657.328   -10063952.396 8  -7825038.11846  22819656.947    22819665.2844
 00  8  9  2 21 30.0000000  0  7 20 22 25 03 31 01 19
  24195607.469    -3518239.086 8  -2727266.02545  24195610.650    24195620.2304
  20416389.022   -26064642.058 9 -20283548.73248  20416391.337    20416399.2214
  22926163.041   -12692379.409 8  -9865792.83846  22926165.349    22926172.7244
  21455572.202   -18675986.395 8 -14295025.40647  21455578.873    21455586.6724
  23649643.544    -9115217.168 8  -7074578.18645  23649647.885    23649658.3054
  20706069.048   -22467876.907 9 -17494321.22248  20706071.569    20706079.1444
  22804589.631   -10143111.617 8  -7886720.54146  22804592.997    22804601.6474
 00  8  9  2 22  0.0000000  0  7 20 22 25 03 31 01 19
  24212173.396    -3431203.685 7  -2659446.26445  24212172.057    24212182.6814
  20426306.136   -26012530.568 9 -20242942.38948  20426308.008    20426315.6504
  22939360.523   -12623006.833 8  -9811736.34346  22939365.557    22939374.2734
  21442621.902   -18744054.798 9 -14348065.67047  21442626.246    21442633.0684
  23627590.283    -9231140.052 8  -7164907.58945  23627588.048    23627598.2004
  20701261.812   -22493144.234 9 -17514010.03348  20701263.333    20701271.2094
  22789537.434   -10222202.416 8  -7948349.66246  22789542.531    22789550.4304
 00  8  9  2 22 30.0000000  0  7 20 22 25 03 31 01 19
  24228746.370    -3344078.746 8  -2591556.77445  24228752.129    24228762.7244
  20436287.323   -25960078.310 9 -20202070.51548  20436289.554    20436297.1134
  22952603.031   -12553441.795 8  -9757529.87346  22952604.920    22952613.9364
  21429756.380   -18811677.161 9 -14400758.38847  21429758.269    21429765.4784
  23605548.637    -9346971.468 8  -7255165.74145  23605546.808    23605556.9404
  20696556.328   -22517875.757 9 -17533281.33748  20696557.328    20696564.7464
  22774500.870   -10301223.963 8  -8009924.81846  22774504.842    22774514.2034
 00  8  9  2 23  0.0000000  0  7 20 22 25 03 31 01 19
  24245346.396    -3256867.462 7  -2523599.97845  24245347.342    24245359.2384
  20446335.342   -25907287.323 9 -20160934.68948  20446335.710    20446342.5844
  22965875.349   -12483684.374 8  -9703173.52546  22965878.915    22965887.8074
  21416971.002   -18878851.163 9 -14453101.71447  21416975.340    21416982.7314
  23583527.408    -9462708.741 7  -7345350.53245  23583521.074    23583531.6354
  20691950.695   -22542070.019 9 -17552133.99248  20691953.266    20691960.8364
  22759476.242   -10380175.056 8  -8071445.06646  22759480.851    22759491.2904
 00  8  9  2 23 30.0000000  0  7 20 22 25 03 31 01 19
  24261956.782    -3169573.023 7  -2455578.43645  24261958.354    24261969.6314
  20456444.846   -25854159.211 9 -20119536.17248  20456445.587    20456452.5454
  22979183.877   -12413734.766 8  -9648667.38446  22979190.050    22979198.7404
  21404275.432   -18945574.234 9 -14505093.66747  21404278.314    21404285.9814
  23561507.604    -9578348.958 7  -7435459.63545  23561515.285    23561526.4534
  20687448.164   -22565725.657 9 -17570566.94348  20687451.566    20687459.3154
  22744468.009   -10459054.905 8  -8132909.82146  22744470.862    22744479.7184
 00  8  9  2 24  0.0000000  0  7 20 22 25 03 31 01 19
  24278585.604    -3082198.533 8  -2387494.50445  24278586.682    24278596.5814
  20466616.840   -25800695.817 9 -20077876.38948  20466618.953    20466626.2594
  22992534.927   -12343593.157 8  -9594011.64146  22992537.479    22992546.3714
  21391661.269   -19011843.844 8 -14556732.28147  21391667.377    21391675.4304
  23539530.214    -9693888.963 8  -7525490.71345  23539529.245    23539539.7884
  20683049.018   -22588841.525 9 -17588579.29548  20683052.789    20683060.4054
  22729469.915   -10537862.478 8  -8194318.25546  22729474.172    22729483.4084
 00  8  9  2 24 30.0000000  0  7 20 22 25 03 31 01 19
  24295229.135    -2994746.822 8  -2319350.37145  24295227.733    24295238.6514
  20476855.507   -25746899.326 9 -20035957.06048  20476856.176    20476863.3944
  23005914.559   -12273259.941 8  -9539206.60446  23005921.923    23005930.1674
  21379142.122   -19077658.019 9 -14608016.00047  21379143.412    21379151.2764
  23517551.119    -9809326.113 8  -7615441.62045  23517563.195    23517572.2094
  20678755.616   -22611416.379 9 -17606170.07448  20678757.132    20678764.6524
  22714487.744   -10616596.795 8  -8255669.60446  22714490.732    22714500.7054
 00  8  9  2 25  0.0000000  0  7 20 22 25 03 31 01 19
  24311878.125    -2907221.246 8  -2251148.66345  24311884.016    24311895.0774
  20487153.756   -25692772.141 9 -19993780.04648  20487155.996    20487163.4944
  23019340.881   -12202734.944 8  -9484252.13446  23019342.456    23019350.6974
  21366702.560   -19143014.107 9 -14658942.77947  21366706.176    21366714.3404
  23495624.014    -9924657.580 8  -7705310.21145  23495615.122    23495624.4444
  20674561.944   -22633448.986 9 -17623338.32348  20674564.444    20674571.7364
  22699520.142   -10695256.722 8  -8316962.94546  22699522.627    22699531.4744
 00  8  9  2 25 30.0000000  0  7 20 22 25 03 31 01 19
  24328552.399    -2819624.814 8  -2182891.77945  24328552.802    24328563.2254
  20497517.519   -25638316.122 9 -19951346.79848  20497518.730    20497526.2284
  23032796.184   -12132018.123 8  -9429148.17046  23032799.143    23032806.7454
  21354353.600   -19207910.176 9 -14709511.08947  21354357.058    21354364.7704
  23473687.728   -10039880.177 8  -7795093.93645  23473689.314    23473699.1944
  20670473.106   -22654937.981 9 -17640082.98148  20670475.359    20670482.2804
  22684563.206   -10773840.979 8  -8378197.37846  22684569.138    22684576.8954
 00  8  9  2 26  0.0000000  0  7 20 22 25 03 31 01 19
  24345230.482    -2731960.756 8  -2114582.18045  24345233.463    24345245.3124
  20507943.133   -25583532.993 9 -19908658.65948  20507943.702    20507951.1894
  23046287.668   -12061110.121 8  -9373895.25546  23046292.094    23046300.9534
  21342090.565   -19272344.014 9 -14759719.23147  21342095.768    21342103.4724
  23451778.804   -10154991.148 8  -7884790.67445  23451784.783    23451793.3924
  20666486.318   -22675882.184 9 -17656403.12448  20666489.608    20666496.7354
  22669630.064   -10852348.681 8  -8439372.12846  22669629.005    22669638.3044
 00  8  9  2 26 30.0000000  0  7 20 22 25 03 31 01 19
  24361935.286    -2644232.025 8  -2046222.19245  24361928.864    24361939.0424
  20518426.957   -25528424.644 9 -19865717.09548  20518430.584    20518437.8704
  23059825.314   -11990010.863 8  -9318493.29546  23059822.249    23059829.8524
  21329922.482   -19336313.302 9 -14809565.37947  21329922.807    21329930.3864
  23429894.192   -10269987.546 8  -7974398.15445  23429902.076    23429911.3064
  20662604.534   -22696280.376 9 -17672297.80348  20662607.518    20662615.3404
  22654700.882   -10930778.959 8  -8500486.54446  22654703.309    22654712.5214
 00  8  9  2 27  0.0000000  0  7 20 22 25 03 31 01 19
  24378633.616    -2556441.740 8  -1977814.29645  24378634.926    24378644.9194
  20528976.130   -25472993.190 9 -19822523.76948  20528979.138    20528986.4634
  23073381.312   -11918720.598 8  -9262942.50146  23073388.210    23073397.1044
  21317836.853   -19399815.604 9 -14859047.65747  21317838.746    21317846.3194
  23408045.152   -10384866.417 8  -8063914.04845  23408041.207    23408050.4774
  20658827.232   -22716131.130 9 -17687765.90748  20658830.104    20658837.5264
  22639792.717   -11009130.732 8  -8561539.78646  22639794.161    22639802.4934
 00  8  9  2 27 30.0000000  0  7 20 22 25 03 31 01 19
  24395346.995    -2468593.064 8  -1909360.83045  24395352.688    24395362.4684
  20539586.525   -25417241.126 9 -19779080.61248  20539587.857    20539595.2134
  23086989.477   -11847239.111 8  -9207242.71746  23086990.517    23086999.6014
  21305839.335   -19462848.839 9 -14908164.42047  21305843.774    21305851.3064
  23386199.537   -10499624.825 8  -8153336.05745  23386202.345    23386211.6874
  20655154.936   -22735433.326 9 -17702806.56748  20655157.118    20655164.5344
  22624890.440   -11087403.059 8  -8622531.14946  22624899.404    22624907.1824
 00  8  9  2 28  0.0000000  0  7 20 22 25 03 31 01 19
  24412081.097    -2380688.997 8  -1840864.24845  24412080.396    24412089.8314
  20550255.564   -25361170.229 9 -19735389.01148  20550257.535    20550265.3344
  23100632.850   -11775566.891 8  -9151394.30746  23100629.301    23100637.3194
  21293935.341   -19525410.670 9 -14956913.86047  21293938.053    21293945.9094
  23364381.881   -10614259.981 8  -8242662.04345  23364388.538    23364398.8744
  20651584.979   -22754185.826 9 -17717418.89648  20651588.686    20651596.0834
  22610015.806   -11165594.752 8  -8683459.65646  22610020.085    22610029.2864
 00  8  9  2 28 30.0000000  0  7 20 22 25 03 31 01 19
  24428807.178    -2292732.552 8  -1772326.81445  24428816.995    24428826.7414
  20560986.930   -25304782.139 9 -19691450.25548  20560987.884    20560995.4604
  23114303.653   -11703704.155 8  -9095397.41946  23114304.747    23114314.1834
  21282120.003   -19587499.004 9 -15005294.34147  21282123.427    21282131.0254
  23342592.344   -10728768.815 8  -8331889.59446  23342597.730    23342607.6864
  20648123.917   -22772387.367 9 -17731601.90248  20648125.308    20648132.9784
  22595149.529   -11243705.023 8  -8744324.69846  22595155.029    22595165.2264
 00  8  9  2 29  0.0000000  0  7 20 22 25 03 31 01 19
  24445567.019    -2204726.820 8  -1703750.97845  24445563.882    24445574.4314
  20571778.709   -25248078.837 9 -19647265.88148  20571778.332    20571785.7664
  23128017.325   -11631650.907 8  -9039252.10846  23128016.000    23128025.0744
  21270395.777   -19649111.732 9 -15053304.20847  21270398.869    21270406.6434
  23320830.812   -10843148.509 8  -8421016.48646  23320832.591    23320842.7794
  20644763.677   -22790036.910 9 -17745354.78048  20644766.629    20644774.0834
  22580303.961   -11321732.538 8  -8805125.26846  22580308.003    22580316.3184
 00  8  9  2 29 30.0000000  0  7 20 22 25 03 31 01 19
  24462316.051    -2116674.737 7  -1635139.07945  24462319.188    24462331.1954
  20582622.801   -25191062.557 9 -19602837.62248  20582628.322    20582635.3674
  23141762.655   -11559407.500 8  -8982958.61846  23141763.568    23141773.4624
  21258763.186   -19710246.679 9 -15100941.78447  21258765.082    21258773.2394
  23299089.454   -10957396.101 8  -8510040.48445  23299091.461    23299100.1844
  20641510.798   -22807133.411 9 -17758676.71648  20641513.206    20641520.4944
  22565470.687   -11399676.087 8  -8865860.43646  22565475.456    22565483.6814
 00  8  9  2 30  0.0000000  0  7 20 22 25 03 31 01 19
  24479087.891    -2028579.625 8  -1566493.64445  24479084.877    24479094.7134
  20593535.032   -25133735.624 9 -19558167.28648  20593537.559    20593544.4714
  23155545.108   -11486974.067 8  -8926517.07646  23155548.070    23155556.0004
  21247219.401   -19770901.904 9 -15148205.55047  21247222.807    21247230.8714
  23277372.597   -11071508.696 8  -8598959.29545  23277376.266    23277385.7504
  20638362.518   -22823675.642 9 -17771566.75348  20638365.282    20638372.1864
  22550655.317   -11477534.531 8  -8926529.25346  22550659.321    22550668.4744
 00  8  9  2 30 30.0000000  0  7 20 22 25 03 31 01 19
  24495848.520    -1940444.399 8  -1497816.93045  24495855.413    24495866.3204
  20604503.589   -25076099.755 9 -19513256.22748  20604505.504    20604512.3004
  23169364.244   -11414350.683 8  -8869927.47646  23169367.361    23169376.2564
  21235769.035   -19831075.089 9 -15195093.70947  21235772.386    21235780.3944
  23255691.757   -11185483.132 8  -8687770.43345  23255687.643    23255697.0354
  20635318.271   -22839662.710 9 -17784024.19448  20635322.969    20635330.3974
  22535853.656   -11555306.954 8  -8987131.04346  22535859.632    22535868.3574
 00  8  9  2 31  0.0000000  0  7 20 22 25 03 31 01 19
  24512631.767    -1852272.215 8  -1429111.43045  24512634.651    24512644.8564
  20615530.762   -25018156.701 9 -19468105.79948  20615531.446    20615538.5974
  23183216.487   -11341537.706 8  -8813190.17346  23183222.106    23183232.7614
  21224407.623   -19890763.864 9 -15241604.41047  21224413.882    21224421.7414
  23234023.397   -11299316.461 8  -8776471.63745  23234025.304    23234034.6264
  20632383.670   -22855093.602 9 -17796048.24948  20632386.906    20632393.9994
  22521071.488   -11632992.147 8  -9047664.90946  22521077.364    22521085.4024
 00  8  9  2 31 30.0000000  0  7 20 22 25 03 31 01 19
  24529419.186    -1764066.078 7  -1360379.49245  24529419.973    24529430.4884
  20626611.772   -24959908.332 9 -19422717.47647  20626615.234    20626623.2184
  23197114.378   -11268535.304 8  -8756305.26646  23197115.475    23197125.1614
  21213144.893   -19949966.586 9 -15287736.35547  21213147.850    21213155.6524
  23212390.321   -11413006.004 8  -8865060.78345  23212392.349    23212401.0444
  20629553.943   -22869967.267 9 -17807638.09548  20629556.269    20629563.8914
  22506307.312   -11710589.239 8  -9108130.09046  22506309.225    22506319.1844
 00  8  9  2 32  0.0000000  0  7 20 22 25 03 31 01 19
  24546204.397    -1675829.082 7  -1291623.45445  24546210.122    24546221.1254
  20637755.504   -24901357.036 9 -19377093.11347  20637757.057    20637764.6684
  23211040.914   -11195343.632 8  -8699272.89846  23211042.295    23211051.9564
  21201974.509   -20008680.922 9 -15333487.74647  21201974.880    21201982.4404
  23190778.993   -11526548.755 8  -8953535.53545  23190784.655    23190794.2884
  20626828.022   -22884282.552 9 -17818792.85048  20626831.799    20626839.7354
  22491561.420   -11788096.730 8  -9168525.42846  22491561.806    22491570.2344
 00  8  9  2 32 30.0000000  0  7 20 22 25 03 31 01 19
  24563008.042    -1587563.865 8  -1222845.48145  24563007.224    24563017.1334
  20648954.183   -24842505.051 9 -19331234.43547  20648956.945    20648963.6664
  23225003.396   -11121962.913 8  -8642093.18146  23225007.303    23225014.7364
  21190891.350   -20066904.402 9 -15378856.64847  21190895.401    21190902.6324
  23169199.167   -11639941.880 8  -9041893.70646  23169206.838    23169216.4624
  20624212.605   -22898038.556 9 -17829511.79948  20624214.653    20624222.2364
  22476828.741   -11865513.743 8  -9228850.27746  22476829.421    22476837.3264
 00  8  9  2 33  0.0000000  0  7 20 22 25 03 31 01 19
  24579805.007    -1499273.569 8  -1154047.92245  24579807.953    24579817.9644
  20660211.476   -24783353.979 9 -19285142.69447  20660213.151    20660220.1414
  23239001.330   -11048393.370 8  -8584766.33646  23239007.387    23239016.1964
  21179906.738   -20124635.512 9 -15423841.89547  21179909.553    21179916.8354
  23147658.957   -11753182.367 8  -9130132.94345  23147656.672    23147667.2264
  20621700.002   -22911234.398 9 -17839794.25748  20621703.691    20621710.7034
  22462106.900   -11942839.242 8  -9289103.82546  22462114.605    22462122.8614
 00  8  9  2 33 30.0000000  0  7 20 22 25 03 31 01 19
  24596612.982    -1410961.532 8  -1085233.42745  24596613.137    24596624.4244
  20671524.945   -24723905.551 9 -19238819.25048  20671526.346    20671532.8204
  23253038.650   -10974635.444 8  -8527292.70446  23253042.736    23253051.1724
  21169015.998   -20181872.339 9 -15468441.98347  21169017.592    21169025.4654
  23126141.192   -11866267.103 8  -9218250.79446  23126138.244    23126147.9584
  20619296.303   -22923869.188 9 -17849639.52848  20619298.804    20619306.2114
  22447414.686   -12020072.134 8  -9349285.22646  22447417.466    22447425.0354
 00  8  9  2 34  0.0000000  0  7 20 22 25 03 31 01 19
  24613417.430    -1322630.599 8  -1016404.18945  24613422.095    24613432.9894
  20682893.780   -24664161.834 9 -19192265.71247  20682894.797    20682901.6854
  23267113.627   -10900689.033 8  -8469672.21646  23267113.975    23267123.3114
  21158214.876   -20238612.669 9 -15512655.19247  21158219.824    21158228.0134
  23104641.609   -11979193.498 8  -9306245.28046  23104648.705    23104658.6684
  20616997.737   -22935941.940 9 -17859046.85048  20617001.447    20617008.9734
  22432738.183   -12097210.752 8  -9409393.14546  22432739.961    22432746.8154
 00  8  9  2 34 30.0000000  0  7 20 22 25 03 31 01 19
  24630228.608    -1234283.734 8   -947562.55145  24630234.150    24630245.1934
  20694317.699   -24604125.232 9 -19145483.95947  20694318.945    20694326.3464
  23281222.406   -10826554.551 8  -8411905.17545  23281220.649    23281229.9224
  21147514.474   -20294854.437 9 -15556479.89747  21147517.445    21147525.4374
  23083191.329   -12091958.268 8  -9394113.82846  23083191.033    23083199.4844
  20614809.223   -22947451.760 9 -17868015.52448  20614811.352    20614819.2544
  22418073.291   -12174254.125 8  -9469426.86546  22418077.327    22418086.1404
 00  8  9  2 35  0.0000000  0  7 20 22 25 03 31 01 19
  24647046.900    -1145923.947 8   -878710.89845  24647048.776    24647059.1534
  20705793.992   -24543797.750 9 -19098475.54547  20705798.676    20705806.2994
  23295360.504   -10752232.235 8  -8353991.74946  23295364.122    23295372.9314
  21136908.477   -20350595.768 9 -15599914.66447  21136910.478    21136917.9284
  23061753.823   -12204558.636 8  -9481854.28346  23061763.902    23061772.2904
  20612725.039   -22958397.768 9 -17876544.87048  20612728.361    20612735.9384
  22403433.365   -12251201.264 8  -9529385.57746  22403434.824    22403443.0944
 00  8  9  2 35 30.0000000  0  7 20 22 25 03 31 01 19
  24663862.309    -1057554.421 8   -809851.64245  24663864.374    24663875.8274
  20717333.826   -24483180.967 9 -19051241.70247  20717333.931    20717341.2934
  23309540.605   -10677722.223 8  -8295932.07546  23309542.613    23309552.7284
  21126392.724   -20405834.909 9 -15642958.12247  21126399.097    21126406.3034
  23040373.123   -12316991.651 8  -9569464.31146  23040367.733    23040377.2374
  20610750.059   -22968778.934 9 -17884634.07348  20610752.858    20610760.0824
  22388809.898   -12328050.963 8  -9589268.38946  22388811.986    22388819.2684
 00  8  9  2 36  0.0000000  0  7 20 22 25 03 31 01 19
  24680675.377     -969177.846 7   -740986.84545  24680682.239    24680692.7334
  20728923.138   -24422276.666 9 -19003783.81447  20728924.121    20728930.9474
  23323754.192   -10603024.522 8  -8237726.17246  23323756.799    23323767.6384
  21115977.250   -20460569.704 9 -15685608.57847  21115983.322    21115990.9174
  23019004.017   -12429254.299 8  -9656941.58746  23019005.085    23019013.9634
  20608882.127   -22978594.681 9 -17892282.68648  20608884.760    20608892.4714
  22374201.542   -12404802.207 8  -9649074.49446  22374205.528    22374213.3954
 00  8  9  2 36 30.0000000  0  7 20 22 25 03 31 01 19
  24697497.641     -880797.372 8   -672119.04145  24697499.865    24697510.4594
  20740563.675   -24361087.049 9 -18956103.60247  20740567.826    20740575.0724
  23338005.687   -10528139.680 8  -8179374.45246  23338008.881    23338017.1984
  21105661.890   -20514798.220 9 -15727864.52247  21105663.602    21105671.6094
  22997668.123   -12541343.735 8  -9744283.87646  22997675.285    22997684.4454
  20607121.585   -22987844.277 9 -17899490.14948  20607124.646    20607132.5414
  22359615.482   -12481453.682 8  -9708802.84546  22359619.150    22359627.4214
 00  8  9  2 37  0.0000000  0  6 22 25 03 31 01 19
  20752263.346   -24299614.489 9 -18908202.90247  20752265.592    20752272.8054
  23352293.211   -10453067.780 8  -8120876.94446  23352294.194    23352303.9244
  21095437.833   -20568518.558 9 -15769724.50247  21095441.015    21095449.0554
  22976367.913   -12653256.662 8  -9831488.66446  22976378.699    22976387.9234
  20605470.276   -22996526.806 9 -17906255.74748  20605472.537    20605480.2864
  22345047.113   -12558004.127 8  -9768452.46446  22345052.786    22345060.6034
 00  8  9  2 37 30.0000000  0  6 22 25 03 31 01 19
  20764013.612   -24237860.689 9 -18860083.06947  20764016.006    20764024.2964
  23366613.046   -10377809.406 8  -8062234.14046  23366615.012    23366624.9044
  21085313.341   -20621729.012 9 -15811187.16647  21085315.746    21085323.1224
  22955112.734   -12764990.181 8  -9918553.64346  22955116.686    22955125.0554
  20603925.737   -23004641.567 9 -17912578.92448  20603928.380    20603935.9124
  22330502.939   -12634452.308 8  -9828022.41146  22330504.522    22330511.8274
 00  8  9  2 38  0.0000000  0  6 22 25 03 31 01 19
  20775819.655   -24175827.306 9 -18811745.39147  20775821.027    20775829.1654
  23380975.005   -10302364.468 8  -8003445.98146  23380972.809    23380981.2034
  21075285.026   -20674427.598 9 -15852250.95547  21075287.339    21075294.9534
  22933883.781   -12876541.627 8 -10005476.73546  22933888.946    22933898.1364
  20602488.481   -23012187.627 9 -17918458.95548  20602492.487    20602499.8954
  22315973.228   -12710796.999 8  -9887511.72346  22315976.562    22315984.1584
 00  8  9  2 38 30.0000000  0  6 22 25 03 31 01 19
  20787676.751   -24113516.188 9 -18763191.29547  20787678.802    20787686.8304
  23395362.589   -10226733.423 8  -7944512.77046  23395364.307    23395373.2374
  21065354.689   -20726612.347 9 -15892914.36447  21065356.806    21065364.7484
  22912699.187   -12987907.804 8 -10092255.47146  22912696.620    22912705.2884
  20601161.206   -23019164.476 9 -17923895.44848  20601164.925    20601172.2334
  22301463.798   -12787037.092 8  -9946919.51546  22301468.309    22301476.8024
 00  8  9  2 39  0.0000000  0  6 22 25 03 31 01 19
  20799587.942   -24050929.639 9 -18714422.56047  20799589.576    20799596.5134
  23409786.339   -10150916.561 8  -7885434.76645  23409791.484    23409800.5394
  21055521.099   -20778281.438 9 -15933175.95947  21055524.277    21055532.2514
  22891535.487   -13099085.667 8 -10178887.46246  22891540.253    22891548.6244
  20599943.587   -23025571.418 9 -17928887.86348  20599945.436    20599953.0794
  22286977.192   -12863171.434 8 -10006244.90246  22286980.660    22286988.9274
 00  8  9  2 39 30.0000000  0  6 22 25 03 31 01 19
  20811550.439   -23988069.874 9 -18665440.93047  20811550.908    20811558.3244
  23424245.604   -10074914.154 8  -7826212.21145  23424254.105    23424262.8334
  21045788.749   -20829433.231 9 -15973034.46547  21045790.557    21045798.2194
  22870408.492   -13210072.596 8 -10265370.68746  22870419.490    22870428.1314
  20598830.561   -23031407.817 9 -17933435.69448  20598834.771    20598842.4084
  22272513.811   -12939198.815 8 -10065486.90746  22272512.801    22272521.0034
 00  8  9  2 40  0.0000000  0  6 22 25 03 31 01 19
  20823563.775   -23924938.562 9 -18616247.70747  20823564.305    20823571.3534
  23438752.176    -9998726.234 8  -7766845.07346  23438753.045    23438760.7314
  21036152.284   -20880066.023 9 -16012488.55647  21036155.499    21036163.0714
  22849334.796   -13320865.547 8 -10351702.76546  22849336.411    22849345.2684
  20597829.042   -23036672.960 9 -17937538.38948  20597832.798    20597840.7284
  22258066.736   -13015117.901 8 -10124644.57346  22258065.760    22258073.4164
 00  8  9  2 40 30.0000000  0  6 22 25 03 31 01 19
  20835626.075   -23861537.342 9 -18566844.15847  20835628.664    20835636.0494
  23453282.199    -9922353.189 8  -7707333.68646  23453286.270    23453295.9134
  21026617.513   -20930177.799 9 -16051536.66347  21026619.505    21026626.9074
  22828297.824   -13431461.529 8 -10437881.33046  22828290.219    22828299.2634
  20596936.387   -23041366.153 9 -17941195.41448  20596939.846    20596947.5414
  22243636.295   -13090927.260 8 -10183716.73746  22243639.566    22243648.2764
 00  8  9  2 41  0.0000000  0  6 22 25 03 31 01 19
  20847743.827   -23797868.147 9 -18517231.81747  20847744.596    20847752.0644
  23467851.057    -9845795.474 8  -7647678.44145  23467853.494    23467863.8534
  21017181.805   -20979766.898 9 -16090177.48647  21017183.014    21017190.2344
  22807279.280   -13541857.807 8 -10523904.27146  22807282.514    22807292.2724
  20596153.044   -23045486.854 9 -17944406.34348  20596155.714    20596163.2304
  22229232.311   -13166625.830 8 -10242702.54446  22229234.436    22229243.2874
 00  8  9  2 41 30.0000000  0  6 22 25 03 31 01 19
  20859910.782   -23733933.126 9 -18467412.33947  20859911.927    20859918.7774
  23482451.953    -9769053.478 8  -7587879.58846  23482458.451    23482467.9984
  21007841.988   -21028831.609 9 -16128409.70447  21007846.459    21007853.3064
  22786306.207   -13652051.422 8 -10609769.32746  22786313.166    22786321.8024
  20595477.725   -23049034.477 9 -17947170.71948  20595480.618    20595488.1314
  22214849.029   -13242212.358 8 -10301601.08046  22214851.122    22214859.2634
 00  8  9  2 42  0.0000000  0  6 22 25 03 31 01 19
  20872124.981   -23669734.641 9 -18417387.54547  20872127.934    20872135.2534
  23497087.824    -9692127.387 8  -7527937.24745  23497096.585    23497105.9164
  20998604.544   -21077370.416 9 -16166232.11347  20998609.435    20998616.6944
  22765380.609   -13762039.206 8 -10695474.00546  22765382.721    22765392.2164
  20594912.572   -23052008.598 9 -17949488.20748  20594914.728    20594922.1064
  22200487.433   -13317685.551 8 -10360411.31946  22200489.511    22200496.6344
 00  8  9  2 42 30.0000000  0  6 22 25 03 31 01 19
  20884392.585   -23605274.209 9 -18367158.65247  20884394.624    20884401.8314
  23511773.534    -9615017.416 8  -7467851.66845  23511770.184    23511780.7044
  20989470.714   -21125381.613 9 -16203643.40047  20989473.235    20989480.6524
  22744493.130   -13871818.162 8 -10781015.93646  22744493.084    22744501.5254
  20594455.402   -23054408.377 9 -17951358.15248  20594458.006    20594465.6284
  22186146.562   -13393044.125 8 -10419132.25846  22186149.001    22186156.8914
 00  8  9  2 43  0.0000000  0  6 22 25 03 31 01 19
  20896707.466   -23540553.492 9 -18316726.93347  20896710.131    20896717.1944
  23526476.432    -9537723.886 8  -7407623.07146  23526479.497    23526489.5824
  20980435.887   -21172863.645 9 -16240642.35547  20980437.783    20980445.0624
  22723640.027   -13981385.341 8 -10866392.86246  22723643.442    22723652.0334
  20594107.444   -23056233.432 9 -17952780.26448  20594110.678    20594118.2584
  22171829.300   -13468286.614 8 -10477762.73046  22171831.054    22171839.0084
 00  8  9  2 43 30.0000000  0  6 22 25 03 31 01 19
  20909072.352   -23475574.383 9 -18266093.87247  20909074.538    20909082.3724
  23541213.724    -9460247.073 8  -7347251.60645  23541222.767    23541231.2314
  20971499.083   -21219814.644 9 -16277227.51347  20971502.994    20971510.8274
  22702829.983   -14090737.774 8 -10951602.45846  22702834.120    22702842.1554
  20593870.432   -23057483.238 9 -17953754.13148  20593872.834    20593880.3684
  22157531.539   -13543411.837 8 -10536301.80246  22157534.586    22157542.5934
 00  8  9  2 44  0.0000000  0  6 22 25 03 31 01 19
  20921484.936   -23410339.246 9 -18215261.31447  20921488.802    20921496.2854
  23555996.445    -9382587.042 8  -7286737.36145  23556000.628    23556008.5484
  20962667.170   -21266232.938 9 -16313397.57447  20962669.958    20962677.8514
  22682063.035   -14199872.470 8 -11036642.38346  22682065.741    22682074.6934
  20593742.962   -23058157.403 9 -17954279.44648  20593744.750    20593752.0024
  22143259.539   -13618418.489 8 -10594748.50746  22143261.276    22143269.6634
 00  8  9  2 44 30.0000000  0  6 22 25 03 31 01 19
  20933947.866   -23344850.090 9 -18164230.80747  20933951.152    20933958.4064
  23570814.025    -9304744.430 8  -7226080.87245  23570813.870    23570823.8344
  20953936.568   -21312117.034 9 -16349151.37447  20953938.795    20953946.8544
  22661337.210   -14308786.445 8 -11121510.33446  22661340.615    22661349.4344
  20593722.689   -23058255.374 9 -17954355.77348  20593725.940    20593733.4564
  22129006.533   -13693305.198 8 -10653101.75746  22129010.879    22129018.8354
 00  8  9  2 45  0.0000000  0  6 22 25 03 31 01 19
  20946458.038   -23279108.337 9 -18113003.47747  20946461.396    20946468.7784
  23585659.523    -9226719.852 8  -7165282.60945  23585661.044    23585671.8574
  20945305.800   -21357465.374 9 -16384487.70947  20945309.396    20945316.7514
  22640654.450   -14417476.838 8 -11206204.05046  22640657.312    22640666.2274
  20593814.537   -23057776.709 9 -17953982.77348  20593816.868    20593824.3704
  22114780.874   -13768070.840 8 -10711360.66346  22114783.409    22114791.5964
 00  8  9  2 45 30.0000000  0  6 22 25 03 31 01 19
  20959019.966   -23213115.740 9 -18061580.67847  20959019.832    20959026.8404
  23600538.480    -9148513.363 8  -7104342.60345  23600544.323    23600553.4854
  20936777.631   -21402276.256 9 -16419405.24847  20936782.025    20936789.6804
  22620015.189   -14525940.661 8 -11290721.21346  22620017.619    22620026.0344
  20594015.538   -23056721.120 9 -17953160.23448  20594017.480    20594025.2274
  22100579.706   -13842713.907 8 -10769524.04546  22100579.099    22100587.6254
 00  8  9  2 46  0.0000000  0  6 22 25 03 31 01 19
  20971620.368   -23146874.399 9 -18009964.06047  20971624.607    20971632.3644
  23615462.004    -9070125.272 8  -7043261.03445  23615460.739    23615468.7464
  20928353.721   -21446548.183 9 -16453902.81847  20928357.071    20928364.8034
  22599418.882   -14634175.088 8 -11375059.62746  22599421.295    22599429.2664
  20594325.454   -23055088.326 9 -17951887.92248  20594328.333    20594335.7144
  22086395.992   -13917232.988 8 -10827590.81046  22086399.365    22086407.5544
 00  8  9  2 46 30.0000000  0  6 22 25 03 31 01 19
  20984273.753   -23080386.557 9 -17958155.36747  20984276.890    20984284.4114
  23630405.384    -8991555.756 8  -6982038.11645  23630411.538    23630420.9284
  20920031.810   -21490279.826 9 -16487979.38247  20920035.042    20920042.9884
  22578864.347   -14742177.129 8 -11459216.96046  22578869.154    22578877.6094
  20594744.973   -23052877.883 9 -17950165.49048  20594749.166    20594756.4034
  22072240.033   -13991627.044 8 -10885560.16046  22072241.585    22072250.5434
 00  8  9  2 47  0.0000000  0  6 22 25 03 31 01 19
  20996971.633   -23013653.990 9 -17906155.96747  20996975.662    20996983.0504
  23645392.846    -8912805.711 8  -6920674.52545  23645396.664    23645407.1184
  20911813.575   -21533469.681 9 -16521633.78647  20911816.419    20911824.2104
  22558360.489   -14849943.804 8 -11543190.90746  22558361.294    22558369.2744
  20595276.351   -23050089.312 9 -17947992.57148  20595280.031    20595287.0764
  22058105.113   -14065894.578 8 -10943430.92746  22058108.332    22058117.1504
 00  8  9  2 47 30.0000000  0  7 22 25 03 31 01 19 27
  21009716.834   -22946678.197 9 -17853967.05047  21009720.720    21009728.0264
  23660413.391    -8833875.017 8  -6859170.19845  23660417.619    23660426.5324
  20903698.230   -21576116.127 9 -16554864.75447  20903701.364    20903708.4954
  22537896.334   -14957472.143 8 -11626979.13046  22537899.555    22537908.3534
  20595918.796   -23046722.521 9 -17945369.09148  20595920.682    20595928.1144
  22043997.425   -14140034.418 8 -11001202.17846  22044000.112    22044009.2444
  25053240.831    -1005108.72317   -560586.36755  25053246.481    25053257.4434
 00  8  9  2 48  0.0000000  0  7 22 25 03 31 01 19 27
  21022511.020   -22879460.979 9 -17801589.99747  21022511.959    21022518.7834
  23675467.692    -8754764.159 8  -6797525.44245  23675471.712    23675480.3504
  20895684.959   -21618217.876 9 -16587671.27747  20895689.204    20895697.0094
  22517481.705   -15064759.493 8 -11710579.56546  22517482.610    22517491.4524
  20596669.614   -23042777.336 9 -17942294.91848  20596671.537    20596678.8214
  22029914.535   -14214044.868 8 -11058872.59946  22029917.007    22029926.2534
  25036094.126    -1095222.684 7   -630804.89645  25036099.835    25036108.7354
 00  8  9  2 48 30.0000000  0  7 22 25 03 31 01 19 27
  21035343.810   -22812004.382 9 -17749026.41047  21035348.553    21035355.7254
  23690559.829    -8675473.855 8  -6735740.87845  23690560.430    23690569.9504
  20887779.168   -21659773.299 9 -16620052.08947  20887781.416    20887789.1874
  22497106.334   -15171802.695 8 -11793989.76246  22497113.876    22497122.6814
  20597529.607   -23038253.180 9 -17938769.59148  20597532.351    20597539.6194
  22015855.457   -14287924.722 8 -11116441.26646  22015857.961    22015866.0364
  25018938.122    -1185397.857 7   -701071.14445  25018939.229    25018948.1074
 00  8  9  2 49  0.0000000  0  7 22 25 03 31 01 19 27
  21048226.754   -22744310.648 9 -17696278.05847  21048230.105    21048237.6284
  23705678.786    -8596004.100 8  -6673816.47645  23705683.763    23705693.4064
  20879975.535   -21700780.841 9 -16652005.99247  20879978.246    20879985.6914
  22476789.881   -15278598.691 8 -11877207.32346  22476791.181    22476799.2644
  20598500.105   -23033149.984 9 -17934793.06748  20598503.299    20598510.5324
  22001817.350   -14361672.593 8 -11173907.08546  22001823.691    22001831.7784
  25001757.705    -1275633.617 7   -771384.61945  25001767.233    25001779.0414
 00  8  9  2 49 30.0000000  0  7 22 25 03 31 01 19 27
  21061153.672   -22676381.496 9 -17643346.27147  21061156.639    21061164.0714
  23720842.285    -8516355.265 8  -6611752.57745  23720840.678    23720849.7774
  20872274.713   -21741239.286 9 -16683532.03247  20872279.515    20872286.5874
  22456518.594   -15385144.565 8 -11960229.98046  22456515.637    22456524.1874
  20599582.077   -23027467.505 9 -17930365.15248  20599584.579    20599592.2144
  21987814.234   -14435287.042 8 -11231268.95247  21987816.512    21987824.0374
  24984582.123    -1365929.382 7   -841744.82845  24984584.259    24984594.6984
 00  8  9  2 50  0.0000000  0  7 22 25 03 31 01 19 27
  21074123.776   -22608218.320 9 -17590232.12247  21074127.730    21074134.9044
  23736028.310    -8436527.667 8  -6549549.32045  23736032.018    23736039.4314
  20864683.768   -21781147.334 9 -16714629.17847  20864685.053    20864692.3194
  22436281.290   -15491437.501 8 -12043055.55746  22436288.826    22436296.6884
  20600773.346   -23021205.713 9 -17925485.83348  20600776.319    20600783.8594
  21973832.026   -14508766.795 8 -11288525.84947  21973833.019    21973841.7074
  24967387.030    -1456284.403 7   -912151.18845  24967391.182    24967402.6944
 00  8  9  2 50 30.0000000  0  7 22 25 03 31 01 19 27
  21087141.345   -22539823.007 9 -17536937.08347  21087142.836    21087150.1544
  23751254.170    -8356521.784 8  -6487207.13645  23751255.973    23751265.2434
  20857192.625   -21820503.593 9 -16745296.36047  20857195.609    20857203.1714
  22416107.060   -15597474.596 8 -12125681.79346  22416110.728    22416118.1804
  20602075.224   -23014364.266 9 -17920154.83748  20602078.381    20602085.5884
  21959869.727   -14582110.567 8 -11345676.78246  21959875.787    21959883.9074
  24950184.693    -1546698.107 7   -982603.27745  24950186.068    24950196.3674
 00  8  9  2 51  0.0000000  0  7 22 25 03 31 01 19 27
  21100200.283   -22471197.705 9 -17483462.83147  21100201.872    21100209.3714
  23766501.605    -8276337.966 8  -6424726.38545  23766514.095    23766523.5154
  20849809.286   -21859306.953 9 -16775532.71547  20849811.531    20849819.0754
  22395979.814   -15703252.694 8 -12208106.21646  22395981.341    22395989.4444
  20603488.030   -23006942.988 9 -17914372.01948  20603490.308    20603497.9444
  21945941.923   -14655316.562 8 -11402720.35647  21945945.647    21945953.7084
  24932965.564    -1637169.523 7  -1053100.37645  24932970.211    24932980.7144
 00  8  9  2 51 30.0000000  0  7 22 25 03 31 01 19 27
  21113301.171   -22402344.542 9 -17429811.02847  21113304.341    21113311.5904
  23781798.546    -8195976.804 8  -6362107.38145  23781807.350    23781815.1314
  20842528.951   -21897555.970 9 -16805337.11547  20842532.846    20842540.4334
  22375894.692   -15808769.182 8 -12290326.75646  22375902.126    22375910.9214
  20605010.686   -22998941.862 9 -17908137.37548  20605013.198    20605020.5634
  21932036.518   -14728383.471 8 -11459655.56447  21932041.157    21932049.1964
  24915736.427    -1727698.120 7  -1123642.00645  24915742.182    24915753.8554
 00  8  9  2 52  0.0000000  0  7 22 25 03 31 01 19 27
  21126446.084   -22333264.951 9 -17375982.77747  21126449.247    21126457.0694
  23797126.961    -8115438.531 8  -6299350.36345  23797132.405    23797139.8534
  20835356.561   -21935249.390 9 -16834708.58447  20835360.320    20835367.4244
  22355873.271   -15914021.073 8 -12372341.12046  22355873.328    22355882.4804
  20606642.833   -22990360.823 9 -17901450.84948  20606646.267    20606653.3224
  21918161.731   -14801310.034 8 -11516481.39147  21918163.946    21918171.8844
  24898503.252    -1818283.161 7  -1194227.61045  24898504.620    24898514.0154
 00  8  9  2 52 30.0000000  0  7 22 25 03 31 01 19 27
  21139636.365   -22263960.530 9 -17321979.34547  21139637.674    21139645.3434
  23812490.933    -8034723.621 8  -6236455.73045  23812492.414    23812502.1424
  20828289.684   -21972385.797 9 -16863646.01947  20828293.566    20828300.5684
  22335890.608   -16019005.340 8 -12454146.97446  22335895.735    22335903.8624
  20608385.650   -22981199.620 9 -17894312.24848  20608389.274    20608396.5024
  21904311.669   -14874095.070 8 -11573196.96147  21904313.872    21904321.4564
  24881248.264    -1908924.045 7  -1264856.71845  24881254.656    24881264.8264
 00  8  9  2 53  0.0000000  0  7 22 25 03 31 01 19 27
  21152863.880   -22194433.008 9 -17267802.05447  21152868.066    21152876.3204
  23827884.790    -7953832.447 8  -6173423.78145  23827885.050    23827894.2014
  20821330.024   -22008963.867 9 -16892148.37747  20821332.761    20821339.9294
  22315969.305   -16123718.932 8 -12535741.90146  22315969.133    22315977.9294
  20610240.919   -22971458.514 9 -17886721.76948  20610242.823    20610250.3174
  21890486.016   -14946736.985 8 -11629801.00047  21890490.785    21890498.4394
  24863994.820    -1999620.024 7  -1335528.76645  24863996.382    24864006.9004
 00  8  9  2 53 30.0000000  0  7 22 25 03 31 01 19 27
  21166140.992   -22124684.756 9 -17213452.78447  21166140.856    21166148.8114
  23843308.347    -7872765.337 8  -6110254.69745  23843312.637    23843320.5124
  20814475.963   -22044982.589 9 -16920214.89547  20814478.588    20814485.7864
  22296083.921   -16228159.060 8 -12617123.71946  22296094.162    22296102.8844
  20612203.296   -22961137.334 9 -17878679.29148  20612206.709    20612214.2474
  21876692.528   -15019233.979 8 -11686292.10247  21876693.837    21876702.4984
  24846723.182    -2090370.414 7  -1406243.17945  24846728.694    24846738.1364
 00  8  9  2 54  0.0000000  0  7 22 25 03 31 01 19 27
  21179453.831   -22054717.584 9 -17158932.91847  21179455.264    21179462.6864
  23858767.346    -7791523.062 8  -6046949.10345  23858770.574    23858780.6244
  20807725.108   -22080440.795 9 -16947844.63347  20807731.471    20807738.4944
  22276277.568   -16332323.008 8 -12698290.34946  22276272.750    22276281.4074
  20614279.645   -22950236.152 9 -17870184.86348  20614281.297    20614288.8884
  21862921.708   -15091584.695 8 -11742669.21847  21862926.570    21862934.2064
  24829448.818    -2181174.298 7  -1476999.31245  24829449.979    24829459.4354
 00  8  9  2 54 30.0000000  0  7 22 25 03 31 01 19 27
  21192809.784   -21984532.964 9 -17104243.61747  21192811.286    21192818.4954
  23874262.192    -7710105.948 8  -5983507.33045  23874264.110    23874274.9374
  20801086.828   -22115337.517 9 -16975036.85347  20801090.708    20801098.3004
  22256500.714   -16436207.600 8 -12779239.28846  22256504.692    22256512.9864
  20616464.720   -22938754.852 9 -17861238.39648  20616466.358    20616473.6784
  21849181.344   -15163787.884 8 -11798931.40747  21849186.914    21849194.9264
  24812161.364    -2272031.171 7  -1547796.71845  24812158.688    24812168.7084
 00  8  9  2 55  0.0000000  0  7 22 25 03 31 01 19 27
  21206205.870   -21914132.490 9 -17049386.11747  21206208.130    21206215.6394
  23889793.166    -7628514.351 8  -5919929.60245  23889791.707    23889801.0834
  20794553.178   -22149671.516 9 -17001790.58647  20794556.572    20794564.4384
  22236785.155   -16539809.935 8 -12859968.32846  22236789.666    22236797.5074
  20618757.839   -22926693.639 9 -17851840.04748  20618761.091    20618768.8064
  21835469.588   -15235842.052 8 -11855077.45547  21835474.746    21835483.4494
  24794854.775    -2362939.998 7  -1618634.59645  24794858.302    24794868.8744
 00  8  9  2 55 30.0000000  0  7 22 25 03 31 01 19 27
  21219642.956   -21843517.968 9 -16994361.82347  21219645.371    21219652.6234
  23905346.261    -7546748.843 8  -5856216.32545  23905350.218    23905360.3054
  20788127.823   -22183441.485 9 -17028104.81047  20788130.759    20788138.0424
  22217127.372   -16643126.974 8 -12940475.03046  22217128.967    22217136.5634
  20621164.997   -22914052.643 9 -17841989.92748  20621166.535    20621174.2784
  21821790.627   -15307745.600 8 -11911106.14547  21821792.675    21821800.5664
  24777539.596    -2453900.149 7  -1689512.43145  24777548.568    24777560.3764
 00  8  9  2 56  0.0000000  0  7 22 25 03 31 01 19 27
  21233119.278   -21772691.635 9 -16939172.49047  21233123.347    21233130.4234
  23920945.729    -7464809.525 8  -5792367.61045  23920943.254    23920952.0524
  20781807.274   -22216646.474 9 -17053978.80447  20781811.844    20781819.1084
  22197521.751   -16746156.015 8 -13020757.33446  22197522.768    22197531.3734
  20623679.013   -22900831.851 9 -17831688.01948  20623682.537    20623690.1554
  21808134.311   -15379497.324 8 -11967016.53747  21808138.177    21808146.2564
  24760227.424    -2544910.882 7  -1760429.74245  24760230.020    24760241.1024
 00  8  9  2 56 30.0000000  0  7 22 25 03 31 01 19 27
  21246639.582   -21701655.357 9 -16883819.55647  21246641.020    21246648.3554
  23936565.199    -7382697.052 8  -5728383.96445  23936568.373    23936579.0594
  20775599.711   -22249285.405 9 -17079411.70947  20775600.746    20775608.1784
  22177971.408   -16848894.411 8 -13100813.12846  22177972.455    22177981.0094
  20626305.456   -22887031.387 9 -17820934.40848  20626308.905    20626316.0064
  21794514.050   -15451095.578 8 -12022807.32147  21794513.483    21794521.8764
  24742893.083    -2635971.442 7  -1831385.86045  24742902.419    24742912.3894
 00  8  9  2 57  0.0000000  0  7 22 25 03 31 01 19 27
  21260195.224   -21630410.435 9 -16828304.05247  21260198.322    21260205.6934
  23952225.016    -7300411.783 8  -5664265.69345  23952227.426    23952237.6704
  20769495.821   -22281357.069 9 -17104402.59547  20769497.775    20769505.1814
  22158475.186   -16951338.992 8 -13180640.00246  22158478.438    22158485.7234
  20629042.026   -22872651.582 9 -17809729.35948  20629045.222    20629052.6364
  21780914.950   -15522539.001 8 -12078477.43947  21780918.003    21780926.6824
  24725560.797    -2727080.963 7  -1902380.12945  24725564.598    24725574.5784
 00  8  9  2 57 30.0000000  0  7 22 25 03 31 01 19 27
  21273795.086   -21558958.477 9 -16772627.21447  21273795.403    21273802.7024
  23967914.684    -7217954.389 8  -5600013.35245  23967919.086    23967930.0484
  20763500.549   -22312860.375 9 -17128950.59547  20763502.615    20763510.0844
  22139039.157   -17053487.091 8 -13260235.85246  22139039.510    22139047.7464
  20631889.033   -22857692.523 9 -17798072.94948  20631891.696    20631899.2474
  21767350.858   -15593825.891 8 -12134025.60647  21767352.165    21767360.3644
  24708208.024    -2818238.607 7  -1973411.90445  24708217.394    24708227.6284
 00  8  9  2 58  0.0000000  0  7 22 25 03 31 01 19 27
  21287428.751   -21487301.372 9 -16716790.52647  21287431.665    21287438.6264
  23983640.977    -7135325.354 8  -5535627.19945  23983643.238    23983651.6484
  20757612.906   -22343794.538 9 -17153055.11347  20757616.045    20757624.0314
  22119651.088   -17155335.619 8 -13339598.26546  22119658.317    22119667.0204
  20634846.496   -22842154.328 9 -17785965.27148  20634848.469    20634855.7964
  21753813.209   -15664954.749 8 -12189450.67147  21753817.408    21753825.2124
  24690858.582    -2909443.513 7  -2044480.51545  24690862.548    24690871.9704
 00  8  9  2 58 30.0000000  0  7 22 25 03 31 01 19 27
  21301105.138   -21415441.284 9 -16660795.67447  21301106.015    21301113.1154
  23999398.083    -7052524.987 8  -5471107.52045  23999400.319    23999409.4004
  20751835.863   -22374158.812 9 -17176715.54947  20751838.205    20751845.5694
  22100331.987   -17256881.685 8 -13418724.99146  22100334.839    22100343.0734
  20637912.598   -22826037.194 9 -17773406.46648  20637915.479    20637922.7104
  21740313.378   -15735924.042 8 -12244751.42347  21740313.057    21740320.6154
  24673488.462    -3000694.851 7  -2115585.29545  24673496.662    24673507.9374
 00  8  9  2 59  0.0000000  0  7 22 25 03 31 01 19 27
  21314816.281   -21343379.948 9 -16604644.00047  21314819.079    21314825.3704
  24015181.430    -6969553.726 7  -5406454.73545  24015187.746    24015198.1104
  20746167.666   -22403951.838 9 -17199930.86747  20746169.067    20746176.1634
  22081069.503   -17358122.648 8 -13497613.98846  22081069.671    22081076.9864
  20641089.566   -22809341.424 9 -17760396.77848  20641092.633    20641099.8834
  21726833.682   -15806732.322 8 -12299926.67447  21726837.756    21726845.9384
  24656114.864    -3091992.021 7  -2186725.79245  24656123.857    24656135.8554
 00  8  9  2 59 30.0000000  0  7 22 25 03 31 01 19 27
  21328567.588   -21271118.587 9 -16548336.45247  21328569.410    21328576.4024
  24031004.569    -6886412.377 7  -5341669.39745  24031007.973    24031019.1574
  20740604.883   -22433172.797 9 -17222700.41947  20740608.161    20740615.5384
  22061860.810   -17459055.428 8 -13576262.84846  22061862.432    22061870.2804
  20644378.313   -22792067.398 9 -17746936.49848  20644380.018    20644386.9844
  21713392.293   -15877378.136 8 -12354975.32247  21713394.405    21713402.1744
  24638735.755    -3183334.171 7  -2257901.35445  24638741.117    24638752.2734
 00  8  9  3  0  0.0000000  0  7 22 25 03 31 01 19 27
  21342356.725   -21198658.892 9 -16491874.38047  21342358.314    21342365.1244
  24046864.289    -6803101.143 8  -5276751.66245  24046864.185    24046873.1924
  20735154.760   -22461820.905 9 -17245023.59547  20735156.917    20735163.8724
  22042707.461   -17559677.276 8 -13654669.40246  22042715.049    22042722.7494
  20647773.727   -22774215.364 9 -17733025.82348  20647776.789    20647784.2484
  21699980.328   -15947860.004 8 -12409896.21547  21699982.383    21699990.0274
  24621351.972    -3274720.441 7  -2329111.27245  24621351.141    24621362.0214
 00  8  9  3  0 30.0000000  0  7 22 25 03 31 01 19 27
  21356181.549   -21126002.845 9 -16435259.28747  21356184.549    21356191.7184
  24062745.751    -6719620.571 7  -5211701.97145  24062747.050    24062757.1664
  20729811.080   -22489895.350 9 -17266899.77147  20729814.723    20729821.4884
  22023623.331   -17659985.705 8 -13732831.74146  22023626.390    22023635.0084
  20651282.845   -22755785.609 9 -17718664.97848  20651284.019    20651291.2864
  21686598.243   -16018176.030 8 -12464687.88447  21686601.568    21686609.6164
  24603949.937    -3366149.922 7  -2400354.87145  24603952.489    24603962.7934
 00  8  9  3  1  0.0000000  0  7 22 25 03 31 01 19 27
  21370043.838   -21053152.416 9 -16378492.74547  21370046.727    21370054.5244
  24078655.728    -6635971.003 7  -5146520.64545  24078666.494    24078677.2724
  20724578.724   -22517395.058 9 -17288328.08447  20724581.499    20724588.2864
  22004597.290   -17759977.258 8 -13810747.15846  22004598.776    22004607.0314
  20654896.682   -22736778.416 9 -17703854.17748  20654900.945    20654908.2914
  21673250.221   -16088324.885 8 -12519349.29647  21673252.504    21673260.4924
  24586548.742    -3457621.700 8  -2471631.45245  24586547.744    24586555.1654
 00  8  9  3  1 30.0000000  0  7 22 25 03 31 01 19 27
  21383944.541   -20980109.178 9 -16321575.96147  21383946.693    21383954.5644
  24094618.295    -6552153.269 7  -5081208.23145  24094618.005    24094627.6174
  20719456.358   -22544319.138 9 -17309307.86247  20719457.820    20719464.8664
  21985629.339   -17859649.350 8 -13888413.65446  21985631.731    21985640.0694
  20658625.320   -22717194.080 9 -17688593.66148  20658627.611    20658635.2234
  21659931.710   -16158305.014 8 -12573879.22547  21659935.609    21659943.4904
  24569132.513    -3549134.941 7  -2542940.37645  24569132.786    24569140.1964
 00  8  9  3  2  0.0000000  0  7 22 25 03 31 01 19 27
  21397877.162   -20906874.493 9 -16264509.99047  21397882.826    21397890.2454
  24110590.963    -6468167.705 7  -5015765.04445  24110597.719    24110609.3794
  20714440.268   -22570666.991 9 -17329838.63747  20714444.018    20714451.0034
  21966719.718   -17958998.803 8 -13965828.73847  21966726.229    21966734.3344
  20662462.249   -22697033.256 9 -17672883.93348  20662464.048    20662471.3864
  21646648.100   -16228114.866 8 -12628276.48047  21646651.966    21646659.4184
  24551709.021    -3640688.715 7  -2614280.85645  24551710.167    24551719.6544
 00  8  9  3  2 30.0000000  0  7 22 25 03 31 01 19 27
  21411851.448   -20833449.946 9 -16207296.08147  21411855.066    21411862.2394
  24126606.414    -6384014.889 7  -4950191.56945  24126611.077    24126624.2584
  20709536.399   -22596437.691 9 -17349919.68347  20709540.139    20709547.1814
  21947879.665   -18058022.839 8 -14042990.26046  21947882.360    21947889.9864
  20666408.326   -22676296.231 9 -17656725.21648  20666410.411    20666417.5154
  21633397.209   -16297752.943 8 -12682539.87347  21633399.634    21633408.0374
  24534277.415    -3732282.143 7  -2685652.22145  24534280.616    24534290.3874
 00  8  9  3  3  0.0000000  0  7 22 25 03 31 01 19 27
  21425860.082   -20759837.776 9 -16149935.97647  21425863.548    21425870.3704
  24142659.664    -6299695.527 8  -4884488.28945  24142661.052    24142668.7454
  20704743.064   -22621630.637 9 -17369550.53047  20704746.231    20704753.1704
  21929098.955   -18156719.010 8 -14119896.31646  21929100.932    21929108.3534
  20670463.230   -22654983.488 9 -17640117.89048  20670466.291    20670473.4374
  21620176.779   -16367217.640 8 -12736668.16347  21620180.789    21620189.1624
  24516843.013    -3823914.354 7  -2757053.82445  24516844.196    24516853.1624
 00  8  9  3  3 30.0000000  0  7 22 25 03 31 01 19 27
  21439905.559   -20686039.651 9 -16092430.95047  21439906.638    21439913.4834
  24158726.004    -6215210.033 7  -4818655.57245  24158734.356    24158746.6424
  20700059.490   -22646244.975 9 -17388730.51347  20700062.282    20700069.1734
  21910380.258   -18255084.468 8 -14196544.65546  21910382.776    21910390.8144
  20674629.146   -22633095.563 9 -17623062.36548  20674631.202    20674638.6114
  21606990.678   -16436507.534 8 -12790660.23947  21606995.256    21607003.5084
  24499397.219    -3915584.407 8  -2828484.88245  24499398.787    24499408.5964
 00  8  9  3  4  0.0000000  0  7 22 25 03 31 01 19 27
  21453982.576   -20612057.003 9 -16034782.16347  21453984.756    21453991.7514
  24174846.193    -6130558.984 7  -4752693.88245  24174844.979    24174854.3674
  20695484.737   -22670280.041 9 -17407459.10947  20695488.144    20695495.3754
  21891724.099   -18353116.142 8 -14272932.90246  21891727.416    21891735.7454
  20678903.106   -22610632.884 9 -17605558.98448  20678905.540    20678912.9834
  21593839.920   -16505620.989 8 -12844514.83047  21593843.423    21593851.7204
  24481949.709    -4007291.498 7  -2899944.83345  24481947.600    24481957.5564
 00  8  9  3  4 30.0000000  0  7 22 25 03 31 01 19 27
  21468097.057   -20537891.239 9 -15976990.68647  21468098.137    21468105.2014
  24190982.340    -6045742.786 7  -4686603.42345  24190983.742    24190993.2084
  20691021.771   -22693735.155 9 -17425735.80647  20691024.589    20691031.9214
  21873134.285   -18450811.465 8 -14349059.05047  21873137.302    21873145.0884
  20683285.702   -22587595.892 9 -17587608.08848  20683289.461    20683296.6584
  21580721.338   -16574556.357 8 -12898230.65647  21580725.456    21580733.5564
  24464485.288    -4099034.829 7  -2971432.97945  24464488.129    24464498.7964
 00  8  9  3  5  0.0000000  0  7 22 25 03 31 01 19 27
  21482242.051   -20463543.885 8 -15919057.72047  21482245.897    21482253.5354
  24207151.057    -5960762.129 7  -4620384.82545  24207156.263    24207165.5904
  20686669.266   -22716609.188 9 -17443559.70847  20686671.968    20686679.1034
  21854606.634   -18548167.368 8 -14424920.73247  21854610.683    21854618.7664
  20687778.886   -22563985.126 9 -17569210.09348  20687782.608    20687789.3834
  21567638.525   -16643311.953 8 -12951806.38347  21567642.066    21567649.6664
  24447019.191    -4190813.276 7  -3042948.48045  24447023.121    24447033.9494
 00  8  9  3  5 30.0000000  0  7 22 25 03 31 01 19 27
  21496429.980   -20389017.286 9 -15860985.07247  21496427.909    21496435.5944
  24223356.496    -5875617.308 7  -4554038.41645  24223358.136    24223368.9764
  20682424.990   -22738901.907 9 -17460930.63747  20682429.629    20682437.0874
  21836147.486   -18645181.125 8 -14500515.79547  21836149.482    21836157.4534
  20692381.468   -22539801.242 9 -17550365.51448  20692384.414    20692391.6314
  21554590.837   -16711886.143 8 -13005240.78447  21554592.600    21554600.3084
  24429549.535    -4282625.866 7  -3114490.65445  24429552.000    24429561.3574
 00  8  9  3  6  0.0000000  0  7 22 25 03 31 01 19 27
  21510641.441   -20314313.090 8 -15802774.05047  21510643.459    21510651.3514
  24239595.389    -5790309.423 8  -4487564.92545  24239594.935    24239604.2764
  20678294.625   -22760612.857 9 -17477848.24147  20678297.971    20678305.2514
  21817755.826   -18741849.896 8 -14575842.03947  21817754.403    21817762.1874
  20697091.900   -22515044.922 9 -17531074.88148  20697095.371    20697103.0424
  21541575.093   -16780277.313 8 -13058532.57447  21541578.290    21541585.6204
  24412068.851    -4374471.679 7  -3186058.69545  24412074.443    24412084.1994
 00  8  9  3  6 30.0000000  0  7 22 25 03 31 01 19 27
  21524892.823   -20239432.438 8 -15744425.52347  21524893.002    21524900.7534
  24255852.059    -5704838.293 7  -4420964.14045  24255855.188    24255865.0834
  20674276.116   -22781741.676 9 -17494312.23647  20674277.345    20674284.8284
  21799423.264   -18838171.177 8 -14650897.51147  21799424.741    21799432.3874
  20701911.937   -22489716.809 9 -17511338.70048  20701915.002    20701922.5324
  21528598.153   -16848483.880 8 -13111680.50947  21528598.274    21528606.0534
  24394588.485    -4466349.775 8  -3257651.88245  24394590.488    24394600.6694
 00  8  9  3  7  0.0000000  0  7 22 25 03 31 01 19 27
  21539173.592   -20164376.909 8 -15685940.73747  21539175.879    21539183.2024
  24272146.486    -5619204.942 7  -4354236.94645  24272150.485    24272162.4254
  20670364.015   -22802287.359 9 -17510321.84247  20670367.725    20670374.9274
  21781160.829   -18934142.175 8 -14725680.03847  21781161.876    21781169.4824
  20706841.179   -22463817.359 9 -17491157.31647  20706843.539    20706850.9194
  21515651.412   -16916504.232 8 -13164683.34647  21515654.830    21515662.7004
  24377098.559    -4558259.270 7  -3329269.57845  24377101.286    24377110.8134
 00  8  9  3  7 30.0000000  0  7 22 25 03 31 01 19 27
  21553485.367   -20089148.156 8 -15627320.95847  21553490.946    21553498.7654
  24288485.994    -5533410.208 7  -4287384.07945  24288477.382    24288490.0194
  20666566.564   -22822249.385 9 -17525876.64647  20666569.026    20666576.5084
  21762966.784   -19029759.896 8 -14800187.30246  21762966.517    21762973.8944
  20711877.768   -22437347.240 9 -17470531.26447  20711880.770    20711888.0274
  21502745.313   -16984336.884 8 -13217539.91747  21502747.109    21502754.0964
  24359599.492    -4650199.171 7  -3400910.94745  24359604.735    24359614.4044
 00  8  9  3  8  0.0000000  0  7 22 25 03 31 01 19 27
  21567837.294   -20013748.260 8 -15568567.82547  21567839.221    21567846.6804
  24304819.407    -5447454.431 7  -4220405.73545  24304834.576    24304845.4274
  20662878.330   -22841627.302 9 -17540976.30647  20662881.482    20662888.7034
  21744832.757   -19125021.688 8 -14874417.20446  21744838.657    21744845.9104
  20717024.930   -22410307.142 9 -17449461.06947  20717026.489    20717033.6514
  21489870.229   -17051980.339 8 -13270249.06647  21489874.752    21489882.4274
  24342108.952    -4742168.549 8  -3472575.26045  24342105.156    24342114.0554
 00  8  9  3  8 30.0000000  0  7 22 25 03 31 01 19 27
  21582216.724   -19938178.751 8 -15509682.52947  21582219.811    21582227.6454
  24321224.678    -5361338.175 7  -4153302.27845  24321224.515    24321231.1334
  20659300.697   -22860420.558 9 -17555620.38047  20659305.146    20659312.1794
  21726778.719   -19219924.660 8 -14948367.51447  21726779.485    21726786.7784
  20722277.551   -22382697.863 9 -17427947.35147  20722280.054    20722287.6054
  21477037.248   -17119432.565 8 -13322809.20547  21477038.996    21477046.8814
  24324598.527    -4834166.521 7  -3544261.84945  24324597.913    24324606.7364
 00  8  9  3  9  0.0000000  0  7 22 25 03 31 01 19 27
  21596630.787   -19862440.872 9 -15450666.02547  21596632.973    21596640.0024
  24337638.139    -5275062.074 7  -4086074.24045  24337642.453    24337650.4494
  20655837.160   -22878628.620 9 -17569808.45847  20655840.412    20655847.6294
  21708789.601   -19314466.071 8 -15022036.06947  21708789.007    21708796.6934
  20727639.048   -22354520.150 9 -17405990.70147  20727642.232    20727649.6224
  21464235.909   -17186692.146 8 -13375219.22547  21464239.668    21464247.6894
  24307084.823    -4926191.883 8  -3615969.78945  24307085.896    24307094.5434
 00  8  9  3  9 30.0000000  0  7 22 25 03 31 01 19 27
  21611076.492   -19786536.146 9 -15391519.50347  21611077.268    21611083.8744
  24354094.414    -5188626.514 8  -4018722.01545  24354089.783    24354101.0254
  20652485.912   -22896251.042 9 -17583540.21247  20652487.168    20652494.1854
  21690865.261   -19408643.367 8 -15095420.89647  21690866.734    21690875.1514
  20733110.977   -22325774.753 9 -17383591.69547  20733112.230    20733119.7934
  21451473.887   -17253757.198 8 -13427477.66447  21451477.557    21451485.8764
  24289567.523    -5018243.565 7  -3687698.24445  24289568.340    24289577.0354
 00  8  9  3 10  0.0000000  0  7 22 25 03 31 01 19 27
  21625548.767   -19710466.201 9 -15332244.24347  21625552.500    21625559.8174
  24370566.547    -5102032.404 7  -3951246.26545  24370567.005    24370579.3164
  20649241.430   -22913287.549 9 -17596815.39447  20649245.169    20649252.0974
  21673013.674   -19502453.926 8 -15168519.96947  21673015.526    21673023.4994
  20738687.238   -22296462.315 9 -17360750.83947  20738690.213    20738698.0104
  21438750.240   -17320626.142 8 -13479583.29447  21438752.811    21438761.0354
  24272042.090    -5110320.572 7  -3759446.43145  24272047.487    24272054.9514
 00  8  9  3 10 30.0000000  0  7 22 25 03 31 01 19 27
  21640054.992   -19634233.078 9 -15272841.84547  21640059.369    21640066.7574
  24387073.833    -5015280.272 7  -3883647.36145  24387075.394    24387086.7584
  20646111.773   -22929737.700 9 -17609633.67547  20646114.749    20646121.7264
  21655229.577   -19595894.870 8 -15241331.02247  21655234.181    21655241.7504
  20744374.032   -22266583.756 9 -17337468.85948  20744376.126    20744383.9824
  21426062.999   -17387297.451 8 -13531534.91647  21426065.655    21426073.6544
  24254518.192    -5202421.992 8  -3831213.65545  24254519.706    24254528.2174
 00  8  9  3 11  0.0000000  0  7 22 25 03 31 01 19 27
  21654593.862   -19557838.100 8 -15213313.30947  21654596.760    21654604.2414
  24403619.363    -4928370.836 7  -3815925.78845  24403614.402    24403625.4104
  20643094.015   -22945601.063 9 -17621994.72647  20643096.029    20643103.1784
  21637520.884   -19688963.558 8 -15313852.00847  21637524.183    21637531.4274
  20750166.488   -22236140.093 9 -17313746.53248  20750169.396    20750177.0914
  21413413.310   -17453769.542 8 -13583331.30247  21413416.520    21413424.4574
  24236985.176    -5294546.738 7  -3902999.09045  24236989.856    24236998.5964
 00  8  9  3 11 30.0000000  0  7 22 25 03 31 01 19 27
  21669160.286   -19481282.520 8 -15153659.63147  21669164.549    21669172.3594
  24420175.852    -4841304.571 7  -3748082.11545  24420182.692    24420194.8084
  20640185.394   -22960877.483 9 -17633898.41347  20640189.033    20640196.2924
  21619886.587   -19781657.065 8 -15386080.66047  21619884.685    21619891.8744
  20756069.038   -22205132.104 9 -17289584.47847  20756069.906    20756077.3394
  21400800.478   -17520040.709 8 -13634971.11447  21400804.886    21400813.5164
  24219453.175    -5386693.821 8  -3974801.93645  24219454.351    24219463.5674
 00  8  9  3 12  0.0000000  0  7 22 25 03 31 01 19 27
  21683761.356   -19404567.966 8 -15093882.08847  21683762.681    21683770.5334
  24436787.518    -4754082.058 7  -3680116.76545  24436781.269    24436792.5474
  20637390.576   -22975566.462 9 -17645344.35247  20637393.999    20637400.7414
  21602314.796   -19873972.848 8 -15458014.97647  21602318.026    21602325.2244
  20762074.771   -22173560.484 9 -17264983.22747  20762077.921    20762085.1654
  21388230.969   -17586109.023 8 -13686452.86447  21388232.704    21388240.8424
  24201916.684    -5478862.066 8  -4046621.25745  24201915.445    24201924.8534
 00  8  9  3 12 30.0000000  0  7 22 25 03 31 01 19 27
  21698391.003   -19327696.218 9 -15033982.05047  21698391.525    21698398.7434
  24453402.524    -4666704.361 7  -3612030.38545  24453408.192    24453418.5104
  20634709.905   -22989667.681 9 -17656332.30448  20634710.612    20634717.6404
  21584817.916   -19965908.299 8 -15529652.93247  21584822.853    21584830.6574
  20768190.080   -22141426.030 9 -17239943.40947  20768192.920    20768200.1384
  21375695.057   -17651972.920 8 -13737775.33947  21375699.468    21375707.4594
  24184369.870    -5571050.477 8  -4118456.32045  24184371.730    24184381.5434
 00  8  9  3 13  0.0000000  0  8 13 22 25 03 31 01 19 27
  24895733.800     -303803.05017   -214862.04755  24895731.897    24895742.0304
  21713051.571   -19250669.029 8 -14973960.88747  21713048.782    21713056.6124
  24470051.006    -4579171.880 7  -3543823.32645  24470065.154    24470075.5664
  20632136.708   -23003181.113 9 -17666862.23948  20632138.988    20632146.2824
  21567397.560   -20057460.406 8 -15600992.16647  21567400.785    21567408.5714
  20774411.626   -22108729.653 9 -17214465.72147  20774414.790    20774422.0674
  21363202.490   -17717630.888 9 -13788937.34447  21363205.332    21363212.8914
  24166827.230    -5663257.974 8  -4190306.21245  24166825.336    24166835.7834
 00  8  9  3 13 30.0000000  0  8 13 22 25 03 31 01 19 27
  24877571.572     -399237.213 7   -289226.16645  24877571.126    24877582.4624
  21727733.128   -19173487.634 8 -14913819.56247  21727735.664    21727743.2554
  24486747.667    -4491484.749 7  -3475495.94045  24486748.871    24486764.3594
  20629676.566   -23016106.290 9 -17676933.78448  20629679.076    20629686.5904
  21550048.798   -20148626.854 8 -15672030.87347  21550052.277    21550059.7724
  20780740.734   -22075472.525 9 -17188551.08247  20780743.398    20780750.6224
  21350749.827   -17783080.970 9 -13839937.39347  21350750.807    21350757.9264
  24149274.790    -5755483.503 8  -4262170.16245  24149275.784    24149285.1504
 00  8  9  3 14  0.0000000  0  8 13 22 25 03 31 01 19 27
  24859453.618     -494427.597 7   -363400.35145  24859458.337    24859466.9544
  21742448.613   -19096153.275 8 -14853559.05647  21742451.845    21742460.1014
  24503462.666    -4403644.228 7  -3407048.97545  24503467.519    24503479.4744
  20627327.883   -23028442.964 9 -17686546.76148  20627331.558    20627339.0894
  21532772.304   -20239405.016 8 -15742767.05247  21532777.615    21532784.8404
  20787175.516   -22041655.405 9 -17162200.09147  20787178.596    20787185.6774
  21338332.029   -17848321.444 9 -13890774.11647  21338335.769    21338342.9984
  24131721.465    -5847725.987 8  -4334047.33745  24131722.168    24131731.8844
 00  8  9  3 14 30.0000000  0  8 13 22 25 03 31 01 19 27
  24841382.446     -589371.749 7   -437382.73145  24841390.618    24841398.4854
  21757196.516   -19018667.606 8 -14793180.64547  21757197.805    21757205.1454
  24520208.456    -4315650.759 7  -3338482.72145  24520213.010    24520222.0864
  20625093.385   -23040190.867 9 -17695700.95748  20625096.332    20625103.4144
  21515575.010   -20329792.109 8 -15813198.48947  21515577.904    21515585.5554
  20793717.809   -22007279.442 9 -17135413.63747  20793720.145    20793727.0504
  21325957.106   -17913350.935 9 -13941446.43847  21325960.943    21325967.9884
  24114165.037    -5939984.359 7  -4405936.87845  24114165.320    24114174.7194
 00  8  9  3 15  0.0000000  0  8 13 22 25 03 31 01 19 27
  24823374.472     -684067.297 7   -511171.36245  24823370.814    24823377.6764
  21771966.348   -18941032.326 8 -14732685.64047  21771970.873    21771978.6574
  24536983.371    -4227505.013 7  -3269797.93345  24536986.077    24536996.7464
  20622968.129   -23051350.117 9 -17704396.46548  20622972.510    20622979.7804
  21498450.602   -20419785.392 8 -15883323.07047  21498452.769    21498460.3644
  20800364.521   -21972345.629 9 -17108192.50147  20800367.784    20800374.8904
  21313625.319   -17978167.451 9 -13991952.79547  21313626.890    21313634.1794
  24096606.510    -6032257.546 8  -4477838.00445  24096607.335    24096615.0694
 00  8  9  3 15 30.0000000  0  8 13 22 25 03 31 01 19 27
  24805394.728     -778510.966 7   -584763.72245  24805397.324    24805405.6044
  21786769.368   -18863249.251 8 -14672075.48147  21786772.694    21786780.3394
  24553785.623    -4139207.706 7  -3200994.99045  24553788.879    24553799.7874
  20620957.993   -23061920.435 9 -17712633.06548  20620961.092    20620968.0654
  21481401.922   -20509382.380 8 -15953138.84147  21481402.524    21481410.5934
  20807118.480   -21936855.010 9 -17080537.48447  20807121.221    20807128.5994
  21301328.541   -18042769.337 8 -14042291.89347  21301333.061    21301340.8624
  24079040.175    -6124544.194 8  -4549749.59545  24079045.933    24079054.6414
 00  8  9  3 16  0.0000000  0  8 13 22 25 03 31 01 19 27
  24787465.265     -872700.499 7   -658158.03745  24787475.101    24787482.4194
  21801602.109   -18785319.466 9 -14611350.99547  21801602.818    21801609.5754
  24570625.051    -4050759.559 7  -3132074.55045  24570617.757    24570630.0994
  20619059.218   -23071901.719 9 -17720410.67748  20619061.948    20619068.4034
  21464425.906   -20598580.686 8 -16022643.94547  21464428.420    21464436.5454
  20813977.430   -21900808.616 9 -17052449.40047  20813980.625    20813988.3054
  21289076.603   -18107154.902 9 -14092462.43047  21289080.834    21289088.6304
  24061478.985    -6216843.257 8  -4621670.82245  24061480.533    24061489.8394
 00  8  9  3 16 30.0000000  0  7 13 22 03 31 01 19 27
  24769604.599     -966633.410 8   -731352.40745  24769599.697    24769608.5904
  21816458.375   -18707244.140 8 -14550513.10047  21816459.196    21816466.8374
  20617271.978   -23081293.832 9 -17727729.19148  20617274.357    20617281.5074
  21447526.561   -20687377.236 8 -16091836.01047  21447531.364    21447538.9024
  20820941.484   -21864207.638 9 -17023929.16947  20820945.522    20820953.2314
  21276868.219   -18171322.576 9 -14142463.19547  21276870.532    21276877.8964
  24043911.548    -6309153.615 8  -4693600.86845  24043915.409    24043923.3084
 00  8  9  3 17  0.0000000  0  7 13 22 03 31 01 19 27
  24751778.195    -1060306.799 8   -804344.53945  24751775.234    24751781.9174
  21831343.625   -18629024.946 8 -14489563.10347  21831343.957    21831351.8804
  20615597.210   -23090096.518 9 -17734588.41148  20615599.195    20615606.5834
  21430707.478   -20775769.632 8 -16160713.12747  21430710.534    21430718.5164
  20828013.798   -21827053.212 9 -16994977.68947  20828016.180    20828023.7074
  21264698.653   -18235270.519 9 -14192292.73847  21264701.751    21264708.6154
  24026344.207    -6401474.230 8  -4765538.93145  24026347.705    24026356.0664
 00  8  9  3 17 30.0000000  0  7 13 22 03 31 01 19 27
  24733997.939    -1153717.981 7   -877132.35745  24733998.861    24734005.4834
  21846252.712   -18550663.662 8 -14428502.38347  21846255.625    21846262.7644
  20614032.542   -23098309.982 9 -17740988.50348  20614036.582    20614043.5844
  21413966.937   -20863755.201 8 -16229273.24447  21413967.699    21413975.2864
  20835190.476   -21789346.362 9 -16965595.74047  20835191.603    20835199.1944
  21252572.644   -18298997.098 9 -14241949.79547  21252574.412    21252582.4514
  24008777.563    -6493803.861 8  -4837484.02045  24008778.012    24008787.0174
 00  8  9  3 18  0.0000000  0  7 13 22 03 31 01 19 27
  24716261.871    -1246864.938 7   -949714.25045  24716271.309    24716281.0474
  21861192.465   -18472161.926 8 -14367332.21647  21861193.961    21861201.4774
  20612581.824   -23105934.262 9 -17746929.48648  20612585.638    20612592.4004
  21397296.598   -20951331.423 8 -16297514.39647  21397302.855    21397310.1014
  20842468.399   -21751088.350 9 -16935784.31947  20842471.857    20842479.7794
  21240484.040   -18362500.192 8 -14291432.68347  21240489.643    21240498.2164
  23991206.245    -6586141.431 8  -4909435.26545  23991206.009    23991215.2244
 00  8  9  3 18 30.0000000  0  7 13 22 03 31 01 19 27
  24698594.713    -1339744.174 7  -1022087.59645  24698599.239    24698606.3794
  21876155.767   -18393520.705 8 -14306053.35947  21876159.373    21876166.1294
  20611242.244   -23112969.185 9 -17752411.22948  20611246.764    20611253.8294
  21380715.051   -21038495.638 9 -16365434.50447  21380715.772    21380723.2964
  20849855.277   -21712280.258 9 -16905544.26347  20849856.611    20849864.3724
  21228444.241   -18425778.338 9 -14340740.30347  21228448.641    21228456.1604
  23973634.873    -6678485.604 8  -4981391.67945  23973633.891    23973641.6554
 00  8  9  3 19  0.0000000  0  7 13 22 03 31 01 19 27
  24680974.164    -1432353.312 7  -1094250.44145  24680975.758    24680983.7614
  21891146.808   -18314741.278 8 -14244666.80047  21891149.730    21891157.9484
  20610017.515   -23119414.867 9 -17757433.82848  20610020.166    20610027.4384
  21364208.695   -21125245.423 9 -16433031.68247  21364207.839    21364215.3774
  20857343.561   -21672923.313 9 -16874876.53247  20857346.134    20857353.4404
  21216445.488   -18488829.658 9 -14389871.18547  21216450.677    21216458.1954
  23956059.917    -6770835.170 8  -5053352.29645  23956060.755    23956069.1054
 00  8  9  3 19 30.0000000  0  7 13 22 03 31 01 19 27
  24663401.867    -1524690.450 8  -1166201.35745  24663405.447    24663412.5984
  21906166.585   -18235825.295 8 -14183173.85947  21906167.427    21906175.4814
  20608902.669   -23125271.104 9 -17761997.11648  20608905.922    20608913.1634
  21347777.453   -21211578.462 9 -16500304.12547  21347779.214    21347786.4954
  20864937.409   -21633018.744 9 -16843782.07647  20864939.888    20864946.7314
  21204492.924   -18551652.348 9 -14438823.89847  21204495.617    21204503.1984
  23938478.223    -6863188.995 8  -5125316.22445  23938484.811    23938495.1244
 00  8  9  3 20  0.0000000  0  7 13 22 03 31 01 19 27
  24645880.501    -1616752.207 8  -1237937.69545  24645884.599    24645892.7264
  21921211.091   -18156774.477 8 -14121575.83747  21921210.419    21921218.3664
  20607901.276   -23130538.306 9 -17766101.40848  20607903.552    20607910.5964
  21331427.808   -21297492.001 9 -16567249.69047  21331430.558    21331437.5654
  20872634.532   -21592567.760 9 -16812261.84347  20872637.626    20872644.3834
  21192582.206   -18614244.981 9 -14487597.34847  21192584.844    21192592.5424
  23920906.619    -6955546.105 8  -5197282.71245  23920909.768    23920919.8204
 00  8  9  3 20 30.0000000  0  7 13 22 03 31 01 19 27
  24628410.339    -1708536.554 7  -1309457.87845  24628417.435    24628426.9664
  21936277.666   -18077590.217 8 -14059873.83947  21936278.154    21936286.1724
  20607010.130   -23135216.295 9 -17769746.58348  20607013.346    20607020.4284
  21315157.894   -21382983.541 9 -16633866.42447  21315162.336    21315168.9024
  20880435.585   -21551571.782 9 -16780316.94647  20880438.830    20880445.6134
  21180715.896   -18676605.434 9 -14536189.87547  21180718.551    21180725.5364
  23903326.591    -7047905.074 8  -5269250.61145  23903334.827    23903343.7724
 00  8  9  3 21  0.0000000  0  7 13 22 03 31 01 19 27
  24611003.049    -1800040.620 7  -1380759.60645  24611005.971    24611014.1234
  21951371.416   -17998273.638 8 -13998068.73047  21951372.501    21951379.9834
  20606232.156   -23139305.349 9 -17772932.84748  20606235.287    20606242.3914
  21298973.803   -21468050.460 9 -16700152.28447  21298973.998    21298981.5954
  20888341.430   -21510031.898 9 -16747948.21747  20888343.248    20888350.6214
  21168893.790   -18738732.230 9 -14584600.33647  21168895.873    21168902.6684
  23885757.944    -7140264.668 8  -5341219.01445  23885759.319    23885767.3634
 00  8  9  3 21 30.0000000  0  7 13 22 03 31 01 19 27
  24593638.139    -1891261.449 7  -1451840.69245  24593647.767    24593654.4984
  21966489.008   -17918825.931 8 -13936161.45047  21966489.890    21966498.2914
  20605566.897   -23142805.539 9 -17775660.25548  20605569.006    20605576.0964
  21282867.923   -21552690.344 9 -16766105.38047  21282868.032    21282875.2714
  20896347.672   -21467949.487 9 -16715156.74747  20896350.906    20896358.7584
  21157114.745   -18800623.500 9 -14632827.27447  21157117.543    21157125.2144
  23868178.870    -7232623.564 8  -5413186.89045  23868183.077    23868192.5824
 00  8  9  3 22  0.0000000  0  7 13 22 03 31 01 19 27
  24576340.630    -1982196.928 7  -1522699.35445  24576342.757    24576350.7154
  21981631.061   -17839248.724 8 -13874153.25347  21981632.699    21981641.0504
  20605012.005   -23145717.061 9 -17777928.95748  20605015.107    20605022.0484
  21266839.908   -21636900.659 8 -16831723.74547  21266842.419    21266850.1324
  20904458.847   -21425325.771 9 -16681943.48447  20904462.159    20904469.7974
  21145382.788   -18862277.446 9 -14680869.27447  21145385.844    21145392.8294
  23850606.386    -7324980.752 8  -5485153.38345  23850608.692    23850618.9404
 00  8  9  3 22 30.0000000  0  7 13 22 03 31 01 19 27
  24559089.520    -2072843.933 8  -1593333.28545  24559093.766    24559100.8284
  21996798.702   -17759543.843 8 -13812045.57547  21996800.787    21996808.4494
  20604569.716   -23148040.163 9 -17779739.15348  20604572.804    20604580.0574
  21250896.616   -21720679.210 9 -16897005.68547  21250900.582    21250907.4894
  20912673.858   -21382162.056 9 -16648309.44247  20912676.320    20912683.7284
  21133697.919   -18923692.350 9 -14728725.02247  21133699.390    21133706.3264
  23833031.189    -7417334.857 8  -5557117.52345  23833034.790    23833043.0384
 00  8  9  3 23  0.0000000  0  7 13 22 03 31 01 19 27
  24541903.037    -2163200.208 8  -1663740.67345  24541900.160    24541906.2604
  22011991.424   -17679712.464 8 -13749839.33147  22011992.472    22011999.6404
  20604238.893   -23149774.973 9 -17781090.94248  20604242.593    20604250.0424
  21235037.510   -21804023.341 9 -16961949.12247  21235040.379    21235047.2924
  20920990.139   -21338459.867 9 -16614255.80447  20920992.344    20921000.0764
  21122054.896   -18984866.402 9 -14776393.08847  21122057.729    21122065.2824
  23815461.845    -7509684.636 8  -5629078.30545  23815461.184    23815469.6214
 00  8  9  3 23 30.0000000  0  7 13 22 03 31 01 19 27
  24524760.151    -2253263.420 8  -1733919.64945  24524759.320    24524769.3654
  22027204.509   -17599755.522 8 -13687535.25547  22027207.496    22027214.5634
  20604020.333   -23150921.897 9 -17781984.63348  20604024.525    20604031.5244
  21219262.056   -21886930.699 9 -17026552.21747  21219264.145    21219270.9874
  20929408.123   -21294220.795 9 -16579783.81647  20929410.733    20929418.2394
  21110460.091   -19045797.710 9 -14823871.99247  21110462.711    21110470.3134
  23797883.006    -7602028.810 8  -5701034.71345  23797888.230    23797896.8314
 00  8  9  3 24  0.0000000  0  7 13 22 03 31 01 19 27
  24507678.902    -2343030.374 8  -1803867.79645  24507678.156    24507684.8894
  22042444.623   -17519674.410 8 -13625134.41847  22042446.975    22042454.3504
  20603916.836   -23151481.146 9 -17782420.40248  20603918.205    20603924.9844
  21203566.223   -21969398.724 9 -17090812.96247  21203570.105    21203577.7524
  20937928.947   -21249446.188 9 -16544894.53347  20937931.203    20937938.4194
  21098912.198   -19106484.639 9 -14871160.48847  21098914.458    21098922.2844
  23780313.486    -7694366.161 8  -5772985.77645  23780316.965    23780325.4304
 00  8  9  3 24 30.0000000  0  7 13 22 03 31 01 19 27
  24490648.688    -2432498.692 8  -1873583.28645  24490654.343    24490660.4964
  22057708.806   -17439470.756 8 -13562638.08147  22057708.972    22057716.2694
  20603918.837   -23151452.760 9 -17782398.26748  20603923.496    20603930.5074
  21187959.464   -22051424.863 9 -17154729.39847  21187962.066    21187968.5534
  20946551.547   -21204137.320 9 -16509588.94247  20946553.606    20946560.7664
  21087409.482   -19166925.273 9 -14918257.06047  21087413.342    21087420.2294
  23762746.069    -7786695.344 8  -5844930.49845  23762746.918    23762755.4924
 00  8  9  3 25  0.0000000  0  7 13 22 03 31 01 19 27
  24473681.945    -2521665.770 7  -1943063.98245  24473685.254    24473693.1734
  22072992.643   -17359146.196 8 -13500047.54347  22072994.064    22073001.9544
  20604039.214   -23150837.088 9 -17781918.51248  20604040.544    20604047.7124
  21172434.243   -22133006.838 9 -17218299.72947  21172436.902    21172443.8434
  20955272.887   -21158295.585 9 -16473868.12647  20955276.601    20955284.1874
  21075954.363   -19227117.975 9 -14965160.43847  21075958.583    21075966.2464
  23745175.042    -7879014.921 8  -5916867.71945  23745179.617    23745187.3384
 00  8  9  3 25 30.0000000  0  7 13 22 03 31 01 19 27
  24456770.228    -2610529.451 7  -2012308.26645  24456772.321    24456783.0184
  22088303.013   -17278701.854 8 -13437363.67547  22088302.211    22088309.8964
  20604266.093   -23149634.848 9 -17780981.69248  20604269.379    20604276.4334
  21156994.192   -22214142.427 9 -17281522.21247  21156996.883    21157004.9424
  20964098.816   -21111922.680 9 -16437733.41147  20964100.959    20964108.6314
  21064550.460   -19287060.636 9 -15011868.97547  21064552.324    21064559.4594
  23727610.348    -7971323.809 8  -5988796.60445  23727612.878    23727621.7644
 00  8  9  3 26  0.0000000  0  7 13 22 03 31 01 19 27
  24439923.213    -2699086.794 8  -2081313.83145  24439923.456    24439928.4654
  22103630.541   -17198138.665 8 -13374587.19747  22103633.307    22103640.5344
  20604609.211   -23147846.208 9 -17779587.93748  20604609.848    20604616.9874
  21141638.494   -22294829.100 9 -17344394.88947  21141642.667    21141650.1424
  20973024.291   -21065020.074 9 -16401185.94347  20973026.500    20973033.9564
  21053188.573   -19346751.562 9 -15058381.36947  21053193.829    21053200.2404
  23710048.200    -8063620.751 8  -6060716.20445  23710049.248    23710058.1724
 00  8  9  3 26 30.0000000  0  7 13 22 03 31 01 19 27
  24423131.420    -2787335.183 8  -2150078.70445  24423130.386    24423136.2584
  22118985.525   -17117458.050 8 -13311719.20547  22118986.558    22118993.9564
  20605058.067   -23145471.663 9 -17777737.62648  20605061.674    20605068.9034
  21126376.010   -22375064.174 9 -17406915.68847  21126374.595    21126382.0944
  20982052.150   -21017589.206 9 -16364226.83747  20982052.379    20982059.4824
  21041879.518   -19406189.089 9 -15104696.29847  21041883.098    21041889.9604
  23692481.589    -8155904.192 8  -6132625.28745  23692488.619    23692496.8704
 00  8  9  3 27  0.0000000  0  7 13 22 03 31 01 19 27
  24406390.000    -2875271.919 7  -2218600.69745  24406394.275    24406401.3704
  22134361.639   -17036661.567 8 -13248760.94147  22134361.402    22134368.7724
  20605621.334   -23142511.442 9 -17775430.94848  20605624.796    20605632.1124
  21111187.675   -22454845.275 9 -17469082.73847  21111193.228    21111199.7964
  20991175.669   -20969631.673 9 -16326857.35347  20991178.155    20991185.5544
  21030615.883   -19465371.447 9 -15150812.38947  21030620.664    21030627.9084
  23674924.037    -8248172.958 8  -6204522.95146  23674930.576    23674939.2124
 00  8  9  3 27 30.0000000  0  7 13 22 03 31 01 19 27
  24389713.547    -2962894.433 8  -2286877.82345  24389721.014    24389728.9464
  22149756.814   -16955750.788 8 -13185713.60147  22149758.124    22149765.4124
  20606296.223   -23138966.071 9 -17772668.31248  20606299.889    20606306.6834
  21096095.885   -22534170.587 9 -17530894.64047  21096097.394    21096104.2164
  21000400.841   -20921149.078 9 -16289078.72547  21000404.008    21000411.7414
  21019404.954   -19524296.534 9 -15196728.00847  21019407.441    21019414.8674
  23657376.304    -8340425.685 8  -6276408.08646  23657375.662    23657384.2574
 00  8  9  3 28  0.0000000  0  7 13 22 03 31 01 19 27
  24373104.542    -3050200.181 8  -2354908.14245  24373107.631    24373114.9434
  22165175.485   -16874726.631 8 -13122577.92446  22165176.254    22165184.1014
  20607081.287   -23134836.047 9 -17769450.09748  20607085.924    20607092.4034
  21081085.655   -22613037.676 9 -17592349.47247  21081089.304    21081096.8484
  21009728.560   -20872142.966 9 -16250892.16347  21009729.624    21009737.4244
  21008240.854   -19582962.843 9 -15242441.97647  21008243.704    21008251.0224
  23639826.188    -8432660.988 8  -6348279.69646  23639824.526    23639832.6724
 00  8  9  3 28 30.0000000  0  7 13 22 03 31 01 19 27
  24356549.392    -3137186.505 8  -2422689.58145  24356553.639    24356561.1914
  22180616.361   -16793590.220 8 -13059354.76846  22180615.991    22180623.7704
  20607980.416   -23130121.740 9 -17765776.60248  20607982.614    20607989.5884
  21066167.149   -22691444.137 9 -17653445.37647  21066169.202    21066176.7094
  21019152.607   -20822614.957 9 -16212298.93447  21019154.577    21019162.2444
  20997127.822   -19641368.459 9 -15287952.81247  20997129.882    20997136.7234
  23622277.674    -8524877.455 8  -6420136.62046  23622275.684    23622283.5594
 00  8  9  3 29  0.0000000  0  7 13 22 03 31 01 19 27
  24340052.028    -3223851.710 7  -2490220.77545  24340062.304    24340069.6434
  22196073.901   -16712342.793 8 -12996045.12046  22196076.798    22196084.2134
  20608986.341   -23124823.568 9 -17761648.14948  20608990.941    20608997.7564
  21051335.171   -22769387.573 9 -17714180.48147  21051337.453    21051344.8604
  21028675.977   -20772566.435 9 -16173300.11147  21028678.609    21028686.2284
  20986063.751   -19699511.407 9 -15333258.97247  20986065.712    20986072.2954
  23604724.851    -8617073.637 8  -6491977.69546  23604731.068    23604740.2324
 00  8  9  3 29 30.0000000  0  7 13 22 03 31 01 19 27
  24323633.386    -3310192.350 8  -2557499.08345  24323633.248    24323639.9944
  22211555.208   -16630986.151 8 -12932650.36346  22211558.147    22211566.0634
  20610105.816   -23118942.214 9 -17757065.26248  20610110.167    20610116.9294
  21036593.223   -22846865.990 9 -17774553.22747  21036593.647    21036601.0714
  21038299.729   -20721999.218 9 -16133897.10247  21038301.499    21038308.7234
  20975046.701   -19757390.374 9 -15378359.44747  20975051.211    20975058.1694
  23587184.963    -8709248.317 8  -6563802.03446  23587190.788    23587198.9354
 00  8  9  3 30  0.0000000  0  7 13 22 03 31 01 19 27
  24307259.682    -3396205.760 7  -2624522.41645  24307263.384    24307271.7644
  22227054.866   -16549521.569 8 -12869171.48946  22227060.162    22227068.5314
  20611337.457   -23112478.164 9 -17752028.32748  20611340.071    20611347.1484
  21021936.251   -22923876.944 9 -17834561.72547  21021938.367    21021945.9124
  21048018.538   -20670915.150 9 -16094091.35647  21048022.678    21048029.4804
  20964084.984   -19815003.166 9 -15423252.49647  20964087.852    20964095.3574
  23569652.830    -8801400.237 8  -6635608.68246  23569655.143    23569662.2634
 00  8  9  3 30 30.0000000  0  7 13 22 03 31 01 19 27
  24290952.191    -3481889.427 8  -2691288.78545  24290958.819    24290966.4414
  22242580.531   -16467949.880 8 -12805609.17146  22242583.032    22242590.5134
  20612679.098   -23105432.149 9 -17746537.91348  20612681.147    20612687.8684
  21007371.929   -23000418.139 9 -17894204.18447  21007373.257    21007380.8404
  21057838.556   -20619315.608 9 -16053883.93747  21057841.328    21057848.8014
  20953172.019   -19872347.850 9 -15467936.63947  20953175.589    20953182.6344
  23552120.161    -8893527.739 8  -6707396.30246  23552123.505    23552131.3414
 00  8  9  3 31  0.0000000  0  7 13 22 03 31 01 19 27
  24274713.922    -3567241.166 8  -2757796.55945  24274717.886    24274723.8044
  22258122.288   -16386272.215 8 -12741964.24946  22258125.829    22258133.5834
  20614130.135   -23097804.807 9 -17740594.52348  20614132.402    20614139.2474
  20992896.972   -23076487.304 9 -17953478.80447  20992897.884    20992905.5034
  21067753.917   -20567202.402 9 -16013276.27247  21067758.158    21067765.8204
  20942312.543   -19929422.467 9 -15512410.33847  20942314.206    20942321.5914
  23534588.569    -8985629.478 8  -6779163.81246  23534596.077    23534605.8854
 00  8  9  3 31 30.0000000  0  7 13 22 03 31 01 19 27
  24258536.225    -3652258.479 8  -2824043.74645  24258538.596    24258546.7864
  22273685.635   -16304489.991 8 -12678237.87146  22273689.270    22273696.2884
  20615691.212   -23089596.663 9 -17734198.55948  20615694.323    20615701.3914
  20978512.098   -23152082.229 9 -18012383.91347  20978513.012    20978519.5654
  21077770.771   -20514577.427 9 -15972269.82647  21077772.210    21077780.1144
  20931504.251   -19986225.149 9 -15556672.13647  20931505.120    20931512.4744
  23517072.355    -9077704.163 8  -6850910.26446  23517075.530    23517083.6634
 00  8  9  3 32  0.0000000  0  7 13 22 03 31 01 19 27
  24242423.316    -3736938.367 8  -2890027.97445  24242425.563    24242432.7034
  22289269.289   -16222604.740 8 -12614431.20646  22289271.026    22289279.1284
  20617362.683   -23080808.314 9 -17727350.48148  20617366.620    20617374.0774
  20964217.929   -23227200.935 9 -18070917.92747  20964218.442    20964224.8994
  21087881.378   -20461442.490 9 -15930866.00447  21087883.642    21087891.3134
  20920743.817   -20042754.430 9 -15600720.89547  20920748.090    20920755.5454
  23499557.698    -9169750.352 8  -6922634.49146  23499559.522    23499567.3654
 00  8  9  3 32 30.0000000  0  7 13 22 03 31 01 19 27
  24226377.200    -3821278.882 8  -2955747.78845  24226375.079    24226383.3284
  22304869.913   -16140617.764 8 -12550545.28746  22304872.610    22304880.7074
  20619144.979   -23071440.523 9 -17720050.89648  20619149.195    20619156.3654
  20950011.658   -23301840.808 9 -18129078.83447  20950014.824    20950021.5984
  21098090.752   -20407799.288 9 -15889066.12547  21098091.835    21098099.5334
  20910039.729   -20099008.375 9 -15644555.11547  20910043.310    20910050.7174
  23482047.058    -9261766.487 8  -6994335.34046  23482049.031    23482057.5834
 00  8  9  3 33  0.0000000  0  7 13 22 03 31 01 19 27
  24210389.245    -3905276.795 8  -3021200.64145  24210390.671    24210398.3584
  22320490.306   -16058529.823 8 -12486580.67546  22320492.879    22320501.3454
  20621039.449   -23061493.760 9 -17712300.16148  20621042.073    20621049.2204
  20935898.601   -23375999.860 9 -18186865.06947  20935902.133    20935909.6274
  21108393.844   -20353649.451 9 -15846871.46947  21108396.143    21108403.6644
  20899387.784   -20154985.145 9 -15688173.35047  20899391.257    20899398.4664
  23464546.372    -9353751.161 8  -7066011.66346  23464545.870    23464554.5644
 00  8  9  3 33 30.0000000  0  7 13 22 03 31 01 19 27
  24194473.183    -3988930.052 8  -3086384.91445  24194472.540    24194479.1084
  22336131.723   -15976341.997 8 -12422538.24546  22336132.594    22336141.3564
  20623041.138   -23050968.938 9 -17704098.98948  20623044.742    20623051.8084
  20921878.978   -23449675.935 9 -18244274.95147  20921882.101    20921889.7854
  21118794.460   -20298994.774 9 -15804283.44447  21118796.807    21118803.9594
  20888788.703   -20210682.734 9 -15731574.04547  20888792.244    20888799.7824
  23447040.877    -9445702.779 8  -7137662.20946  23447048.841    23447056.6824
 00  8  9  3 34  0.0000000  0  7 13 22 03 31 01 19 27
  24178613.024    -4072235.794 8  -3151298.43945  24178620.846    24178626.1384
  22351791.221   -15894055.797 8 -12358419.16146  22351791.656    22351800.1444
  20625156.048   -23039866.815 9 -17695447.97348  20625156.893    20625164.8274
  20907950.251   -23522866.861 9 -18301306.79347  20907954.668    20907962.0624
  21129290.870   -20243837.145 9 -15761303.50347  21129292.839    21129300.0664
  20878243.751   -20266099.334 9 -15774755.79547  20878246.855    20878253.9634
  23429551.297    -9537619.993 8  -7209285.94846  23429555.812    23429564.6874
 00  8  9  3 34 30.0000000  0  7 13 22 03 31 01 19 27
  24162831.894    -4155191.255 8  -3215939.01345  24162834.116    24162840.9074
  22367469.156   -15811672.743 8 -12294224.60946  22367468.319    22367476.7134
  20627375.361   -23028188.085 9 -17686347.65748  20627379.231    20627387.1794
  20894119.567   -23595570.661 9 -18357959.06747  20894119.490    20894126.9144
  21139881.182   -20188178.406 9 -15717933.07847  21139884.200    21139891.4234
  20867752.751   -20321233.045 9 -15817717.11147  20867755.350    20867762.9254
  23412073.506    -9629501.476 8  -7280881.84446  23412071.665    23412079.1724
 00  8  9  3 35  0.0000000  0  7 13 22 03 31 01 19 27
  24147113.946    -4237794.927 8  -3280305.45845  24147114.796    24147122.4734
  22383160.927   -15729193.708 8 -12229955.25046  22383163.743    22383171.6894
  20629707.402   -23015933.522 9 -17676798.64048  20629711.500    20629719.0484
  20880374.270   -23667785.278 9 -18414230.15947  20880377.714    20880384.6064
  21150568.408   -20132020.372 9 -15674173.59947  21150570.689    21150578.2144
  20857314.171   -20376082.011 9 -15860456.53547  20857317.770    20857325.0744
  23394591.920    -9721345.499 8  -7352448.59546  23394595.856    23394603.2774
 00  8  9  3 35 30.0000000  0  7 13 22 03 31 01 19 27
  24131463.159    -4320043.511 8  -3344395.21445  24131463.253    24131470.9554
  22398873.095   -15646619.663 8 -12165611.86146  22398876.740    22398884.7624
  20632149.208   -23003103.760 9 -17666801.41148  20632152.885    20632160.4474
  20866725.303   -23739508.482 9 -18470118.32647  20866728.242    20866736.1764
  21161347.523   -20075364.775 9 -15630026.40147  21161351.826    21161359.3664
  20846932.377   -20430644.633 9 -15902972.84547  20846934.852    20846942.2324
  23377118.836    -9813150.416 8  -7423984.82246  23377124.937    23377132.8764
 00  8  9  3 36  0.0000000  0  7 13 22 03 31 01 19 27
  24115870.265    -4401934.720 8  -3408206.48745  24115878.269    24115887.7904
  22414604.973   -15563951.674 8 -12101195.25746  22414608.264    22414616.6564
  20634699.899   -22989699.655 9 -17656356.64348  20634703.693    20634711.3104
  20853172.680   -23810738.139 9 -18525621.91347  20853174.414    20853181.4674
  21172224.038   -20018213.780 9 -15585493.19147  21172227.434    21172235.1284
  20836606.071   -20484918.913 9 -15945264.47847  20836607.154    20836614.3804
  23359662.326    -9904914.960 8  -7495489.57946  23359661.594    23359670.5184
 00  8  9  3 36 30.0000000  0  7 13 22 03 31 01 19 27
  24100365.259    -4483466.037 8  -3471737.32745  24100365.648    24100372.7874
  22430358.152   -15481191.280 8 -12036706.66846  22430357.422    22430365.5584
  20637361.258   -22975722.240 9 -17645465.14448  20637363.420    20637370.8124
  20839711.300   -23881472.179 9 -18580739.30547  20839714.146    20839721.0684
  21183194.480   -19960569.400 9 -15540575.52747  21183196.802    21183204.2874
  20826331.507   -20538902.887 9 -15987329.89747  20826334.107    20826341.3664
  23342204.095    -9996637.461 8  -7566961.57346  23342207.952    23342216.2974
 00  8  9  3 37  0.0000000  0  7 13 22 03 31 01 19 27
  24084915.515    -4564634.847 8  -3534985.68845  24084919.062    24084926.2744
  22446122.562   -15398339.917 8 -11972147.19446  22446123.462    22446131.5854
  20640128.728   -22961172.127 9 -17634127.39148  20640132.106    20640139.4934
  20826347.285   -23951708.584 9 -18635468.94247  20826348.526    20826355.5574
  21194256.771   -19902433.354 9 -15495274.74547  21194260.043    21194267.5054
  20816114.946   -20592594.922 9 -16029167.82747  20816116.466    20816124.0734
  23324760.965   -10088316.560 8  -7638399.78846  23324761.751    23324770.5254
 00  8  9  3 37 30.0000000  0  7 13 22 03 31 01 19 27
  24069545.901    -4645438.425 8  -3597949.50745  24069543.613    24069549.5834
  22461905.635   -15315398.315 8 -11907517.41446  22461906.578    22461915.4994
  20643006.997   -22946050.484 9 -17622344.28448  20643009.942    20643016.8094
  20813075.378   -24021445.197 9 -18689809.11747  20813077.855    20813085.2304
  21205413.124   -19843807.668 9 -15449592.41747  21205415.914    21205423.3334
  20805951.435   -20645993.122 9 -16070776.80347  20805955.206    20805962.6284
  23307324.419   -10179950.716 8  -7709802.94346  23307324.627    23307333.1144
 00  8  9  3 38  0.0000000  0  7 13 22 03 31 01 19 27
  24054227.473    -4725874.338 8  -3660626.78945  24054236.511    24054244.0854
  22477702.398   -15232367.396 8 -11842818.03346  22477706.990    22477715.4204
  20645992.892   -22930358.248 9 -17610116.56548  20645996.095    20646003.1144
  20799899.410   -24090680.065 9 -18743758.32347  20799902.724    20799910.0754
  21216662.180   -19784694.280 9 -15403530.06347  21216664.647    21216672.7504
  20795848.719   -20699095.736 9 -16112155.45047  20795849.996    20795857.7964
  23289895.480   -10271538.357 8  -7781169.91146  23289896.437    23289904.0694
 00  8  9  3 38 30.0000000  0  7 13 22 03 31 01 19 27
  24038996.225    -4805940.554 8  -3723015.94845  24039000.459    24039007.9824
  22493521.574   -15149248.249 8 -11778049.89446  22493523.880    22493532.8714
  20649088.531   -22914096.405 9 -17597444.99748  20649090.684    20649097.9674
  20786819.737   -24159411.466 9 -18797315.21447  20786823.787    20786830.6914
  21228000.797   -19725095.231 9 -15357089.27547  21228006.167    21228014.1674
  20785799.088   -20751900.706 9 -16153302.16647  20785801.717    20785809.4084
  23272473.890   -10363077.844 8  -7852499.35146  23272475.739    23272485.2074
 00  8  9  3 39  0.0000000  0  7 13 22 03 31 01 19 27
  24023829.180    -4885634.544 8  -3785115.14145  24023834.428    24023842.3224
  22509356.007   -15066042.493 8 -11713214.28846  22509357.184    22509366.3844
  20652288.767   -22897265.942 9 -17584330.34548  20652293.157    20652300.6834
  20773839.027   -24227637.416 9 -18850478.25647  20773840.851    20773847.7074
  21239435.595   -19665012.510 9 -15310271.60247  21239439.562    21239447.2524
  20775807.325   -20804406.039 9 -16194215.40247  20775810.510    20775817.7654
  23255064.197   -10454567.567 8  -7923789.96446  23255066.523    23255075.1154
 00  8  9  3 39 30.0000000  0  7 13 22 03 31 01 19 27
  24008739.195    -4964954.020 8  -3846922.45845  24008740.159    24008747.8234
  22525202.776   -14982751.269 8 -11648312.07946  22525206.955    22525215.3814
  20655598.790   -22879867.465 9 -17570773.08748  20655604.148    20655611.1764
  20760952.976   -24295355.665 9 -18903245.69847  20760954.650    20760961.7784
  21250962.956   -19604448.119 9 -15263078.59347  21250964.373    21250972.2024
  20765873.484   -20856609.929 9 -16234893.74847  20765876.490    20765883.4254
  23237666.375   -10546006.075 8  -7995040.67546  23237666.208    23237673.8714
 00  8  9  3 40  0.0000000  0  7 13 22 03 31 01 19 27
  23993715.295    -5043895.803 8  -3908435.49545  23993718.963    23993726.4574
  22541073.027   -14899375.504 8 -11583343.97646  22541073.290    22541080.9294
  20659019.640   -22861902.194 9 -17556774.16848  20659022.983    20659029.9774
  20748163.526   -24362564.488 9 -18955616.17147  20748164.994    20748172.4624
  21262576.400   -19543404.194 9 -15215511.92447  21262580.654    21262588.2404
  20755996.349   -20908510.543 9 -16275335.77147  20755999.835    20756007.3794
  23220266.679   -10637391.788 8  -8066250.25246  23220275.213    23220284.1404
 00  8  9  3 40 30.0000000  0  7 13 22 03 31 01 19 27
  23978762.829    -5122457.861 8  -3969652.58745  23978768.223    23978775.5714
  22556953.610   -14815915.884 8 -11518310.54246  22556955.881    22556962.7584
  20662545.159   -22843370.940 9 -17542334.22548  20662549.076    20662556.2464
  20735468.747   -24429261.999 9 -19007588.21747  20735472.778    20735480.1834
  21274285.368   -19481882.837 9 -15167573.21947  21274288.002    21274295.2224
  20746178.897   -20960106.256 9 -16315540.20647  20746181.697    20746188.8044
  23202895.908   -10728723.120 8  -8137417.43446  23202896.457    23202904.3394
 00  8  9  3 41  0.0000000  0  7 13 22 03 31 01 19 27
  23963888.063    -5200638.054 8  -4030572.16945  23963891.928    23963898.0404
  22572849.773   -14732373.570 8 -11453212.65546  22572852.769    22572860.9024
  20666180.713   -22824274.957 9 -17527454.24248  20666183.230    20666190.0904
  20722876.064   -24495446.001 9 -19059160.12647  20722878.426    20722885.6734
  21286085.254   -19419885.954 9 -15119263.97447  21286085.357    21286092.9364
  20736418.840   -21011394.967 9 -16355505.41747  20736421.293    20736429.1224
  23185522.191   -10819998.434 8  -8208541.00046  23185526.933    23185535.5474
 00  8  9  3 41 30.0000000  0  7 13 22 03 31 01 19 27
  23949085.428    -5278433.138 8  -4091191.64745  23949086.528    23949094.3854
  22588765.625   -14648750.258 8 -11388051.68546  22588766.193    22588774.1324
  20669918.764   -22804615.536 9 -17512135.20348  20669924.215    20669931.2454
  20710382.398   -24561114.759 9 -19110330.56047  20710382.427    20710389.1864
  21297971.107   -19357415.569 9 -15070585.78347  21297973.324    21297981.4634
  20726718.123   -21062374.911 9 -16395230.02147  20726720.190    20726728.0294
  23168166.641   -10911216.155 8  -8279619.64546  23168168.661    23168176.8464
 00  8  9  3 42  0.0000000  0  7 13 22 03 31 01 19 27
  23934357.524    -5355841.008 8  -4151509.39945  23934356.985    23934363.9734
  22604692.123   -14565046.940 8 -11322828.35046  22604695.276    22604702.1174
  20673770.389   -22784393.422 9 -17496377.70948  20673772.260    20673779.3314
  20697982.885   -24626266.435 9 -19161098.07347  20697984.260    20697991.0294
  21309947.410   -19294473.829 9 -15021540.30347  21309950.796    21309958.7684
  20717075.065   -21113044.083 9 -16434712.46847  20717078.162    20717085.8704
  23150816.211   -11002374.665 8  -8350652.16846  23150822.346    23150830.3364
 00  8  9  3 42 30.0000000  0  7 13 22 03 31 01 19 27
  23919693.751    -5432859.388 8  -4211523.65845  23919700.954    23919707.9554
  22620638.935   -14481264.334 8 -11257543.23746  22620637.562    22620645.7124
  20677722.081   -22763609.863 9 -17480182.72548  20677727.366    20677734.2604
  20685684.071   -24690899.029 9 -19211461.10247  20685685.012    20685692.0714
  21322013.729   -19231062.959 9 -14972129.25847  21322017.728    21322025.4444
  20707493.732   -21163400.510 9 -16473951.22447  20707495.902    20707503.4004
  23133480.970   -11093472.263 8  -8421637.24146  23133486.623    23133493.4834
 00  8  9  3 43  0.0000000  0  7 13 22 03 31 01 19 27
  23905120.730    -5509486.037 8  -4271232.65245  23905119.149    23905126.2224
  22636591.219   -14397403.155 8 -11192196.90946  22636596.318    22636604.1104
  20681785.874   -22742265.787 9 -17463550.97048  20681788.929    20681796.0944
  20673481.553   -24755010.514 9 -19261418.06747  20673485.198    20673491.8354
  21334170.613   -19167185.019 9 -14922354.25947  21334173.547    21334180.6704
  20697969.189   -21213442.523 9 -16512944.97447  20697973.162    20697980.7214
  23116163.044   -11184507.454 8  -8492573.69146  23116163.364    23116170.8614
 00  8  9  3 43 30.0000000  0  7 13 22 03 31 01 19 27
  23890607.288    -5585718.469 8  -4330634.46245  23890613.210    23890620.1814
  22652568.789   -14313464.838 8 -11126790.47446  22652568.796    22652577.2344
  20685952.541   -22720362.482 9 -17446483.45648  20685956.845    20685963.9744
  20661378.685   -24818599.431 9 -19310967.84547  20661383.983    20661390.6784
  21346416.200   -19102842.129 9 -14872216.95547  21346417.432    21346424.6704
  20688507.863   -21263168.300 9 -16551692.30747  20688510.809    20688518.0324
  23098851.889   -11275478.431 8  -8563460.11046  23098852.893    23098860.5274
 00  8  9  3 44  0.0000000  0  7 13 22 03 31 01 19 27
  23876177.601    -5661554.204 8  -4389727.20245  23876181.876    23876187.5494
  22668555.221   -14229450.718 8 -11061324.96946  22668556.766    22668563.9364
  20690228.533   -22697901.131 9 -17428981.10448  20690231.320    20690238.5074
  20649384.159   -24881663.970 9 -19360109.00547  20649383.456    20649390.5934
  21358747.338   -19038036.600 9 -14821719.16947  21358749.146    21358756.8784
  20679106.014   -21312575.981 9 -16590191.77647  20679108.422    20679116.1494
  23081546.571   -11366383.557 8  -8634295.22446  23081552.701    23081560.4554
 00  8  9  3 44 30.0000000  0  7 13 22 03 31 01 19 27
  23861820.230    -5736990.855 8  -4448508.94545  23861826.441    23861833.7954
  22684561.504   -14145361.828 8 -10995801.19746  22684558.172    22684565.5154
  20694607.721   -22674883.043 9 -17411044.93147  20694611.200    20694618.3744
  20637481.705   -24944202.286 9 -19408840.12847  20637482.886    20637489.7804
  21371163.738   -18972770.655 9 -14770862.62247  21371168.849    21371176.2894
  20669763.668   -21361663.714 9 -16628441.92647  20669767.571    20669775.1174
  23064265.969   -11457221.259 8  -8705077.76446  23064267.001    23064274.9504
 00  8  9  3 45  0.0000000  0  8 13 22 03 31 15 01 19 27
  23847543.330    -5812026.049 8  -4506977.80545  23847547.428    23847555.3954
  22700571.424   -14061198.730 8 -10930219.59646  22700573.922    22700580.8294
  20699095.016   -22651309.231 9 -17392675.72947  20699097.450    20699104.1904
  20625679.229   -25006212.861 9 -19457160.03247  20625682.871    20625689.7284
  24028240.384      -85948.24818
  21383672.150   -18907046.502 9 -14719649.02447  21383675.478    21383683.3394
  20660485.482   -21410429.630 9 -16666441.31447  20660488.069    20660494.9854
  23046996.223   -11547989.791 8  -8775806.42246  23046995.503    23047002.0554
 00  8  9  3 45 30.0000000  0  8 13 22 03 31 15 01 19 27
  23833339.480    -5886657.229 8  -4565131.91445  23833343.972    23833352.6124
  22716599.962   -13976962.307 8 -10864580.84946  22716602.898    22716610.4604
  20703685.111   -22627181.299 9 -17373874.74247  20703688.725    20703695.5704
  20613980.602   -25067693.668 9 -19505067.12247  20613983.219    20613990.3524
  24012977.048     -166122.015 7   -117303.46255  24012976.776    24012986.9134
  21396266.195   -18840866.193 9 -14668079.97647  21396269.869    21396277.4164
  20651268.311   -21458871.648 9 -16704188.31647  20651269.626    20651276.8024
  23029732.203   -11638687.531 8  -8846479.95546  23029734.959    23029742.5334
 00  8  9  3 46  0.0000000  0  8 13 22 03 31 15 01 19 27
  23819216.072    -5960881.968 8  -4622969.32545  23819221.733    23819228.1394
  22732645.001   -13892653.932 8 -10798886.05446  22732646.352    22732654.7934
  20708383.659   -22602500.208 9 -17354642.72547  20708385.299    20708392.4054
  20602381.618   -25128643.239 9 -19552560.26047  20602384.508    20602391.7714
  23997760.521     -246097.583 7   -179621.92545  23997757.610    23997769.5004
  21408947.579   -18774231.932 9 -14616157.19147  21408950.067    21408957.3984
  20642110.982   -21506987.936 9 -16741681.49947  20642113.369    20642120.6514
  23012484.370   -11729312.633 8  -8917096.84146  23012489.981    23012497.6874
 00  8  9  3 46 30.0000000  0  8 13 22 03 31 15 01 19 27
  23805173.015    -6034698.194 8  -4680488.40745  23805174.941    23805181.0084
  22748705.288   -13808274.929 8 -10733136.22846  22748703.128    22748711.3724
  20713184.236   -22577267.370 9 -17334980.77547  20713187.027    20713194.0054
  20590887.287   -25189059.815 9 -19599638.08347  20590888.113    20590894.6264
  23982576.426     -325871.641 7   -241783.36145  23982578.152    23982589.4334
  21421710.793   -18707146.158 9 -14563882.58747  21421715.162    21421723.7994
  20633017.203   -21554776.705 9 -16778919.47247  20633019.646    20633026.5964
  22995258.832   -11819863.332 8  -8987655.77046  22995259.008    22995265.8274
 00  8  9  3 47  0.0000000  0  8 13 22 03 31 15 01 19 27
  23791204.154    -6108103.281 8  -4737687.10345  23791204.873    23791211.6964
  22764769.185   -13723825.998 8 -10667331.90746  22764773.202    22764781.1814
  20718089.750   -22551483.850 9 -17314889.71847  20718093.532    20718100.5444
  20579489.582   -25248941.440 9 -19646299.06247  20579492.968    20579499.4824
  23967434.180     -405440.833 7   -303785.23545  23967436.768    23967448.6184
  21434564.698   -18639611.040 9 -14511257.86147  21434567.228    21434575.1884
  20623984.058   -21602236.174 9 -16815900.85247  20623988.074    20623995.0784
  22978039.231   -11910338.057 8  -9058155.46646  22978041.839    22978050.5724
 00  8  9  3 47 30.0000000  0  8 13 22 03 31 15 01 19 27
  23777310.580    -6181095.314 8  -4794563.95645  23777316.173    23777324.0264
  22780853.869   -13639307.846 8 -10601473.61846  22780856.964    22780864.9384
  20723100.015   -22525151.119 9 -17294370.70947  20723104.525    20723111.5354
  20568197.835   -25308286.571 9 -19692541.98547  20568199.728    20568206.8374
  23952332.341     -484801.877 7   -365624.88845  23952335.088    23952345.1804
  21447500.855   -18571628.973 9 -14458284.85247  21447504.046    21447511.3434
  20615016.745   -21649364.545 9 -16852624.23847  20615019.870    20615026.9884
  22960835.773   -12000734.937 8  -9128594.55246  22960840.625    22960847.8534
 00  8  9  3 48  0.0000000  0  8 13 22 03 31 15 01 19 27
  23763502.997    -6253672.073 8  -4851117.17245  23763505.571    23763512.8024
  22796953.833   -13554721.456 8 -10535562.19146  22796953.195    22796962.1714
  20728216.335   -22498270.198 9 -17273424.54147  20728219.557    20728226.9264
  20557008.314   -25367093.595 9 -19738365.61547  20557009.143    20557015.7054
  23937266.723     -563951.630 7   -427299.87845  23937271.283    23937284.9934
  21460523.909   -18503202.100 9 -14404965.24247  21460525.327    21460532.4934
  20606110.626   -21696159.986 9 -16889088.18547  20606114.929    20606122.5334
  22943648.467   -12091052.413 8  -9198971.76646  22943652.318    22943660.4584
 00  8  9  3 48 30.0000000  0  8 13 22 03 31 15 01 19 27
  23749763.427    -6325830.985 8  -4907344.84245  23749772.774    23749778.8684
  22813057.537   -13470068.084 8 -10469598.57546  22813061.699    22813070.7434
  20733438.846   -22470842.856 9 -17252052.58947  20733439.016    20733445.8544
  20545919.033   -25425360.984 9 -19783768.75247  20545921.412    20545928.1264
  23922246.669     -642886.432 7   -488807.38345  23922252.898    23922263.1944
  21473629.598   -18434332.647 9 -14351300.76847  21473630.446    21473638.6574
  20597271.640   -21742620.459 9 -16925291.12847  20597273.785    20597281.0054
  22926476.995   -12181288.660 8  -9269285.71946  22926481.222    22926488.9904
 00  8  9  3 49  0.0000000  0  8 13 22 03 31 15 01 19 27
  23736126.644    -6397569.035 8  -4963244.56045  23736121.724    23736129.3794
  22829186.385   -13385348.886 8 -10403583.67446  22829183.906    22829192.0174
  20738759.184   -22442870.226 9 -17230255.74547  20738762.353    20738769.1644
  20534932.853   -25483087.314 9 -19828750.27347  20534936.208    20534943.0164
  23907272.692     -721603.302 8   -550145.09045  23907274.032    23907284.1064
  21486817.606   -18365023.095 8 -14297293.36547  21486819.045    21486827.4274
  20588493.047   -21788744.310 9 -16961231.76747  20588496.434    20588503.7204
  22909322.598   -12271442.036 8  -9339535.05746  22909325.995    22909334.7084
 00  8  9  3 49 30.0000000  0  8 13 22 03 31 15 01 19 27
  23722547.672    -6468884.609 8  -5018815.06145  23722552.086    23722558.9554
  22845319.192   -13300564.671 8 -10337518.07446  22845317.392    22845325.5444
  20744186.262   -22414353.565 9 -17208034.97547  20744188.664    20744195.5104
  20524052.470   -25540270.665 9 -19873308.71247  20524054.732    20524061.6164
  23892327.704     -800099.091 7   -611310.52245  23892334.371    23892346.5534
  21500092.182   -18295275.687 9 -14242944.77347  21500091.772    21500100.1834
  20579781.171   -21834529.507 9 -16996908.52947  20579784.135    20579791.1504
  22892185.173   -12361510.773 8  -9409718.42746  22892185.745    22892194.4374
 00  8  9  3 50  0.0000000  0  8 13 22 03 31 15 01 19 27
  23709056.006    -6539775.923 8  -5074055.00345  23709060.548    23709067.7174
  22861459.842   -13215715.969 8 -10271402.25846  22861463.970    22861471.7744
  20749715.087   -22385294.361 9 -17185391.44247  20749718.073    20749725.1804
  20513275.315   -25596909.185 9 -19917442.59548  20513276.565    20513283.7484
  23877442.791     -878370.159 7   -672300.79245  23877440.029    23877450.2904
  21513443.991   -18225092.762 9 -14188256.82647  21513447.791    21513455.3604
  20571134.866   -21879974.035 9 -17032319.83747  20571136.385    20571143.3564
  22875059.139   -12451493.091 8  -9479834.45246  22875063.787    22875070.8764
 00  8  9  3 50 30.0000000  0  8 13 22 03 31 15 01 19 27
  23695654.124    -6610239.763 8  -5128961.82645  23695650.882    23695659.3414
  22877621.176   -13130803.780 8 -10205236.93546  22877622.425    22877629.8244
  20755349.297   -22355694.142 9 -17162326.34347  20755351.251    20755358.1954
  20502599.724   -25653001.729 9 -19961151.03247  20502602.236    20502609.6744
  23862582.709     -956413.196 7   -733113.41445  23862589.619    23862600.8724
  21526883.094   -18154476.950 9 -14133231.54947  21526885.552    21526893.3334
  20562550.681   -21925076.104 9 -17067464.29547  20562553.695    20562560.7734
  22857954.372   -12541386.975 8  -9549881.57446  22857957.414    22857964.5434
 00  8  9  3 51  0.0000000  0  8 13 22 03 31 15 01 19 27
  23682323.463    -6680274.174 8  -5183534.00945  23682325.770    23682332.5334
  22893793.619   -13045829.525 8 -10139023.27646  22893791.940    22893800.4624
  20761085.041   -22325554.127 9 -17138840.61947  20761086.365    20761093.9354
  20492032.014   -25708547.133 9 -20004433.13548  20492032.670    20492039.4624
  23847780.628    -1034224.972 8   -793745.86545  23847783.729    23847793.7284
  21540403.735   -18083430.484 9 -14077870.71347  21540405.339    21540412.8434
  20554035.087   -21969833.966 9 -17102340.53547  20554036.519    20554043.5224
  22840859.573   -12631190.815 8  -9619858.51146  22840866.868    22840875.5804
 00  8  9  3 51 30.0000000  0  8 13 22 03 31 15 01 19 27
  23669080.680    -6749876.775 8  -5237769.75945  23669080.592    23669086.3054
  22909973.301   -12960794.203 8 -10072762.02746  22909973.974    22909981.4734
  20766918.666   -22294876.023 9 -17114935.61147  20766924.450    20766931.2274
  20481563.889   -25763543.756 9 -20047287.62348  20481566.907    20481573.7274
  23833019.278    -1111802.256 7   -854195.55645  23833020.734    23833030.4514
  21554004.337   -18011955.724 8 -14022176.13247  21554006.047    21554013.9984
  20545583.843   -22014245.749 9 -17136947.11147  20545585.414    20545592.4024
  22823795.316   -12720902.967 8  -9689764.04246  22823796.712    22823803.3574
 00  8  9  3 52  0.0000000  0  8 13 22 03 31 15 01 19 27
  23655912.240    -6819045.758 8  -5291667.61145  23655917.891    23655924.4624
  22926165.380   -12875698.377 8 -10006453.62746  22926167.907    22926174.5724
  20772861.378   -22263661.352 9 -17090612.49647  20772864.682    20772871.2714
  20471205.445   -25817989.962 9 -20089713.21248  20471206.474    20471212.6404
  23818296.034    -1189141.859 7   -914460.03545  23818300.195    23818313.6624
  21567686.623   -17940055.155 8 -13966149.74947  21567688.474    21567696.5244
  20537197.541   -22058309.583 9 -17171282.55147  20537200.016    20537207.3314
  22806739.130   -12810521.488 8  -9759596.60346  22806741.264    22806749.1854
 00  8  9  3 52 30.0000000  0  8 13 22 03 31 15 01 19 27
  23642833.009    -6887778.776 8  -5345225.74945  23642837.577    23642844.9974
  22942366.599   -12790542.660 8  -9940098.56246  22942371.066    22942379.3824
  20778904.511   -22231911.563 9 -17065872.40547  20778906.242    20778913.2824
  20460946.777   -25871884.234 9 -20131708.72648  20460950.562    20460957.1794
  23803637.581    -1266240.426 7   -974536.68445  23803629.685    23803640.6084
  21581447.582   -17867731.146 8 -13909793.42547  21581451.318    21581459.0584
  20528878.612   -22102023.745 9 -17205345.52747  20528882.125    20528888.6324
  22789702.239   -12900044.552 8  -9829354.78346  22789705.367    22789714.2494
 00  8  9  3 53  0.0000000  0  9 13 22 08 03 31 15 01 19 27
  23629840.416    -6956073.340 8  -5398442.19645  23629841.541    23629848.3504
  22958582.845   -12705328.144 8  -9873697.68446  22958587.185    22958595.6114
  24459045.279    -1432897.57817  -1098365.44755  24459044.950    24459055.1344
  20785046.387   -22199628.124 9 -17040716.49047  20785049.667    20785056.4764
  20450797.503   -25925225.278 9 -20173273.14448  20450799.613    20450806.9004
  23789004.940    -1343094.624 8  -1034422.98345  23789006.986    23789016.3704
  21595290.666   -17794986.100 8 -13853109.00847  21595294.174    21595301.8714
  20520627.187   -22145386.296 9 -17239134.52147  20520630.101    20520636.8214
  22772680.746   -12989470.299 8  -9899037.12146  22772689.221    22772697.8114
 00  8  9  3 53 30.0000000  0  9 13 22 08 03 31 15 01 19 27
  23616924.190    -7023927.440 8  -5451315.49645  23616928.871    23616935.3074
  22974812.905   -12620056.072 8  -9807251.97646  22974814.021    22974821.7374
  24439686.340    -1534612.648 7  -1177623.79545  24439690.037    24439698.7094
  20791289.513   -22166812.679 9 -17015146.02147  20791294.213    20791301.0294
  20440752.435   -25978011.743 9 -20214405.42648  20440754.819    20440761.8654
  23774425.285    -1419701.123 8  -1094116.23945  23774428.513    23774439.4214
  21609216.498   -17721822.631 8 -13796098.54847  21609216.796    21609224.4664
  20512442.671   -22188395.508 9 -17272648.17947  20512445.653    20512452.4724
  22755687.245   -13078796.981 8  -9968642.30946  22755690.819    22755698.0454
 00  8  9  3 54  0.0000000  0  9 13 22 08 03 31 15 01 19 27
  23604101.791    -7091338.829 8  -5503843.79245  23604101.196    23604109.2504
  22991045.543   -12534727.469 8  -9740762.20546  22991051.242    22991059.2384
  24420336.391    -1636337.618 7  -1256889.85445  24420332.544    24420341.4844
  20797636.224   -22133466.383 9 -16989161.89947  20797639.593    20797646.6784
  20430812.778   -26030242.144 9 -20255104.40748  20430816.105    20430822.8584
  23759894.929    -1496056.718 7  -1153614.00245  23759899.165    23759910.4194
  21623216.622   -17648243.008 8 -13738763.82547  21623218.533    21623227.0224
  20504325.232   -22231049.519 9 -17305885.06347  20504328.864    20504335.7304
  22738707.635   -13168022.599 8 -10038168.76346  22738711.321    22738719.4964
 00  8  9  3 54 30.0000000  0  9 13 22 08 03 31 15 01 19 27
  23591352.271    -7158305.321 8  -5556025.41846  23591358.939    23591365.2764
  23007299.166   -12449342.635 8  -9674228.61646  23007300.058    23007308.0044
  24400971.295    -1738071.480 7  -1336162.89145  24400972.904    24400982.9174
  20804081.073   -22099590.916 9 -16962765.44047  20804085.906    20804093.1244
  20420981.128   -26081915.130 9 -20295369.04548  20420982.882    20420989.7364
  23745416.713    -1572158.004 8  -1212913.53945  23745416.552    23745426.5624
  21637293.534   -17574249.751 8 -13681106.78047  21637298.947    21637307.3904
  20496276.276   -22273346.580 9 -17338843.80647  20496280.051    20496286.8304
  22721752.467   -13257145.285 8 -10107614.98046  22721752.111    22721760.2984
 00  8  9  3 55  0.0000000  0  9 13 22 08 03 31 15 01 19 27
  23578701.220    -7224824.651 8  -5607858.61645  23578700.219    23578706.7204
  23023554.285   -12363902.443 8  -9607651.87846  23023558.788    23023567.3434
  24381613.383    -1839812.448 7  -1415441.45845  24381613.942    24381622.1414
  20810631.110   -22065187.914 9 -16935957.91147  20810632.724    20810639.6824
  20411253.209   -26133029.479 9 -20335198.38848  20411255.869    20411262.8084
  23730984.327    -1648001.528 8  -1272012.24045  23730983.146    23730994.8594
  21651452.852   -17499845.367 8 -13623129.37347  21651458.003    21651465.8584
  20488294.525   -22315284.508 9 -17371522.70747  20488299.291    20488306.3394
  22704806.203   -13346163.266 8 -10176979.61946  22704812.821    22704820.4914
 00  8  9  3 55 30.0000000  0  9 13 22 08 03 31 15 01 19 27
  23566121.469    -7290894.837 8  -5659341.83346  23566127.175    23566134.9834
  23039825.595   -12278407.843 8  -9541032.77146  23039827.440    23039836.5804
  24362250.749    -1941559.515 7  -1494724.79845  24362251.462    24362260.1064
  20817276.798   -22030259.198 9 -16908740.73647  20817279.143    20817286.2624
  20401632.574   -26183583.804 9 -20374591.33948  20401635.920    20401642.8014
  23716601.169    -1723583.836 8  -1330907.43845  23716601.872    23716609.4684
  21665692.355   -17425032.408 8 -13564833.59647  21665694.554    21665702.8844
  20480383.702   -22356861.655 9 -17403920.47747  20480387.322    20480394.7814
  22687891.102   -13435074.678 8 -10246261.20346  22687892.674    22687901.1864
 00  8  9  3 56  0.0000000  0  9 13 22 08 03 31 15 01 19 27
  23553640.022    -7356513.748 8  -5710473.36746  23553640.813    23553647.8284
  23056107.345   -12192860.224 8  -9474372.35546  23056107.598    23056116.3204
  24342888.104    -2043311.035 7  -1574011.61745  24342888.882    24342896.4094
  20824023.891   -21994806.363 9 -16881115.15947  20824025.712    20824032.7664
  20392121.136   -26233576.486 9 -20413546.65148  20392122.872    20392129.3824
  23702268.148    -1798902.242 8  -1389597.00245  23702268.917    23702277.6464
  21680005.627   -17349813.427 8 -13506221.45247  21680007.746    21680016.1964
  20472541.993   -22398075.998 9 -17436035.54147  20472544.501    20472552.0384
  22670987.417   -13523877.532 8 -10315458.20546  22670995.125    22671002.3714
 00  8  9  3 56 30.0000000  0  9 13 22 08 03 31 15 01 19 27
  23541234.922    -7421678.923 8  -5761251.39446  23541240.223    23541246.3864
  23072390.092   -12107260.308 8  -9407671.18046  23072396.326    23072405.4244
  24323514.210    -2145065.803 7  -1653300.94845  24323524.443    24323533.0334
  20830868.388   -21958830.834 9 -16853082.28647  20830871.696    20830878.8524
  20382713.412   -26283006.539 9 -20452063.55248  20382716.470    20382723.0034
  23687988.633    -1873953.292 8  -1448078.21945  23687987.014    23687996.1434
  21694393.575   -17274190.719 8 -13447294.71647  21694398.047    21694406.7244
  20464768.660   -22438925.984 9 -17467866.68847  20464770.893    20464778.6464
  22654119.687   -13612569.938 8 -10384569.13446  22654117.639    22654125.5044
 00  8  9  3 57  0.0000000  0  9 13 22 08 03 31 15 01 19 27
  23528924.624    -7486388.428 8  -5811674.34646  23528927.125    23528932.2524
  23088694.671   -12021608.355 8  -9340929.45546  23088695.550    23088703.9374
  24304155.948    -2246822.275 7  -1732591.57845  24304159.451    24304170.3914
  20837813.533   -21922334.400 9 -16824643.51147  20837816.486    20837823.6284
  20373416.370   -26331872.639 9 -20490141.00348  20373417.266    20373424.1894
  23673750.660    -1948733.816 8  -1506348.61745  23673756.703    23673765.3064
  21708865.039   -17198166.956 8 -13388055.45847  21708865.472    21708873.4354
  20457064.247   -22479409.851 9 -17499412.55847  20457067.147    20457074.8394
  22637257.570   -13701150.135 8 -10453592.62546  22637261.517    22637268.4244
 00  8  9  3 57 30.0000000  0  9 13 22 08 03 31 15 01 19 27
  23516697.212    -7550639.923 8  -5861740.38346  23516698.758    23516705.4564
  23104997.516   -11935905.260 8  -9274147.88046  23105004.153    23105013.2034
  24284791.644    -2348579.169 7  -1811882.54645  24284796.549    24284805.6514
  20844858.532   -21885318.490 9 -16795799.95347  20844860.722    20844867.9094
  20364222.399   -26380173.604 9 -20527778.09548  20364225.820    20364232.7564
  23659578.791    -2023240.330 8  -1564405.51245  23659578.358    23659587.1104
  21723404.074   -17121744.622 8 -13328505.63747  21723408.412    21723416.3994
  20449430.163   -22519525.711 9 -17530671.67147  20449433.332    20449440.9124
  22620424.759   -13789616.223 8 -10522527.21946  22620427.146    22620433.7584
 00  8  9  3 58  0.0000000  0  9 13 22 08 03 31 15 01 19 27
  23504556.576    -7614431.808 8  -5911448.28346  23504560.016    23504566.5884
  23121324.656   -11850152.141 8  -9207327.33146  23121322.813    23121331.1064
  24265430.206    -2450334.675 7  -1891172.46245  24265433.455    24265442.0794
  20852000.061   -21847785.155 9 -16766553.21647  20852003.237    20852009.9484
  20355139.350   -26427908.276 9 -20564973.91548  20355142.434    20355148.7834
  23645448.109    -2097469.655 8  -1622246.41545  23645451.441    23645462.6824
  21738025.314   -17044926.369 8 -13268647.30647  21738026.217    21738034.1004
  20441867.811   -22559271.666 9 -17561642.53947  20441870.340    20441877.2834
  22603615.143   -13877966.139 8 -10591371.26246  22603614.255    22603622.0794
 00  8  9  3 58 30.0000000  0  9 13 22 08 03 31 15 01 19 27
  23492504.331    -7677761.767 8  -5960796.26546  23492508.556    23492515.3934
  23137647.511   -11764350.083 8  -9140468.64646  23137650.039    23137658.6734
  24246064.044    -2552087.716 7  -1970460.46345  24246070.609    24246080.3154
  20859239.116   -21809735.881 9 -16736904.43647  20859243.318    20859250.7554
  20346162.470   -26475075.429 9 -20601727.51648  20346166.720    20346173.4024
  23631378.005    -2171418.675 8  -1679868.92645  23631381.112    23631390.5804
  21752717.230   -16967714.701 8 -13208482.40747  21752719.270    21752726.5734
  20434374.374   -22598646.038 9 -17592323.86347  20434377.680    20434384.5564
  22586819.708   -13966197.979 8 -10660123.31746  22586824.053    22586832.0154
 00  8  9  3 59  0.0000000  0  9 13 22 08 03 31 15 01 19 27
  23480541.223    -7740627.688 8  -6009782.63546  23480545.510    23480552.5884
  23153978.258   -11678499.758 8  -9073572.32046  23153987.031    23153995.0764
  24226704.633    -2653836.805 7  -2049745.38445  24226708.879    24226718.5264
  20866579.711   -21771172.151 9 -16706854.77547  20866581.583    20866589.2354
  20337295.949   -26521673.880 9 -20638037.97748  20337299.259    20337306.1114
  23617356.973    -2245084.013 8  -1737270.37345  23617362.037    23617373.0494
  21767484.362   -16890112.259 8 -13148013.00347  21767486.753    21767493.6214
  20426951.815   -22637646.911 9 -17622714.14847  20426956.057    20426963.0114
  22570055.208   -14054309.852 8 -10728781.88446  22570057.520    22570064.5734
 00  8  9  3 59 30.0000000  0  9 13 22 08 03 31 15 01 19 27
  23468666.954    -7803027.371 8  -6058405.72346  23468671.854    23468677.9294
  23170332.662   -11592601.519 8  -9006638.67846  23170332.295    23170341.8674
  24207348.672    -2755580.257 7  -2129025.89945  24207347.947    24207357.3194
  20874014.057   -21732096.027 9 -16676405.85647  20874017.820    20874025.2834
  20328537.373   -26567702.380 9 -20673904.31048  20328540.422    20328547.2884
  23603396.669    -2318462.553 8  -1794448.35045  23603399.763    23603409.4554
  21782327.439   -16812121.695 8 -13087241.16647  21782327.952    21782335.7974
  20419602.630   -22676272.436 9 -17652811.95347  20419605.747    20419612.8374
  22553311.424   -14142299.763 8 -10797345.42546  22553312.521    22553319.9814
 00  8  9  4  0  0.0000000  0  9 13 22 08 03 31 15 01 19 27
  23456881.793    -7864958.886 8  -6106664.00846  23456885.737    23456892.9234
  23186688.153   -11506656.284 8  -8939668.43846  23186687.354    23186696.6444
  24187988.355    -2857317.001 7  -2208301.18945  24187988.101    24187997.4654
  20881549.667   -21692509.130 9 -16645558.92847  20881551.188    20881558.3174
  20319886.038   -26613160.081 9 -20709325.86748  20319889.862    20319896.8204
  23589482.941    -2391551.175 7  -1851400.41145  23589488.476    23589500.8274
  21797236.358   -16733745.697 8 -13026169.01347  21797242.195    21797250.2584
  20412324.060   -22714521.012 9 -17682616.03147  20412326.911    20412334.3554
  22536589.547   -14230165.754 8 -10865812.38846  22536592.793    22536599.6784
 00  8  9  4  0 30.0000000  0  9 13 22 08 03 31 15 01 19 27
  23445185.383    -7926420.270 8  -6154555.92246  23445189.706    23445197.3064
  23203045.664   -11420665.144 8  -8872662.43246  23203051.501    23203059.8124
  24168626.174    -2959045.243 7  -2287569.83745  24168628.036    24168639.5784
  20889178.720   -21652413.187 9 -16614315.33847  20889181.194    20889188.0864
  20311346.190   -26658045.907 9 -20744301.81048  20311348.352    20311355.3574
  23575635.280    -2464346.477 7  -1908123.89745  23575636.861    23575647.1874
  21812226.640   -16654986.707 8 -12964798.43447  21812229.337    21812237.5524
  20405118.673   -22752390.880 9 -17712125.01747  20405120.879    20405127.9484
  22519890.908   -14317905.828 8 -10934181.22946  22519896.416    22519904.1564
 00  8  9  4  1  0.0000000  0  9 13 22 08 03 31 15 01 19 27
  23433578.400    -7987409.590 8  -6202080.01945  23433583.218    23433589.6914
  23219419.520   -11334629.103 8  -8805621.38846  23219423.411    23219431.7214
  24149265.588    -3060763.607 7  -2366830.82845  24149273.050    24149281.7554
  20896905.225   -21611810.028 9 -16582676.52047  20896907.644    20896914.8464
  20302913.176   -26702358.705 9 -20778831.23348  20302916.144    20302922.7154
  23561841.008    -2536845.072 8  -1964616.19945  23561842.358    23561850.9554
  21827290.946   -16575847.372 8 -12903131.45547  21827288.722    21827297.2904
  20397984.602   -22789880.163 9 -17741337.44447  20397986.965    20397993.9804
  22503224.806   -14405518.182 8 -11002450.54946  22503224.070    22503231.2674
 00  8  9  4  1 30.0000000  0  9 13 22 08 03 31 15 01 19 27
  23422070.224    -8047924.673 8  -6249234.60246  23422069.916    23422074.8564
  23235805.462   -11248548.632 8  -8738545.72546  23235803.449    23235813.0704
  24129917.278    -3162470.689 7  -2446083.03745  24129917.931    24129926.3264
  20904727.497   -21570701.405 9 -16550643.82847  20904730.383    20904737.1824
  20294590.080   -26746097.259 9 -20812913.19248  20294592.741    20294599.6204
  23548103.012    -2609043.742 8  -2020874.82345  23548103.162    23548113.6424
  21842417.746   -16496330.240 8 -12841170.11047  21842421.207    21842428.7804
  20390922.496   -22826986.944 9 -17770251.81247  20390925.514    20390932.4474
  22486570.123   -14493000.760 8 -11070618.74346  22486575.933    22486584.4244
 00  8  9  4  2  0.0000000  0  9 13 22 08 03 31 15 01 19 27
  23410642.637    -8107963.418 8  -6296017.98246  23410644.195    23410650.3004
  23252193.447   -11162424.132 8  -8671435.80046  23252193.153    23252201.9264
  24110566.332    -3264164.760 8  -2525325.09645  24110567.597    24110574.9754
  20912645.751   -21529089.109 9 -16518218.65947  20912648.916    20912655.7964
  20286378.075   -26789260.396 9 -20846546.78448  20286379.447    20286386.0034
  23534418.869    -2680939.246 7  -2076897.19945  23534420.392    23534430.4824
  21857621.697   -16416437.924 8 -12778916.38947  21857624.232    21857631.9184
  20383934.182   -22863709.725 9 -17798866.95947  20383937.406    20383944.5214
  22469954.955   -14580351.586 8 -11138684.26346  22469954.067    22469961.5704
 00  8  9  4  2 30.0000000  0  9 13 22 08 03 31 15 01 19 27
  23399306.907    -8167524.203 8  -6342428.93446  23399309.322    23399316.6544
  23268590.185   -11076256.501 8  -8604292.23846  23268590.472    23268597.7754
  24091217.838    -3365844.347 8  -2604555.87145  24091217.994    24091225.1744
  20920662.177   -21486974.920 9 -16485402.41347  20920662.897    20920670.1324
  20278274.533   -26831847.273 9 -20879731.34148  20278275.454    20278282.0124
  23520794.813    -2752528.463 7  -2132680.85245  23520796.778    23520808.1444
  21872897.003   -16336173.192 8 -12716372.47547  21872898.317    21872906.0874
  20377019.046   -22900046.609 9 -17827181.40547  20377022.813    20377029.6794
  22453353.686   -14667568.668 8 -11206645.57646  22453357.349    22453364.7104
 00  8  9  4  3  0.0000000  0  9 13 22 08 03 31 15 01 19 27
  23388063.012    -8226604.810 8  -6388465.73046  23388067.640    23388074.2564
  23284995.928   -10990047.061 8  -8537116.06146  23284995.179    23285003.1094
  24071868.040    -3467507.848 7  -2683774.10745  24071871.442    24071880.3044
  20928769.443   -21444361.113 9 -16452196.85347  20928771.571    20928779.2094
  20270278.869   -26873857.062 9 -20912466.21948  20270281.046    20270287.6964
  23507228.505    -2823807.975 8  -2188223.23145  23507232.414    23507243.8994
  21888237.857   -16255538.655 8 -12653540.40447  21888241.896    21888250.2344
  20370178.949   -22935995.714 9 -17855193.69047  20370182.018    20370188.7584
  22436783.400   -14754650.024 8 -11274501.14146  22436786.129    22436793.2744
 00  8  9  4  3 30.0000000  0  9 13 22 08 03 31 15 01 19 27
  23376916.525    -8285203.345 8  -6434126.86346  23376915.582    23376923.4854
  23301406.476   -10903796.393 8  -8469907.82246  23301408.116    23301416.7274
  24052525.402    -3569153.857 8  -2762978.67745  24052530.217    24052537.6004
  20936971.482   -21401249.142 9 -16418603.11347  20936975.584    20936983.3054
  20262394.128   -26915288.610 9 -20944750.51548  20262396.717    20262403.5054
  23493730.932    -2894774.963 8  -2243522.10145  23493730.062    23493739.4834
  21903653.194   -16174536.965 8 -12590422.25447  21903656.120    21903664.2994
  20363411.276   -22971555.337 9 -17882902.47547  20363415.032    20363422.1974
  22420236.442   -14841593.584 8 -11342249.30446  22420241.465    22420248.8604
 00  8  9  4  4  0.0000000  0  9 13 22 08 03 31 15 01 19 27
  23365850.420    -8343317.685 8  -6479410.73046  23365857.711    23365863.2544
  23317826.929   -10817504.901 8  -8402667.74846  23317829.097    23317838.4174
  24033187.229    -3670780.905 7  -2842168.51045  24033190.925    24033198.2254
  20945271.900   -21357640.837 9 -16384622.61547  20945274.558    20945281.7534
  20254620.848   -26956141.032 9 -20976583.55148  20254622.498    20254629.3814
  23480283.812    -2965426.050 8  -2298574.79445  23480284.237    23480294.8674
  21919139.584   -16093170.981 8 -12527020.22747  21919139.832    21919146.9834
  20356720.484   -23006723.523 9 -17910306.24747  20356722.875    20356729.9434
  22403722.852   -14928397.391 8 -11409888.58746  22403723.120    22403730.2814
 00  8  9  4  4 30.0000000  0  9 13 22 08 03 31 15 01 19 27
  23354890.958    -8400946.616 8  -6524316.35946  23354891.472    23354896.5084
  23334249.613   -10731173.279 8  -8335396.40146  23334257.114    23334266.2634
  24013845.259    -3772387.243 7  -2921342.22545  24013853.895    24013863.5284
  20953666.356   -21313538.074 9 -16350256.83447  20953667.254    20953673.9794
  20246955.370   -26996413.646 9 -21007964.78748  20246958.838    20246965.6744
  23466887.277    -3035758.208 7  -2353378.94145  23466898.400    23466911.7254
  21934689.435   -16011443.234 8 -12463336.30647  21934691.677    21934700.3094
  20350102.691   -23041498.668 9 -17937403.75347  20350105.315    20350112.2204
  22387225.900   -15015059.299 8 -11477417.28446  22387231.433    22387239.3064
 00  8  9  4  5  0.0000000  0  9 13 22 08 03 31 15 01 19 27
  23344016.160    -8458087.469 8  -6568841.64146  23344017.710    23344023.8844
  23350689.021   -10644802.376 8  -8268094.44846  23350693.297    23350701.6294
  23994525.417    -3873971.510 7  -3000498.70245  23994524.319    23994532.2874
  20962147.340   -21268942.630 9 -16315507.14447  20962153.145    20962160.3144
  20239403.239   -27036105.308 9 -21038893.33048  20239405.817    20239412.7894
  23453573.135    -3105767.942 7  -2407931.86645  23453578.323    23453587.9884
  21950309.304   -15929356.633 8 -12399372.77047  21950312.007    21950320.5124
  20343559.494   -23075879.253 9 -17964193.80047  20343562.504    20343570.1274
  22370767.803   -15101577.216 8 -11544833.80046  22370768.432    22370775.5514
 00  8  9  4  5 30.0000000  0  9 13 22 08 03 31 15 01 19 27
  23333235.546    -8514738.706 8  -6612985.42446  23333237.586    23333243.1034
  23367137.262   -10558393.221 8  -8200762.68546  23367137.421    23367144.8464
  23975197.120    -3975531.970 7  -3079636.62945  23975196.579    23975206.4914
  20970730.716   -21223856.656 9 -16280375.20847  20970732.921    20970739.5124
  20231961.460   -27075215.113 9 -21069368.47948  20231963.443    20231970.6204
  23440316.797    -3175452.303 8  -2462231.29045  23440318.588    23440328.2184
  21965995.198   -15846913.673 8 -12335131.54747  21966000.863    21966009.5454
  20337092.776   -23109863.332 9 -17990674.88547  20337095.768    20337103.2264
  22354329.239   -15187949.327 8 -11612136.70546  22354331.469    22354339.5564
 00  8  9  4  6  0.0000000  0  9 13 22 08 03 31 15 01 19 27
  23322545.461    -8570898.147 8  -6656745.98546  23322550.491    23322556.3824
  23383581.502   -10471946.677 8  -8133401.79846  23383587.291    23383596.6104
  23955872.809    -4077067.117 7  -3158754.83545  23955876.170    23955885.3474
  20979401.339   -21178282.010 9 -16244862.50247  20979405.185    20979412.1994
  20224629.820   -27113742.231 9 -21099389.58948  20224632.158    20224638.9454
  23427114.846    -3244808.118 8  -2516274.67245  23427120.298    23427130.1804
  21981754.790   -15764117.029 8 -12270614.72347  21981756.742    21981765.1124
  20330701.097   -23143449.146 9 -18016845.63447  20330704.526    20330711.9044
  22337920.913   -15274173.487 8 -11679324.29747  22337923.648    22337932.5124
 00  8  9  4  6 30.0000000  0  9 13 22 08 03 31 15 01 19 27
  23311954.162    -8626564.355 8  -6700122.20646  23311957.249    23311962.8614
  23400045.701   -10385462.807 8  -8066011.81346  23400045.041    23400053.4974
  23936560.697    -4178575.252 8  -3237852.01545  23936560.436    23936568.5354
  20988168.473   -21132220.289 9 -16208970.26147  20988170.490    20988177.3894
  20217410.793   -27151686.144 9 -21128956.25048  20217412.138    20217418.3944
  23413982.583    -3313831.967 8  -2570059.40845  23413984.520    23413995.0014
  21997579.634   -15680969.551 8 -12205824.51447  21997579.404    21997587.6254
  20324387.409   -23176635.153 9 -18042704.84547  20324389.611    20324396.8814
  22321538.162   -15360247.601 8 -11746395.01346  22321544.211    22321552.0744
 00  8  9  4  7  0.0000000  0  9 13 22 08 03 31 15 01 19 27
  23301453.866    -8681735.112 8  -6743112.35146  23301458.573    23301465.0324
  23416507.404   -10298942.317 8  -7998593.30346  23416508.478    23416517.4354
  23917245.218    -4280054.923 7  -3316927.02345  23917248.545    23917256.9304
  20997026.969   -21085673.606 9 -16172700.12447  20997027.802    20997035.0364
  20210301.331   -27189045.974 9 -21158067.78548  20210302.775    20210309.3314
  23400913.209    -3382520.643 8  -2623582.93945  23400913.267    23400925.7544
  22013462.736   -15597473.829 8 -12140762.96447  22013467.786    22013476.0714
  20318148.901   -23209419.564 9 -18068251.12347  20318151.167    20318158.2604
  22305192.029   -15446169.722 8 -11813347.27347  22305193.967    22305202.2814
 00  8  9  4  7 30.0000000  0  9 13 22 08 03 31 15 01 19 27
  23291052.693    -8736409.079 8  -6785715.40246  23291054.736    23291060.2624
  23432977.162   -10212386.039 8  -7931146.91745  23432978.553    23432987.8604
  23897940.409    -4381504.254 7  -3395978.34045  23897942.947    23897951.6934
  21005974.472   -21038644.146 9 -16136053.79347  21005977.321    21005984.5364
  20203302.886   -27225820.863 9 -21186723.51948  20203304.346    20203311.0874
  23387904.959    -3450871.036 8  -2676842.90545  23387906.955    23387917.2154
  22029420.164   -15513632.907 8 -12075432.40046  22029422.445    22029430.2914
  20311984.818   -23241800.595 9 -18093483.06848  20311988.860    20311996.3584
  22288869.473   -15531937.659 8 -11880179.39347  22288872.837    22288881.3304
 00  8  9  4  8  0.0000000  0  9 13 22 08 03 31 15 01 19 27
  23280743.129    -8790584.395 8  -6827929.92246  23280745.457    23280750.4644
  23449453.222   -10125795.255 8  -7863673.64846  23449457.358    23449466.6374
  23878640.819    -4482921.717 8  -3475004.76645  23878644.090    23878652.9194
  21015014.082   -20991133.868 9 -16099032.80247  21015018.381    21015025.2934
  20196414.886   -27262010.099 9 -21214922.90248  20196417.754    20196424.4584
  23374964.538    -3518880.152 8  -2729836.92545  23374965.550    23374976.6034
  22045439.978   -15429449.356 8 -12009834.86646  22045441.993    22045449.9104
  20305901.612   -23273776.579 9 -18118399.40247  20305903.797    20305911.5734
  22272576.808   -15617549.353 8 -11946889.75947  22272581.891    22272589.5774
 00  8  9  4  8 30.0000000  0  9 13 22 08 03 31 15 01 19 27
  23270529.244    -8844258.864 8  -6869754.13746  23270531.431    23270538.0644
  23465938.507   -10039170.400 8  -7796173.83246  23465941.899    23465950.5524
  23859350.646    -4584305.797 8  -3554005.27145  23859351.431    23859359.5344
  21024146.885   -20943144.563 9 -16061638.54247  21024150.311    21024157.4304
  20189639.873   -27297612.709 9 -21242665.17048  20189642.788    20189649.4894
  23362087.184    -3586545.132 8  -2782562.78345  23362088.869    23362098.3984
  22061517.759   -15344926.081 8 -11943972.61146  22061525.323    22061534.4704
  20299895.108   -23305345.972 9 -18142998.91048  20299896.716    20299904.0314
  22256318.156   -15703002.660 8 -12013476.74047  22256320.654    22256328.3184
